[[{"header":{"parameterUnit":"m.s-1","parameterCategory":1,"la1":30.6,"la2":29.2853,"lo1":-89.7004,"lo2":-87.6739,"dx":0.0162,"dy":0.0183,"nx":112,"ny":82,"refTime":"2022-11-16T18:00:00:Z","depth":0,"parameterNumber":2,"parameterNumberName":"U-component_of_WINDS"},"data":[0.0,0.0,0.0,0.0,0.0,0.0,0.0,0.0,0.0,0.0,0.0,0.0,0.0,0.0,0.0,0.0,0.0,0.0,0.0,0.0,0.0,0.0,0.0,0.0,0.0,0.0,0.0,0.0,0.0,0.0,0.0,0.0,0.0,0.0,0.0,0.0,0.0,0.0,0.0,0.0,0.0,0.0,0.0,0.0,0.0,0.0,0.0,0.0,0.0,0.0,0.0,0.0,0.0,0.0,0.0,0.0,0.0,0.0,0.0,0.0,0.0,0.0,0.0,0.0,0.0,0.0,0.0,0.0,0.0,0.0,0.0,0.0,0.0,0.0,0.0,0.0,0.0,0.0,0.0,0.0,0.0,0.0,0.0,0.0,0.0,0.0,0.0,0.0,0.0,0.0,6.1994,6.6496,6.8043,6.9122,6.9972,6.8226,6.6025,6.355,0.0,0.0,0.0,0.0,0.0,0.0,0.0,0.0,0.0,0.0,0.0,0.0,0.0,0.0,0.0,0.0,0.0,0.0,0.0,0.0,0.0,0.0,0.0,0.0,0.0,0.0,0.0,0.0,0.0,0.0,0.0,0.0,0.0,0.0,0.0,0.0,0.0,0.0,0.0,0.0,0.0,0.0,0.0,0.0,0.0,0.0,0.0,0.0,0.0,0.0,0.0,0.0,0.0,0.0,0.0,0.0,0.0,0.0,0.0,0.0,0.0,0.0,0.0,0.0,0.0,0.0,0.0,0.0,0.0,0.0,0.0,0.0,0.0,0.0,0.0,0.0,0.0,0.0,0.0,0.0,0.0,0.0,0.0,0.0,0.0,0.0,0.0,0.0,0.0,0.0,0.0,0.0,0.0,0.0,0.0,0.0,0.0,0.0,0.0,0.0,0.0,0.0,0.0,0.0,6.5197,7.0327,7.1208,7.1347,7.1088,6.9386,6.691,6.3607,0.0,0.0,0.0,0.0,0.0,0.0,0.0,0.0,0.0,0.0,0.0,0.0,0.0,0.0,0.0,0.0,0.0,0.0,0.0,0.0,0.0,0.0,0.0,0.0,0.0,0.0,0.0,0.0,0.0,0.0,0.0,0.0,0.0,0.0,0.0,0.0,0.0,0.0,0.0,0.0,0.0,0.0,0.0,0.0,0.0,0.0,0.0,0.0,0.0,0.0,0.0,0.0,0.0,0.0,0.0,0.0,0.0,0.0,0.0,0.0,0.0,0.0,0.0,0.0,0.0,0.0,0.0,0.0,0.0,0.0,0.0,0.0,0.0,0.0,0.0,0.0,0.0,0.0,0.0,0.0,0.0,0.0,0.0,0.0,0.0,0.0,0.0,0.0,0.0,0.0,0.0,0.0,0.0,0.0,0.0,0.0,0.0,0.0,0.0,0.0,0.0,0.0,0.0,6.5351,6.98,7.2849,7.2936,7.2913,7.3135,7.1107,6.8223,6.4458,6.3016,0.0,0.0,0.0,0.0,0.0,0.0,0.0,0.0,0.0,0.0,0.0,0.0,0.0,0.0,0.0,0.0,0.0,0.0,0.0,0.0,0.0,0.0,0.0,0.0,0.0,0.0,0.0,0.0,0.0,0.0,0.0,0.0,0.0,0.0,0.0,0.0,0.0,0.0,0.0,0.0,0.0,0.0,0.0,0.0,0.0,0.0,0.0,0.0,0.0,0.0,0.0,0.0,0.0,0.0,0.0,0.0,0.0,0.0,0.0,0.0,0.0,0.0,0.0,0.0,0.0,0.0,0.0,0.0,0.0,0.0,0.0,0.0,0.0,0.0,0.0,0.0,0.0,0.0,0.0,0.0,0.0,0.0,0.0,0.0,0.0,0.0,0.0,0.0,0.0,0.0,0.0,0.0,0.0,0.0,0.0,0.0,0.0,0.0,0.0,0.0,0.0,0.0,6.9422,7.3223,7.4886,7.4792,7.478,7.528,7.2964,6.969,6.5435,6.4237,0.0,0.0,0.0,0.0,0.0,0.0,0.0,0.0,0.0,0.0,0.0,0.0,0.0,0.0,0.0,0.0,0.0,0.0,0.0,0.0,0.0,0.0,0.0,0.0,0.0,0.0,0.0,0.0,0.0,0.0,0.0,0.0,0.0,0.0,0.0,0.0,0.0,0.0,0.0,0.0,0.0,0.0,0.0,0.0,0.0,0.0,0.0,0.0,0.0,0.0,0.0,0.0,0.0,0.0,0.0,0.0,0.0,0.0,0.0,0.0,0.0,0.0,0.0,0.0,0.0,0.0,0.0,0.0,0.0,0.0,0.0,0.0,0.0,0.0,0.0,0.0,0.0,0.0,0.0,0.0,0.0,0.0,0.0,0.0,0.0,0.0,0.0,0.0,0.0,0.0,0.0,0.0,0.0,0.0,0.0,0.0,0.0,0.0,0.0,0.0,0.0,0.0,6.9682,7.3395,7.675,7.7484,7.7582,7.7133,7.4782,7.1216,6.6324,6.4672,0.0,0.0,0.0,0.0,0.0,0.0,0.0,0.0,0.0,0.0,0.0,0.0,0.0,0.0,0.0,0.0,0.0,0.0,0.0,0.0,0.0,0.0,0.0,0.0,0.0,0.0,0.0,0.0,0.0,0.0,0.0,0.0,0.0,0.0,0.0,0.0,0.0,0.0,0.0,0.0,0.0,0.0,0.0,0.0,0.0,0.0,0.0,0.0,0.0,0.0,0.0,0.0,0.0,0.0,0.0,0.0,0.0,0.0,0.0,0.0,0.0,0.0,0.0,0.0,0.0,0.0,0.0,0.0,0.0,0.0,0.0,0.0,0.0,0.0,0.0,0.0,0.0,0.0,0.0,0.0,0.0,0.0,0.0,0.0,0.0,0.0,0.0,0.0,0.0,0.0,0.0,0.0,0.0,0.0,0.0,0.0,0.0,0.0,0.0,0.0,0.0,0.0,7.0796,7.5014,0.0,7.8296,7.8346,7.8133,7.6252,7.2578,6.6594,0.0,0.0,0.0,0.0,0.0,0.0,0.0,0.0,0.0,0.0,0.0,0.0,0.0,0.0,0.0,0.0,0.0,0.0,0.0,0.0,0.0,0.0,0.0,0.0,0.0,0.0,0.0,0.0,0.0,0.0,0.0,0.0,0.0,0.0,0.0,0.0,0.0,0.0,0.0,0.0,0.0,0.0,0.0,0.0,0.0,0.0,0.0,0.0,0.0,0.0,0.0,0.0,0.0,0.0,0.0,0.0,0.0,0.0,0.0,0.0,0.0,0.0,0.0,0.0,0.0,0.0,0.0,0.0,0.0,0.0,0.0,0.0,0.0,0.0,0.0,0.0,0.0,0.0,0.0,0.0,0.0,0.0,0.0,0.0,0.0,0.0,0.0,0.0,0.0,0.0,0.0,0.0,0.0,0.0,0.0,0.0,0.0,0.0,0.0,0.0,0.0,0.0,6.7036,7.2686,7.7206,0.0,7.9441,7.9653,7.9396,7.7855,7.4206,6.784,0.0,0.0,0.0,0.0,0.0,0.0,0.0,0.0,0.0,0.0,0.0,0.0,0.0,0.0,0.0,0.0,0.0,0.0,0.0,0.0,0.0,0.0,0.0,0.0,0.0,0.0,0.0,0.0,0.0,0.0,0.0,0.0,0.0,0.0,0.0,0.0,0.0,0.0,0.0,0.0,0.0,0.0,0.0,0.0,0.0,0.0,0.0,0.0,0.0,0.0,0.0,0.0,0.0,0.0,0.0,0.0,0.0,0.0,0.0,0.0,0.0,0.0,0.0,0.0,0.0,0.0,0.0,0.0,0.0,0.0,0.0,0.0,0.0,0.0,0.0,0.0,0.0,0.0,0.0,0.0,0.0,0.0,0.0,0.0,0.0,0.0,0.0,0.0,0.0,0.0,0.0,0.0,0.0,0.0,0.0,0.0,0.0,0.0,0.0,0.0,0.0,0.0,6.8818,7.5256,7.9779,7.9816,8.124,8.1856,8.1077,7.9543,7.6121,0.0,0.0,0.0,0.0,0.0,0.0,0.0,0.0,0.0,0.0,0.0,0.0,0.0,0.0,0.0,0.0,0.0,0.0,0.0,0.0,0.0,0.0,0.0,0.0,0.0,0.0,0.0,0.0,0.0,0.0,0.0,0.0,0.0,0.0,0.0,0.0,0.0,0.0,0.0,0.0,0.0,0.0,0.0,0.0,0.0,0.0,0.0,0.0,0.0,0.0,0.0,0.0,0.0,0.0,0.0,0.0,0.0,0.0,0.0,0.0,0.0,0.0,0.0,0.0,0.0,0.0,0.0,0.0,0.0,0.0,0.0,0.0,0.0,0.0,0.0,0.0,0.0,0.0,0.0,0.0,0.0,0.0,0.0,0.0,0.0,0.0,0.0,0.0,0.0,0.0,0.0,0.0,0.0,0.0,0.0,0.0,0.0,0.0,0.0,0.0,0.0,0.0,0.0,6.9486,7.4581,7.8691,8.0461,8.157,8.1856,8.1077,8.0563,7.7611,7.1294,0.0,0.0,0.0,0.0,0.0,0.0,0.0,0.0,0.0,0.0,0.0,0.0,0.0,0.0,0.0,0.0,0.0,0.0,0.0,0.0,0.0,0.0,0.0,0.0,0.0,0.0,0.0,0.0,0.0,0.0,0.0,0.0,0.0,0.0,0.0,0.0,0.0,0.0,0.0,0.0,0.0,0.0,0.0,0.0,0.0,0.0,0.0,0.0,0.0,0.0,0.0,0.0,0.0,0.0,0.0,0.0,0.0,0.0,0.0,0.0,0.0,0.0,0.0,0.0,0.0,0.0,0.0,0.0,0.0,0.0,0.0,0.0,0.0,0.0,0.0,0.0,0.0,0.0,0.0,0.0,0.0,0.0,0.0,0.0,0.0,0.0,0.0,0.0,0.0,0.0,0.0,0.0,0.0,0.0,0.0,0.0,0.0,0.0,0.0,0.0,0.0,0.0,7.1328,7.6599,8.0665,8.1848,8.27,8.2957,8.248,8.1856,7.9242,7.4015,0.0,0.0,0.0,0.0,0.0,0.0,0.0,0.0,0.0,0.0,0.0,0.0,0.0,0.0,0.0,0.0,0.0,0.0,0.0,0.0,0.0,0.0,0.0,0.0,0.0,0.0,0.0,0.0,0.0,0.0,0.0,0.0,0.0,0.0,0.0,0.0,0.0,0.0,0.0,0.0,0.0,0.0,0.0,0.0,0.0,0.0,0.0,0.0,0.0,0.0,0.0,0.0,0.0,0.0,0.0,0.0,0.0,0.0,0.0,0.0,0.0,0.0,0.0,0.0,0.0,0.0,0.0,0.0,0.0,0.0,0.0,0.0,0.0,0.0,0.0,0.0,0.0,0.0,0.0,0.0,0.0,0.0,0.0,0.0,0.0,0.0,0.0,0.0,0.0,0.0,0.0,0.0,0.0,0.0,0.0,0.0,0.0,0.0,0.0,0.0,0.0,0.0,7.3678,7.9984,8.4168,8.3564,8.4233,8.4682,8.4609,8.3251,8.1012,7.7729,0.0,0.0,0.0,0.0,0.0,0.0,0.0,0.0,0.0,0.0,0.0,0.0,0.0,0.0,0.0,0.0,0.0,0.0,0.0,0.0,0.0,0.0,0.0,0.0,0.0,0.0,0.0,0.0,0.0,0.0,0.0,0.0,0.0,0.0,0.0,0.0,0.0,0.0,0.0,0.0,0.0,0.0,0.0,0.0,0.0,0.0,0.0,0.0,0.0,0.0,0.0,0.0,0.0,0.0,0.0,0.0,0.0,0.0,0.0,0.0,6.171,5.8769,0.0,0.0,0.0,0.0,0.0,0.0,0.0,0.0,0.0,0.0,0.0,0.0,0.0,0.0,0.0,0.0,0.0,0.0,0.0,0.0,0.0,0.0,0.0,0.0,0.0,0.0,0.0,0.0,0.0,0.0,0.0,0.0,0.0,0.0,0.0,0.0,0.0,0.0,0.0,0.0,7.4397,7.936,8.3141,8.4242,8.5049,8.527,8.4646,8.4278,8.27,7.9478,7.7076,0.0,0.0,0.0,0.0,0.0,0.0,0.0,0.0,0.0,0.0,0.0,0.0,0.0,0.0,0.0,0.0,0.0,0.0,0.0,0.0,0.0,0.0,0.0,0.0,0.0,0.0,0.0,0.0,0.0,0.0,0.0,0.0,0.0,0.0,0.0,0.0,0.0,0.0,0.0,0.0,0.0,0.0,0.0,0.0,0.0,0.0,0.0,0.0,0.0,0.0,0.0,0.0,0.0,0.0,0.0,0.0,0.0,0.0,0.0,6.4049,6.1767,0.0,0.0,0.0,0.0,0.0,0.0,0.0,0.0,0.0,0.0,0.0,0.0,0.0,0.0,0.0,0.0,0.0,0.0,0.0,0.0,0.0,0.0,0.0,0.0,0.0,0.0,0.0,0.0,0.0,0.0,0.0,0.0,0.0,0.0,0.0,0.0,0.0,0.0,0.0,0.0,7.5894,8.1004,8.4829,8.5665,8.6151,8.6371,8.6334,8.5637,8.4278,8.2231,7.947,0.0,0.0,0.0,0.0,0.0,0.0,0.0,0.0,0.0,0.0,0.0,0.0,0.0,0.0,0.0,0.0,0.0,0.0,0.0,0.0,0.0,0.0,0.0,0.0,0.0,0.0,0.0,0.0,0.0,0.0,0.0,0.0,0.0,0.0,0.0,0.0,0.0,0.0,0.0,0.0,0.0,0.0,0.0,0.0,0.0,0.0,0.0,0.0,0.0,0.0,0.0,0.0,0.0,6.6445,6.7047,6.73,6.7789,6.7863,6.7571,6.7252,6.575,6.3554,6.4247,0.0,0.0,0.0,0.0,0.0,0.0,0.0,0.0,0.0,0.0,0.0,0.0,0.0,0.0,0.0,0.0,0.0,0.0,0.0,0.0,0.0,0.0,6.5692,6.8085,6.7912,6.7483,6.8399,0.0,0.0,0.0,0.0,0.0,0.0,0.0,0.0,0.0,0.0,0.0,7.7204,8.2806,8.6839,8.6986,8.7243,8.7647,8.8169,8.6746,8.5535,8.4866,8.1415,7.8875,0.0,0.0,0.0,0.0,0.0,0.0,0.0,0.0,0.0,0.0,0.0,0.0,0.0,0.0,0.0,0.0,0.0,0.0,0.0,0.0,0.0,0.0,0.0,0.0,0.0,0.0,0.0,0.0,0.0,0.0,0.0,0.0,5.4535,5.7791,0.0,0.0,0.0,0.0,0.0,0.0,0.0,0.0,0.0,0.0,0.0,0.0,0.0,6.4201,6.5023,6.6934,6.83,6.9119,7.093,7.2462,7.3684,7.3118,7.3559,7.4615,7.2263,0.0,6.5809,6.5307,0.0,0.0,0.0,0.0,0.0,0.0,0.0,0.0,0.0,0.0,0.0,0.0,0.0,0.0,0.0,0.0,0.0,0.0,0.0,0.0,0.0,0.0,7.4263,7.3964,7.3623,7.4028,7.6472,7.0376,6.4982,6.6866,6.6422,0.0,0.0,0.0,0.0,0.0,0.0,0.0,7.678,8.2205,8.6224,8.6913,8.8262,8.8849,8.8243,8.6746,8.5755,8.5645,8.383,8.1444,7.8552,7.9682,0.0,0.0,0.0,0.0,0.0,0.0,0.0,0.0,0.0,0.0,0.0,0.0,0.0,0.0,0.0,0.0,0.0,0.0,0.0,0.0,0.0,0.0,0.0,0.0,0.0,0.0,0.0,0.0,0.0,5.3355,5.6369,6.0272,5.967,5.8705,0.0,0.0,0.0,0.0,0.0,0.0,0.0,0.0,0.0,6.5292,6.6346,6.7436,6.8665,7.0563,7.1922,7.2683,7.3987,7.4695,7.4914,7.5039,7.5212,7.5362,7.4155,7.2435,7.0421,6.9007,6.7627,6.6407,0.0,0.0,0.0,0.0,6.3851,6.4596,6.4596,6.5834,6.7468,6.7842,0.0,0.0,0.0,0.0,0.0,0.0,0.0,7.03,7.1493,7.4172,7.6737,7.7486,7.7549,7.7825,7.9014,7.5128,7.1615,7.2277,7.115,6.9909,6.9498,0.0,0.0,0.0,0.0,7.9767,7.9226,8.3828,8.7288,8.7655,8.8702,8.9253,8.8895,8.7802,8.6746,8.5865,8.4719,8.3426,8.2039,8.1782,7.969,0.0,0.0,0.0,0.0,0.0,0.0,0.0,0.0,0.0,0.0,0.0,0.0,0.0,0.0,0.0,0.0,0.0,0.0,0.0,0.0,0.0,0.0,0.0,0.0,0.0,0.0,0.0,0.0,5.628,5.8182,6.2562,6.2004,6.1127,0.0,0.0,0.0,0.0,0.0,0.0,6.6456,6.5887,6.6428,6.8385,6.9518,7.067,7.182,7.3187,7.428,7.5015,7.561,7.5782,7.5599,7.6195,7.6331,7.6063,7.5891,7.5384,7.4496,7.2471,7.0536,6.8914,6.97,6.9036,6.7629,6.75,6.7659,6.7944,6.8154,6.9461,7.1045,7.1258,7.0922,7.0335,7.0057,0.0,0.0,0.0,0.0,7.3088,7.5152,7.6947,7.8621,8.0054,8.0726,8.0971,8.0739,7.9328,7.7903,7.7177,7.5621,7.4178,7.3276,0.0,0.0,0.0,0.0,8.2458,8.1037,8.4999,8.7802,8.7619,8.8491,8.9069,8.9069,8.8169,8.715,8.6151,8.5159,8.4609,8.4609,8.3251,8.1562,7.9543,0.0,0.0,0.0,0.0,0.0,0.0,0.0,0.0,0.0,0.0,0.0,0.0,0.0,0.0,0.0,0.0,0.0,0.0,0.0,0.0,0.0,0.0,0.0,0.0,0.0,0.0,0.0,0.0,0.0,6.4605,6.6311,0.0,0.0,0.0,0.0,6.3371,6.5341,6.7327,6.8833,6.9989,7.1275,7.2646,7.35,7.3944,7.4047,7.4138,7.4559,7.5276,7.531,7.6074,7.7464,7.7521,7.8154,7.9247,7.8522,7.7764,7.6867,7.46,7.3172,7.2347,7.1266,7.0365,6.9606,6.9138,6.9722,7.0788,7.1509,7.2996,7.4748,7.5541,7.5522,7.506,7.4032,7.3107,0.0,0.0,7.3937,7.5437,7.5562,7.8756,8.195,8.2039,8.3251,8.4121,8.3293,8.2236,8.1074,7.9863,7.8645,7.8159,7.915,0.0,7.9976,7.9112,8.0588,8.1481,8.065,8.4349,8.6766,8.6012,8.7325,8.828,8.828,8.682,8.6224,8.6913,8.549,8.4609,8.4609,8.3793,8.2912,8.2048,7.9698,0.0,0.0,0.0,0.0,0.0,0.0,0.0,0.0,0.0,0.0,0.0,0.0,0.0,0.0,0.0,0.0,0.0,0.0,0.0,0.0,0.0,0.0,0.0,0.0,0.0,0.0,0.0,0.0,6.6051,6.6951,0.0,6.6331,6.7763,6.8306,6.7291,6.9623,7.1715,7.3195,7.2791,7.3232,7.4691,7.4985,7.5121,7.5144,7.6105,7.6478,7.6286,7.6749,7.7258,7.7791,7.8161,7.8559,7.8976,7.9074,7.8936,7.8626,7.781,7.5855,7.336,7.2946,7.2607,7.2356,7.2206,7.2695,7.3503,7.378,7.4327,7.4943,7.5247,7.5265,7.5154,7.5304,7.5507,7.5858,7.6873,7.7627,7.8559,8.0135,8.1327,8.2213,8.2784,8.3311,8.3466,8.2645,8.2599,8.2414,8.1425,8.0771,8.054,8.0949,8.2183,8.2614,8.108,8.2848,8.4228,8.3935,8.6155,8.7655,8.7371,8.8307,8.8564,8.7537,8.7362,8.6811,8.5555,8.5416,8.538,8.538,8.4609,8.4278,8.4507,8.3663,8.0768,0.0,0.0,0.0,0.0,0.0,0.0,0.0,0.0,0.0,0.0,0.0,0.0,0.0,0.0,0.0,0.0,0.0,0.0,0.0,0.0,0.0,0.0,0.0,0.0,0.0,6.11,6.4191,6.6472,6.791,6.8573,6.835,7.0038,7.101,7.0672,7.2821,7.4531,7.5309,7.4823,7.4926,7.5783,7.5982,7.6252,7.6534,7.7499,7.7891,7.7646,7.8139,7.8362,7.8387,7.8465,7.8361,7.8112,7.8958,7.9012,7.8534,7.9302,7.7926,7.5372,7.5648,7.5579,7.5372,7.5637,7.5867,7.6132,7.6373,7.6453,7.652,7.6782,7.6845,7.7018,7.784,7.8244,7.8647,7.9696,7.9787,8.0054,8.192,8.2193,8.2215,8.3073,8.3448,8.3315,8.2195,8.2527,8.2832,8.2099,8.2121,8.2217,8.2049,8.3126,8.3577,8.2469,8.3864,8.4917,8.4616,8.6119,8.7077,8.6821,8.7614,8.7867,8.706,8.6882,8.6498,8.5848,8.5416,8.5517,8.6187,8.4784,8.4101,8.4375,8.3751,8.1658,7.8058,0.0,0.0,0.0,0.0,0.0,0.0,0.0,0.0,0.0,0.0,0.0,0.0,0.0,0.0,0.0,0.0,0.0,0.0,0.0,0.0,0.0,0.0,0.0,5.9198,6.2233,6.5005,6.6164,6.9488,7.1372,7.0668,7.3014,7.422,7.3219,7.4725,7.5479,7.4968,7.6081,7.6488,7.5948,7.6693,7.7416,7.8106,7.8206,7.8621,7.9303,7.9303,7.9303,7.9269,7.8567,7.7753,7.6946,7.8412,7.8109,7.678,7.8919,7.9261,7.8523,7.9201,7.904,7.8488,7.9212,7.904,7.8522,7.9201,7.9477,7.9637,8.0406,8.0654,8.0815,8.1637,8.1308,8.0654,8.0654,8.0139,7.9728,8.0522,8.1328,8.2149,8.2979,8.383,8.397,8.234,8.233,8.2527,8.2067,8.2713,8.3233,8.2855,8.2788,8.2977,8.3527,8.3619,0.0,8.2478,8.4082,8.5015,8.4276,8.5129,8.6142,8.6986,8.5227,8.5256,8.8005,8.5647,8.4982,8.6895,8.4378,8.2626,8.1894,7.9895,8.0214,8.2952,0.0,0.0,0.0,0.0,0.0,0.0,0.0,0.0,0.0,0.0,0.0,0.0,0.0,0.0,0.0,0.0,0.0,0.0,0.0,0.0,0.0,6.2135,6.4454,6.3725,6.6168,6.8602,7.0189,7.2052,7.298,7.2437,7.4057,7.4764,7.3944,7.5279,7.6066,7.5913,7.5267,7.486,7.4709,7.588,7.6378,7.6092,7.8704,7.9853,7.9521,7.9521,7.9521,7.9501,7.9179,7.8871,7.8668,7.9432,7.9527,7.9155,7.9766,7.9874,7.9573,7.8957,7.8591,7.843,7.8637,7.8902,7.9097,7.836,7.8717,7.9534,7.9763,7.9842,7.9783,7.9461,7.9605,7.9842,7.9842,7.9288,7.9154,8.1069,8.0891,8.0678,8.2654,8.2841,8.2708,8.3309,8.3597,8.3702,8.3449,8.4126,8.4759,8.4722,8.4722,8.4978,8.5719,8.5857,8.6035,8.6342,8.6976,8.7735,8.8679,8.6752,8.6276,8.8538,8.6918,8.6207,8.7262,8.7156,8.6789,8.6151,8.6496,8.714,8.8102,8.4492,8.3133,0.0,0.0,0.0,0.0,0.0,0.0,0.0,0.0,0.0,0.0,0.0,0.0,0.0,0.0,0.0,0.0,0.0,0.0,0.0,0.0,0.0,0.0,6.4951,6.77,6.8528,6.998,7.1216,7.1922,7.3151,7.3745,7.3169,7.4449,7.5257,7.5078,7.6125,7.6907,7.7205,7.6755,7.6039,7.5111,7.7053,7.7517,7.6205,7.9187,8.0465,8.0054,8.0054,8.0054,8.0034,7.9628,7.9242,7.9035,7.9965,8.0138,7.984,8.0783,8.0912,8.0462,0.0,0.0,0.0,0.0,7.9143,7.9373,7.8648,7.8878,7.9488,7.9488,7.9936,8.0385,7.9948,7.9981,8.0126,8.0126,7.8977,7.8314,8.087,8.0605,8.0291,8.2871,8.2858,8.25,8.335,8.3178,8.2997,8.3469,8.4043,0.0,8.5266,8.4983,8.4817,8.5129,8.5228,8.5427,8.5892,8.6462,8.7307,8.8528,8.7229,8.6953,8.8597,8.7246,0.0,0.0,0.0,8.611,8.5537,8.6471,0.0,0.0,0.0,8.4368,8.5394,8.333,0.0,0.0,7.9311,7.7927,0.0,0.0,0.0,0.0,0.0,0.0,0.0,0.0,0.0,0.0,0.0,0.0,0.0,0.0,0.0,0.0,6.7391,7.0241,7.2846,7.3363,7.3144,7.2237,7.3421,7.4064,7.3409,7.4614,7.5675,7.6245,7.7073,7.7802,7.8451,7.9047,0.0,0.0,0.0,7.9504,7.7537,7.9802,8.0943,8.0943,8.0876,8.081,8.081,8.0054,7.9391,7.8828,8.0134,8.022,7.9605,8.1578,8.1865,8.1032,8.0161,7.9893,7.9907,7.9595,7.9647,7.9901,7.9751,0.0,0.0,8.0005,8.0936,8.2052,8.1948,8.1581,8.1195,8.1195,7.9364,7.7954,8.0526,8.0716,8.0859,8.3391,8.3488,8.3075,8.3247,8.2335,8.1843,8.3059,8.3468,8.404,8.5254,8.4576,8.3787,8.3513,8.3566,8.3598,8.3598,8.4555,8.5568,8.6407,8.7078,0.0,8.8142,8.7053,8.6517,8.7047,8.517,8.4467,8.5395,8.547,8.5401,8.5191,8.4608,8.5128,8.6821,8.6802,8.7731,8.9253,8.2912,8.1415,0.0,0.0,0.0,0.0,0.0,0.0,0.0,0.0,0.0,0.0,0.0,0.0,0.0,0.0,0.0,6.844,7.1202,7.3335,7.3898,7.4966,7.4986,7.3098,7.4184,7.5025,7.4879,7.5628,7.6159,7.6278,7.7537,7.8365,7.8484,7.8053,7.7636,7.7205,7.8332,7.8729,7.8285,8.1061,8.2453,8.2453,8.1856,0.0,8.1558,8.0829,8.0412,8.0299,8.0578,8.06,8.0463,8.0908,8.0855,8.053,8.0188,8.0402,8.078,7.9719,8.0669,8.2331,8.1306,8.1899,8.3143,8.3143,8.3316,8.3454,8.2868,8.2601,0.0,8.2528,8.1699,8.1101,8.2229,8.2425,8.2621,8.374,8.3902,8.4144,8.5351,8.4978,8.4631,8.5476,8.5702,8.5975,8.6821,8.63,8.5777,8.5691,8.631,8.6802,8.6802,8.7101,8.7885,8.9297,8.707,8.6896,9.0407,8.8445,8.7704,8.9329,8.6751,8.5824,8.7295,8.6846,8.7125,8.8229,8.8871,8.9084,8.8752,8.8819,8.9044,8.9363,8.8638,8.8271,0.0,0.0,0.0,0.0,0.0,0.0,0.0,0.0,0.0,0.0,0.0,6.4332,6.4332,0.0,6.8185,7.0063,7.1599,7.319,7.5012,7.5575,7.5409,7.4349,7.5144,7.5807,7.5807,7.6457,7.7007,7.7371,7.8431,7.9226,7.9571,7.9604,7.9093,7.8,7.9756,7.9988,7.8517,8.1061,8.2154,8.179,8.144,8.1241,8.1241,8.0876,8.0909,8.1241,8.1241,8.1473,8.1771,8.1393,8.1193,8.1034,8.0595,8.0492,8.0559,7.992,8.0547,8.1554,8.0915,8.1282,8.2076,8.2369,8.2982,8.3581,8.3472,8.3296,8.31,8.31,8.2105,8.1246,8.2349,8.2905,8.3549,8.4957,8.559,8.6147,8.7231,8.7156,8.7122,8.7846,8.8019,8.826,8.8971,8.8812,8.8295,8.757,8.785,8.8148,8.8148,8.7851,8.8089,8.9317,8.7817,8.7618,8.9808,8.8016,8.7013,8.7662,8.6245,8.5949,8.7185,8.7358,8.8336,9.0371,9.0888,9.1352,9.1799,9.183,9.1831,9.1868,9.2281,9.1354,0.0,0.0,0.0,0.0,0.0,0.0,0.0,6.2422,6.399,6.4288,6.6187,6.7633,6.717,6.8097,6.9554,7.162,7.1951,7.2991,7.5958,7.5999,7.5733,7.5785,7.6231,7.651,7.651,7.7172,7.7868,7.8464,7.9179,7.9921,8.0678,8.1274,8.0829,7.9193,8.1459,8.1558,7.916,8.1061,8.1724,8.1141,8.1141,8.1141,8.1141,8.1141,8.1473,8.2022,8.2022,8.2353,8.2883,8.2419,8.2221,8.2188,8.1724,8.1376,8.1026,8.0601,8.0599,8.0803,8.0803,8.088,8.1046,8.1476,8.2546,8.376,8.4215,8.4179,8.399,8.4139,8.3041,8.2131,8.3314,8.4274,8.5275,8.6712,8.7629,8.8272,8.8746,8.885,8.9062,8.9786,8.9916,9.0157,9.0903,9.1041,9.0571,8.9226,8.9019,8.9019,8.9019,8.8467,8.8329,8.895,8.9019,8.9019,8.9019,8.8019,8.7058,8.623,8.6032,8.6266,8.6954,8.7567,8.8881,9.1071,9.132,9.2167,9.3723,9.3914,9.4112,9.4309,9.4309,9.2794,5.5237,5.4508,5.5402,5.8204,5.9883,6.1384,0.0,6.7027,6.9578,6.8352,7.0361,7.2548,7.3103,7.3335,7.3952,7.5463,7.5682,7.5951,7.6653,7.6978,7.7277,7.7572,7.7396,7.7272,7.7272,7.7921,7.8431,7.8484,7.9179,7.9921,8.0678,8.0777,8.1009,8.1426,8.1757,8.1757,8.1426,8.232,8.2751,8.2651,8.2651,8.2651,8.2651,8.2651,8.2684,8.2784,8.2784,8.2817,8.295,8.3513,8.3745,8.3811,8.4374,8.4578,8.4314,8.2336,8.2315,8.3287,8.3287,8.3638,8.4125,8.4178,8.4767,8.5445,8.5511,8.5912,8.6508,8.7051,8.7498,8.7868,8.8025,8.904,8.9756,8.893,8.9211,8.9669,8.9737,8.975,8.9946,9.0569,9.0674,9.095,9.1709,9.186,9.1571,9.0709,9.0558,9.0558,9.0558,9.0489,9.0454,9.0523,9.0558,9.0558,9.0558,9.1054,9.0761,8.929,8.8599,8.8266,8.8369,8.7943,8.8122,8.8921,8.9888,9.0816,9.1745,9.2569,9.3422,9.4309,9.4309,9.3712,5.7995,5.8336,5.9572,6.208,6.41,6.5989,6.7789,7.0028,7.1794,7.1868,7.3347,7.4659,7.4818,7.4494,7.4528,7.5542,7.5343,7.5547,7.6945,7.7284,7.7609,7.8173,7.788,7.7588,7.7417,7.8067,7.8318,7.7901,7.8947,7.9709,8.0054,8.0863,8.1459,8.1804,8.2235,8.2453,8.2453,8.2751,8.2883,8.2883,8.2883,8.2883,8.2883,8.2883,8.3148,8.3579,8.3995,8.4407,8.4852,8.515,8.5548,8.5946,8.6277,8.6362,8.6177,8.4374,8.4067,8.4513,8.4513,8.4682,8.5016,8.5753,8.622,8.6612,8.7384,8.7819,8.8131,8.838,8.8686,8.8834,8.8467,8.914,8.9737,8.9226,8.9648,9.0238,9.0578,9.0943,9.146,9.2118,9.2583,9.3089,9.3861,9.3999,9.3847,9.3537,9.2709,9.2157,9.2157,9.1744,9.1502,9.1502,9.1502,9.1502,9.1502,9.1826,9.1537,9.042,8.964,8.9226,8.9226,8.8587,8.8807,9.0085,9.0539,9.1465,9.2793,9.3183,9.36,9.403,9.4574,9.4624,5.9982,6.1229,6.2764,6.5116,6.707,6.8871,7.0759,7.1911,7.2894,7.3969,7.4945,7.5573,7.5581,7.5144,7.5104,7.6142,7.6035,7.6419,7.8111,7.8305,7.8385,7.8717,7.8191,7.7553,7.688,7.7781,7.8332,7.8166,7.9115,7.9898,8.0296,8.1268,8.1889,8.2088,8.2618,8.3082,8.3513,8.3513,8.3711,8.4123,8.4123,8.401,8.3825,8.3825,8.4208,8.4937,8.5467,8.6012,8.6524,8.6708,8.7105,8.7602,8.7801,8.79,8.7768,8.6693,8.6063,8.5699,8.5699,8.5699,8.5871,8.6792,8.7189,8.7576,8.8732,8.9264,8.9461,8.9634,8.9826,8.9841,8.9186,8.9703,9.0284,8.9959,9.0404,9.1103,9.1706,9.2211,9.2807,9.3706,9.4262,9.4758,9.531,9.5413,9.5413,9.5413,9.4447,9.3744,9.3744,9.3261,9.293,9.293,9.293,9.2861,9.2654,9.2619,9.2295,9.1502,9.095,9.064,9.064,8.9916,9.0234,9.1681,9.1531,9.2259,9.4018,9.4018,9.4051,9.4114,9.5002,9.5308,6.049,6.1626,6.2896,6.5745,6.7059,6.8384,7.131,7.2548,7.3289,7.4064,7.4805,7.5522,7.6159,7.6245,7.68,7.849,7.9435,8.0114,8.072,8.0563,8.0138,7.9481,7.8485,7.7246,7.5547,7.7081,7.8723,7.9942,8.0008,8.0594,8.2039,8.191,8.2121,8.285,8.2883,8.3579,8.5022,8.5022,8.5732,8.7186,8.7186,8.6789,8.6093,8.6093,8.649,8.7205,8.7219,8.7253,8.7319,8.7985,8.8235,8.8334,8.9063,8.9328,8.9328,8.9295,8.8415,8.7238,8.7238,8.7238,8.7253,8.7267,8.7717,8.8397,8.9141,8.987,9.0572,9.1162,9.1892,9.2309,9.1528,9.2326,9.3062,9.1804,9.2038,9.271,9.3288,9.3436,9.3816,9.5095,9.5365,9.5379,9.5413,9.5413,9.5413,9.5413,9.5379,9.5344,9.5344,9.531,9.531,9.531,9.531,9.4999,9.4275,9.424,9.3896,9.3089,9.302,9.2985,9.2985,9.2295,9.2253,9.3039,9.2349,9.2834,9.4574,9.4574,9.4671,9.4865,9.5626,9.5602,6.0744,6.303,6.5525,6.7479,6.9268,7.1057,7.3024,7.3791,7.4265,7.4818,7.4593,7.4418,7.4844,7.4747,7.5126,7.653,7.6971,7.7766,7.966,7.8639,7.8051,7.8954,7.7922,7.7374,7.8093,7.8306,7.8385,7.8306,8.0104,8.1398,8.191,8.231,8.3082,8.4341,8.4043,8.4755,8.6542,8.6235,8.6501,8.7319,8.7319,8.7186,8.694,8.7403,8.772,8.7985,8.8482,8.8979,8.9427,8.9659,9.0056,9.0502,9.0767,9.0867,9.0867,9.0867,9.0551,9.0021,8.9045,8.868,8.878,8.9277,8.956,8.9891,9.0635,9.1032,9.1278,9.1461,9.1738,9.1871,9.1605,9.1858,9.212,9.1687,9.1782,9.1981,9.2196,9.2577,9.3133,9.3971,9.4446,9.4891,9.531,9.5413,9.5413,9.5413,9.5413,9.5413,9.5413,9.5413,9.5413,9.5413,9.5413,9.531,9.5068,9.5034,9.493,9.4654,9.4172,9.3896,9.3896,9.3171,9.2847,9.3089,9.2847,9.3,9.3628,9.4149,9.4438,9.4525,9.5402,9.5704,6.2632,6.5315,6.7965,6.9169,7.0958,7.2647,7.3587,7.4219,7.4731,7.5208,7.4855,7.4588,7.5016,7.4518,7.4683,7.6683,7.6945,7.7697,7.9877,7.9021,7.8391,7.8869,7.809,7.7826,7.8742,7.9466,7.9434,7.8438,8.0084,8.1434,8.209,8.238,8.3513,8.572,8.5321,8.6075,8.8212,8.7807,8.8013,8.8828,8.8683,8.8717,8.8828,8.9012,8.893,8.8732,8.9758,9.0156,9.0156,9.0686,9.1165,9.1611,9.1611,9.1611,9.1611,9.1611,9.1611,9.1446,9.0502,9.0204,9.0271,9.0719,9.09,9.1032,9.1777,9.1976,9.1976,9.1976,9.1976,9.1943,9.1677,9.1611,9.1611,9.1611,9.1611,9.1689,9.1922,9.2491,9.3079,9.3438,9.4049,9.4509,9.4699,9.4736,9.4806,9.5003,9.5045,9.5129,9.5386,9.562,9.5689,9.5448,9.5413,9.5413,9.5413,9.5413,9.5413,9.5413,9.4965,9.4689,9.4689,9.3987,9.3691,9.3966,9.3691,9.358,9.3631,9.4109,9.4075,9.3653,9.4522,9.4666,6.5779,6.8175,7.0054,7.0825,7.2096,7.3156,7.321,7.3941,7.4751,7.5109,7.5407,7.5751,7.6274,7.5234,7.536,7.8608,7.9081,7.963,8.1223,8.1464,8.0856,7.9195,7.9015,7.8684,7.7802,8.056,8.1849,8.0402,8.0281,8.1069,8.2797,8.235,8.3625,8.7061,8.6628,8.75,8.9963,8.9679,9.0237,9.1578,9.1208,9.1226,9.1578,9.09,9.0189,8.9593,9.0966,9.0801,8.9626,9.0999,9.1611,9.1611,9.1611,9.1611,9.1611,9.1611,9.1611,9.1611,9.1611,9.1611,9.1611,9.1611,9.1611,9.1744,9.244,9.2638,9.2638,9.2638,9.2638,9.2473,9.1777,9.1611,9.1611,9.1611,9.1611,9.1782,9.2413,9.3104,9.3555,9.3461,9.4034,9.4319,9.3624,9.3489,9.3694,9.4328,9.4448,9.4691,9.533,9.6,9.6172,9.5482,9.5413,9.5413,9.5413,9.5413,9.5413,9.5413,9.5413,9.5413,9.5413,9.4806,9.4787,9.5485,9.4822,9.4485,9.4601,9.449,9.378,9.2542,9.3218,9.2793,6.6827,6.9077,7.1189,7.2266,7.2961,7.3625,7.4532,7.4943,7.4836,7.3852,7.382,7.3595,7.2337,7.1754,7.2637,7.6057,7.6106,7.6579,7.9089,7.9367,7.9302,7.9284,8.0095,8.1002,8.2051,8.343,8.384,8.2923,8.3859,8.4656,8.5142,8.5297,8.6286,8.8312,8.8213,8.9099,9.1139,9.1079,9.1247,9.1611,9.149,9.149,9.1578,9.1412,9.1214,9.1081,9.1446,9.1379,9.1066,9.1446,9.1611,9.1611,9.1611,9.1611,9.1611,9.1611,9.1611,9.1611,9.1611,9.1611,9.1611,9.1611,9.1611,9.1644,9.181,9.1876,9.1876,9.1876,9.1876,9.1843,9.1644,9.1611,9.1611,9.1611,9.1611,9.1658,9.1829,9.1993,9.2261,9.275,9.3346,9.3726,9.3523,9.3489,9.3751,9.4425,9.5031,9.5376,9.5413,9.5551,9.562,9.5413,9.5413,9.5413,9.5413,9.5413,9.5413,9.5413,9.5413,9.5413,9.5413,9.5226,9.5246,9.5418,9.5246,9.4937,9.4431,9.5028,9.485,9.4045,9.4214,9.3808,6.8951,7.0714,7.2307,7.3233,7.3862,7.4206,7.3936,7.445,7.443,7.2391,7.2398,7.2563,7.1771,7.1006,7.1945,7.6384,7.6069,7.6233,7.8932,7.9116,7.9169,7.966,8.0602,8.2017,8.4076,8.5242,8.5678,8.5276,8.503,8.5183,8.5946,8.5973,8.7175,8.9903,8.9685,9.0222,9.1578,9.1751,9.1751,9.1611,9.1767,9.1751,9.1611,9.1611,9.1247,9.0668,9.1313,9.1247,9.0668,9.1346,9.1611,9.1611,9.1611,9.1611,9.1611,9.1611,9.1611,9.1611,9.1611,9.1611,9.1611,9.1611,9.1611,9.1611,9.1611,9.1611,9.1611,9.1611,9.1611,9.1611,9.1611,9.1611,9.1677,9.2009,9.1843,9.1677,9.2009,9.2075,9.2185,9.2558,9.266,9.2668,9.2668,9.2668,9.3027,9.4039,9.4555,9.4883,9.5018,9.5595,9.5696,9.503,9.5212,9.5268,9.4989,9.4961,9.4863,9.4594,9.482,9.4961,9.4961,9.4721,9.4716,9.5044,9.4479,9.401,9.365,9.4098,9.3953,9.3287,9.3287,9.2869,7.129,7.2465,7.3306,7.3861,7.4672,7.4877,7.3032,7.3633,7.382,7.1305,7.1337,7.2059,7.285,7.1808,7.2572,7.7813,7.7469,7.7171,7.9129,7.9673,7.9931,8.0068,8.0994,8.2598,8.5016,8.6303,8.7127,8.7429,8.5475,8.4885,8.6367,8.6077,8.7619,9.1392,9.096,9.0951,9.1578,9.1906,9.1906,9.1578,9.1906,9.1891,9.1611,9.1611,9.09,8.9758,9.1048,9.0867,8.9791,9.1066,9.1611,9.1611,9.1611,9.1611,9.1611,9.1611,9.1611,9.1611,9.1611,9.1611,9.1611,9.1611,9.1611,9.1611,9.1611,9.1611,9.1611,9.1611,9.1611,9.1611,9.1611,9.1611,9.1744,9.2406,9.2075,9.1777,9.2406,9.2504,9.2487,9.2539,9.2007,9.1525,9.1578,9.1611,9.2079,9.3503,9.3714,9.3881,9.4429,9.5621,9.5872,9.4425,9.4806,9.4919,9.4331,9.436,9.4144,9.3533,9.4072,9.436,9.4288,9.3782,9.3793,9.4455,9.329,9.2699,9.2698,9.2622,9.226,9.1611,9.1611,9.1264,7.2013,7.2832,7.3603,7.4289,7.5072,7.5662,7.5849,7.5037,7.3906,7.2587,7.1507,7.1107,7.2244,7.2559,7.369,7.6829,7.7476,7.7176,7.591,7.9012,8.1086,8.0208,8.2307,8.469,8.683,8.6766,8.7352,8.9187,8.8943,8.8679,8.873,8.9532,9.0459,9.155,9.1475,9.1479,9.1611,9.1674,9.1674,9.1611,9.1674,9.1674,9.1611,9.1611,9.1446,9.1247,9.1479,9.1446,9.1247,9.1479,9.1611,9.1611,9.1611,9.1611,9.1611,9.1611,9.1611,9.1611,9.1611,9.1611,9.1611,9.1611,9.1611,9.1611,9.1611,9.1611,9.1611,9.1611,9.1611,9.1611,9.1611,9.1611,9.1644,9.1744,9.1677,9.1644,9.1744,9.1515,9.139,9.1724,9.1415,9.1208,9.1559,9.1611,9.2106,9.3543,9.3791,9.3806,9.3917,9.4538,9.4618,9.3752,9.3753,9.3782,9.3665,9.4116,9.4144,9.3533,9.4072,9.4173,9.368,9.3548,9.3556,9.3692,9.3453,9.3096,9.2629,9.2617,9.226,9.1611,9.1611,9.1545,7.2266,7.3222,7.4499,7.537,7.5907,7.5887,7.4556,7.3819,7.2678,7.003,6.919,6.9227,7.0215,7.0899,7.2595,7.6439,7.7391,7.7913,7.8564,8.0732,8.2343,8.2573,8.433,8.6075,8.7624,8.7675,8.8014,8.9091,8.9403,8.9814,9.0404,9.1008,9.1479,9.1842,9.1705,9.1689,9.1875,9.1705,9.1611,9.1611,9.1611,9.1611,9.1611,9.1611,9.1611,9.1611,9.1611,9.118,9.0502,9.128,9.1147,9.0536,9.1313,9.1611,9.1611,9.1611,9.1611,9.1611,9.1611,9.1611,9.1611,9.1611,9.1611,9.1611,9.1611,9.1611,9.1611,9.1611,9.1611,9.1611,9.1611,9.1736,9.1975,9.2325,9.2425,9.2278,9.1724,9.1455,9.1251,9.1063,9.119,9.1251,9.1048,9.1346,9.1976,9.3069,9.355,9.3782,9.3782,9.4004,9.3896,9.3104,9.3311,9.3371,9.3077,9.3282,9.3193,9.2547,9.3103,9.3326,9.3029,9.3014,9.3014,9.3014,9.2683,9.2365,9.2092,9.226,9.2184,9.1875,9.1875,9.1875,7.311,7.4155,7.5562,7.6319,7.6781,7.6317,7.3455,7.2804,7.1795,6.8295,6.7545,6.7908,6.9213,7.0029,7.1912,7.6287,7.712,7.8219,8.1162,8.1996,8.2956,8.4687,8.5915,8.7094,8.827,8.8526,8.8836,8.9293,8.9801,9.0612,9.1677,9.1807,9.1953,9.2214,9.1891,9.1844,9.2107,9.1782,9.1611,9.1611,9.1611,9.1611,9.1611,9.1611,9.1611,9.1611,9.1611,9.0767,8.9526,9.0966,9.0734,8.956,9.0999,9.1611,9.1611,9.1611,9.1611,9.1611,9.1611,9.1711,9.1859,9.1921,9.1806,9.1611,9.1611,9.1611,9.1611,9.1611,9.1658,9.172,9.172,9.1968,9.2348,9.2933,9.3066,9.2838,9.2008,9.1743,9.1541,9.105,9.1328,9.1525,9.105,9.1415,9.2128,9.3009,9.364,9.4071,9.4237,9.4105,9.3712,9.2903,9.298,9.2894,9.2429,9.252,9.2322,9.1658,9.2245,9.2535,9.2398,9.2398,9.2398,9.2398,9.1875,9.1611,9.1611,9.1875,9.1999,9.1999,9.1999,9.1999,7.5668,7.6358,7.6595,7.6505,7.7346,7.7658,7.5768,7.4173,7.2693,7.1392,6.9207,6.8487,7.1736,7.2744,7.3862,7.6276,7.6339,7.6934,7.9232,8.0385,8.1964,8.4667,8.6203,8.773,8.9475,8.9081,8.9519,9.1558,9.2356,9.2677,9.251,9.2502,9.252,9.255,9.2245,9.2076,9.2107,9.1782,9.1611,9.1611,9.1611,9.1611,9.1611,9.1611,9.1611,9.1611,9.1611,9.0767,8.9526,9.0966,9.0734,8.956,9.0999,9.1611,9.1611,9.1611,9.1611,9.1611,9.1611,9.2042,9.2652,9.295,9.2392,9.1611,9.1611,9.1611,9.1611,9.1611,9.1829,9.2061,9.2061,9.2306,9.255,9.2651,9.2651,9.2651,9.252,9.2229,9.2032,9.2365,9.2162,9.2065,9.2349,9.2471,9.3006,9.4381,9.4648,9.4965,9.5616,9.5132,9.4412,9.3685,9.2507,9.1734,9.172,9.226,9.2322,9.1658,9.2245,9.2337,9.1736,9.1705,9.1705,9.1705,9.1642,9.1611,9.1611,9.1642,9.1658,9.1658,9.1658,9.1658,7.3842,7.5625,7.7576,7.7761,7.8203,7.7875,7.5355,7.415,7.278,7.0084,6.8676,6.8361,6.9725,7.1001,7.2404,7.4149,7.5306,7.7277,8.097,8.2555,8.4447,8.7541,8.9293,9.0211,9.0056,9.02,9.0639,9.1503,9.1504,9.1987,9.3133,9.2807,9.2687,9.2883,9.2581,9.2505,9.2702,9.2367,9.2214,9.2214,9.2214,9.2107,9.1906,9.1906,9.1798,9.1611,9.1611,9.0286,8.8331,9.065,9.022,8.8415,9.118,9.2274,9.2307,9.2771,9.3063,9.3236,9.3236,9.3543,9.398,9.4138,9.3858,9.3515,9.3515,9.3515,9.3515,9.3515,9.3608,9.3717,9.3717,9.3963,9.4242,9.4242,9.4242,9.418,9.3948,9.3808,9.3586,9.3311,9.3138,9.2933,9.266,9.2596,9.2964,9.3987,9.4507,9.5076,9.5811,9.5627,9.5192,9.444,9.2884,9.1906,9.1906,9.1968,9.1891,9.1627,9.186,9.1891,9.1627,9.1611,9.1611,9.1611,9.1611,9.172,9.1906,9.1906,9.2015,9.2214,9.1999,9.1906,7.3114,7.5694,7.8583,7.8787,7.8548,7.7531,7.4809,7.3605,7.2153,6.9051,6.8314,6.8226,6.8301,6.9628,7.1168,7.2639,7.4759,7.7606,8.1579,8.3257,8.5301,8.8597,9.0106,9.0833,9.0836,9.1541,9.1996,9.1996,9.1602,9.1996,9.3537,9.3156,9.2988,9.3245,9.2913,9.2852,9.3111,9.2762,9.2596,9.2596,9.2596,9.224,9.1611,9.2045,9.1889,9.1259,9.1707,9.0625,8.873,9.1208,9.0909,8.9163,9.2139,9.3302,9.3369,9.3901,9.4242,9.4447,9.4447,9.4737,9.5123,9.5232,9.543,9.5614,9.5707,9.5312,9.4788,9.4788,9.4883,9.4976,9.5084,9.5269,9.5437,9.5437,9.5437,9.5376,9.5146,9.4932,9.4629,9.4107,9.3823,9.3521,9.2983,9.3084,9.3554,9.448,9.5084,9.5756,9.6712,9.6477,9.6007,9.5487,9.4002,9.2935,9.2594,9.2485,9.2315,9.2083,9.1956,9.1843,9.1611,9.1611,9.1611,9.1611,9.1611,9.1736,9.1968,9.172,9.1743,9.1957,9.1728,9.1861,7.4695,7.7538,7.9663,7.9208,7.8156,7.6693,7.4671,7.2674,7.078,6.9301,6.8575,6.8276,6.855,6.9578,7.0902,7.2348,7.4899,7.7547,7.9966,8.1257,8.3234,8.6721,8.7161,8.853,9.2044,9.3098,9.3586,9.3586,9.3586,9.3586,9.3586,9.3586,9.3586,9.3586,9.3275,9.3111,9.3111,9.2762,9.2596,9.2596,9.2596,9.1825,9.0471,9.1926,9.1792,9.0505,9.1944,9.216,9.1558,9.3049,9.3217,9.2681,9.4203,9.4772,9.4772,9.4806,9.4772,9.4772,9.4772,9.5275,9.5958,9.6286,9.6866,9.7534,9.7861,9.6475,9.4788,9.4788,9.5053,9.536,9.5679,9.5804,9.5804,9.5804,9.5804,9.5804,9.5804,9.5214,9.4706,9.4706,9.4112,9.362,9.3571,9.4199,9.518,9.6665,9.6868,9.7409,9.8882,9.78,9.6902,9.6902,9.5921,9.4859,9.3783,9.4045,9.3941,9.3224,9.2878,9.2373,9.1644,9.1611,9.1611,9.1611,9.1611,9.1611,9.1578,9.0867,9.052,9.052,9.052,9.1254,7.2189,7.4159,7.5723,7.5573,7.5351,7.4638,7.2595,7.1948,7.1116,6.8906,6.8612,6.8662,6.8389,6.945,7.1,7.2861,7.5153,7.8093,8.2119,8.4322,8.6644,8.9624,9.091,9.1961,9.3117,9.2122,9.203,9.3489,9.2223,9.2044,9.3537,9.3586,9.3586,9.3586,9.3497,9.3438,9.3438,9.3335,9.329,9.329,9.329,9.2362,9.0728,9.2778,9.2759,9.1275,9.3232,9.3399,9.2376,9.3835,9.3701,9.2797,9.4772,9.5543,9.561,9.613,9.6455,9.6658,9.6658,9.6933,9.7371,9.7464,9.7308,9.7102,9.7209,9.712,9.6985,9.6985,9.7062,9.717,9.7262,9.7292,9.7191,9.6665,9.6563,9.6394,9.5905,9.5601,9.5466,9.5466,9.4857,9.4349,9.4349,9.4112,9.4635,9.6597,9.6462,9.6868,9.8864,9.824,9.7461,9.6935,9.7047,9.6509,9.4926,9.4703,9.4441,9.3972,9.3862,9.3605,9.3102,9.3086,9.3086,9.3086,9.3086,9.3213,9.3434,9.2965,9.249,9.1993,9.1496,9.1878,7.0097,7.2155,7.3864,7.366,7.3318,7.2782,7.1742,7.1029,7.0174,6.8795,6.9418,6.9795,6.8306,7.0176,7.1968,7.2118,7.5574,7.9009,8.1209,8.3849,8.6335,8.8305,9.0822,9.2592,9.3117,9.22,9.2175,9.3489,9.2369,9.2175,9.3537,9.3586,9.3586,9.3586,9.3586,9.3586,9.3586,9.3586,9.3586,9.3586,9.389,9.3096,9.1473,9.3747,9.3878,9.2405,9.4336,9.4822,0.0,9.5226,9.5226,9.4773,9.6151,9.6689,9.6741,9.7212,9.7505,9.7693,9.7693,9.763,9.7597,9.7597,9.7089,9.6496,9.6496,9.6819,9.7157,9.7157,9.7157,9.7157,9.7157,9.7157,9.7056,9.6597,9.6496,9.636,9.592,9.5567,9.5364,9.5364,9.4789,9.4383,9.4639,9.4789,9.5413,9.7071,9.7157,9.7529,9.8916,9.8476,9.7834,9.736,9.7732,9.7418,9.6003,9.5864,9.5619,9.5116,9.4991,9.4637,9.4022,9.3973,9.3926,9.3782,9.3782,9.3894,9.41,9.3628,9.3153,9.2671,9.1943,9.2314,0.0,7.1062,7.3271,7.2836,7.1874,7.1167,7.1614,6.9944,0.0,6.9104,7.0896,7.1493,6.8696,7.176,7.3744,7.0784,7.623,8.0132,7.819,8.1005,8.3522,8.4176,8.8,9.1064,9.2155,9.3068,9.3586,9.3586,9.3586,9.3586,9.3586,9.3586,9.3586,9.3586,9.3586,9.3586,9.3586,9.3586,9.3586,9.3518,9.4315,9.3861,9.2392,9.4789,9.5075,9.3755,9.5296,9.636,9.6969,9.6969,9.736,9.7987,9.7987,9.7987,9.7987,9.7935,9.7935,9.792,9.7852,9.7394,9.68,9.6766,9.6293,9.5702,9.5669,9.5702,9.5804,9.5804,9.5804,9.5804,9.5804,9.5804,9.577,9.5736,9.5702,9.5702,9.5635,9.5093,9.4639,9.4673,9.4146,9.3924,9.4654,9.5905,9.7105,9.7886,9.8544,9.8984,9.9101,9.8476,9.7987,9.7987,9.7987,9.7732,9.7037,9.7319,9.72,9.6462,9.6148,9.5551,9.4537,9.4488,9.4346,9.4028,9.3996,9.3996,9.3996,9.3235,9.287,9.2837,9.2124,9.271,6.6415,0.0,6.8519,6.8767,6.9172,6.9423,0.0,6.9247,6.9807,7.1228,7.2261,7.2724,7.22,7.4681,7.6057,7.379,7.7579,8.0639,8.0137,8.4023,8.6869,8.6556,9.0254,9.2335,9.1001,9.2544,9.3586,9.3586,9.3586,9.3586,9.3586,9.3586,9.3586,9.3586,9.3586,9.3586,9.3586,9.3586,9.33,9.2711,9.4064,9.359,9.1677,9.5108,9.5853,9.4552,9.6616,9.7597,9.7732,9.7732,9.7834,9.7987,9.7987,9.7987,9.792,9.736,9.7172,9.7071,9.6514,9.621,9.5988,9.5398,9.5093,9.4857,9.4296,9.4905,9.5804,9.5804,9.5804,9.5804,9.5804,9.5804,9.5669,9.5093,9.4958,9.4789,9.4229,9.3992,9.4026,9.4571,9.4552,9.4687,9.5398,9.5838,9.648,9.78,9.768,9.7815,9.8966,9.8476,9.7987,9.7987,9.7987,9.792,9.7766,9.7824,9.7467,9.6477,9.6871,9.6902,9.6387,9.6371,9.634,9.626,9.602,9.5892,9.5843,9.4888,9.4378,9.4361,9.3887,9.4193,6.5791,6.6511,6.7457,6.8891,6.8932,6.896,7.0176,6.9739,6.9764,7.2162,7.2963,7.3249,7.3382,7.5122,7.6228,7.5181,7.7452,8.008,8.2045,8.4879,8.6781,8.6774,8.9098,9.0638,9.043,9.232,9.3586,9.3586,9.3586,9.3586,9.3586,9.3586,9.3586,9.3586,9.3924,9.4112,9.4112,9.4112,9.3706,9.2962,9.4823,9.4721,9.2962,9.6007,9.6954,9.6228,9.6751,9.736,9.7953,9.7258,9.7394,9.7969,9.7631,9.7495,9.7394,9.6665,9.6394,9.6326,9.5939,9.5567,9.5161,9.4451,9.4214,9.4112,9.3721,9.4161,9.4804,9.4804,9.4804,9.4804,9.4804,9.4804,9.4702,9.4282,9.4214,9.4079,9.3687,9.3586,9.3721,9.4112,9.4214,9.4417,9.5161,9.5838,9.6597,9.736,9.7747,9.8086,9.8544,9.824,9.7987,9.7987,9.7987,9.7867,9.7529,9.78,9.7621,9.6709,9.6997,9.6925,9.6247,9.6231,9.632,9.6498,9.6324,9.6395,9.6729,9.6136,9.584,9.5856,9.5299,9.5427,6.5625,6.6688,6.8113,7.0626,6.9765,6.9141,7.2266,7.0571,6.9354,7.3032,7.3826,7.3952,7.4294,7.5839,7.6801,7.5916,7.7309,7.9864,8.3707,8.5129,8.5907,8.6328,8.7471,8.8817,9.0252,9.232,9.3586,9.3586,9.3586,9.3586,9.3586,9.3721,9.3789,9.3789,9.4485,9.4909,9.5026,9.4909,9.4485,9.3789,9.5887,9.6191,9.4958,9.704,9.7987,9.792,9.6683,9.6853,9.7886,9.6514,9.6683,9.7766,9.7037,9.6732,9.6631,9.5905,9.5635,9.5601,9.5499,9.506,9.4451,9.3789,9.3586,9.362,9.3721,9.3789,9.3789,9.389,9.3755,9.3586,9.3586,9.3586,9.3586,9.3586,9.3586,9.3586,9.3586,9.3586,9.362,9.3755,9.3789,9.3992,9.4755,9.6007,9.6902,9.6902,9.8052,9.8713,9.807,9.7987,9.7987,9.7987,9.7987,9.7766,9.7105,9.7631,9.7698,9.6935,9.7003,9.661,9.5593,9.5443,9.5541,9.59,9.5838,9.6108,9.6745,9.6782,9.6833,9.6833,9.636,9.6477,6.4947,6.6305,6.8051,7.0368,6.9923,6.9501,7.189,7.0583,7.0403,7.5807,7.6389,7.651,7.8378,8.1752,8.2516,7.738,7.97,8.2812,8.4692,8.715,8.8348,8.7268,9.0392,9.2044,9.0526,9.232,9.3586,9.3586,9.3586,9.3586,9.3586,9.418,9.4552,9.4552,9.5263,9.5939,9.6563,9.5939,9.5263,9.4552,9.6157,9.6462,9.5702,9.7292,9.7987,9.8003,9.7751,9.7784,9.792,9.7071,9.6868,9.7003,9.6259,9.5988,9.5872,9.5161,9.489,9.4774,9.4161,9.3857,9.3755,9.362,9.3586,9.3721,9.4349,9.4552,9.4654,9.5296,9.4567,9.3586,9.3586,9.3586,9.3586,9.3586,9.3586,9.3586,9.3586,9.3586,9.3789,9.4417,9.4552,9.4755,9.5499,9.6326,9.6902,9.6902,9.7631,9.8138,9.8021,9.7987,9.7987,9.7987,9.7987,9.7953,9.7834,9.792,9.7698,9.6935,9.7495,9.748,9.669,9.6048,9.5747,9.5788,9.5529,9.5458,9.5559,9.5902,9.6063,9.6079,9.6864,9.7308,6.5448,6.645,6.8133,7.2274,7.0926,7.0011,7.5483,7.2826,7.1171,7.8317,7.6875,7.5516,7.9557,8.0918,8.1137,8.0234,8.3602,8.6543,8.7318,8.8193,8.8801,8.8957,9.0686,9.1478,9.0493,9.232,9.3586,9.3586,9.3586,9.3789,9.418,9.4518,9.4876,9.5296,9.6022,9.6563,9.6902,9.6954,9.6413,9.5296,9.6785,9.6886,9.5838,9.7326,9.7766,9.736,9.6548,9.6431,9.6717,9.5582,9.5582,9.6225,9.5499,9.5229,9.5161,9.4808,9.4943,9.5263,9.489,9.5041,9.5379,9.5379,9.565,9.6041,9.6379,9.621,9.5939,9.6293,9.5616,9.4804,9.4804,9.4804,9.4804,9.4804,9.4485,9.418,9.418,9.389,9.3687,9.4045,9.4112,9.4349,9.5093,9.5499,9.5973,9.6766,9.7206,9.7529,9.7953,9.7987,9.7987,9.7987,9.7987,9.7987,9.7987,9.7987,9.7698,9.6935,9.6819,9.665,9.6326,9.5601,9.5398,9.5804,9.5247,9.5172,9.5558,9.5777,9.6037,9.6456,9.6948,9.7381,6.5866,6.6555,6.8044,7.3139,7.1299,7.035,7.8613,7.4698,7.1719,8.0194,7.7675,7.5544,8.082,8.022,8.0093,8.3635,8.7006,8.9296,8.9768,8.9643,8.9797,9.077,9.1039,9.114,9.114,9.2645,9.3586,9.3586,9.3755,9.4112,9.4673,9.5026,9.5466,9.6056,9.6766,9.7172,9.7172,9.7732,9.7428,9.6311,9.7292,9.7157,9.609,9.7056,9.7191,9.6597,9.5466,9.5296,9.5702,9.4383,9.4518,9.5466,9.4721,9.4552,9.4706,9.4876,9.5432,9.6056,9.6056,9.6529,9.7172,9.7172,9.7529,9.8021,9.8206,9.7867,9.7443,9.7612,9.7258,9.6717,9.6176,9.6056,9.6108,9.6277,9.5872,9.5451,9.5451,9.489,9.433,9.4161,9.3992,9.4045,9.4605,9.4842,9.5398,9.6699,9.7037,9.7375,9.7935,9.7987,9.7987,9.7987,9.7987,9.7987,9.7987,9.7987,9.7766,9.7206,9.6462,9.6056,9.6056,9.5364,9.5161,9.5533,9.4977,9.489,9.5296,9.5635,9.609,9.6631,9.7003,9.7461,6.5389,6.631,6.7576,7.0794,6.9873,7.035,7.8613,7.4698,7.1849,8.0889,8.0302,7.9521,8.3887,8.3499,8.3706,8.7257,8.8669,8.9739,9.0987,9.2343,9.2971,9.2348,9.2937,9.3358,9.3358,9.3489,9.3586,9.3586,9.4214,9.4639,9.4706,9.6007,9.6766,9.6834,9.7529,9.7935,9.7935,9.7969,9.7953,9.7818,9.7274,9.6935,9.68,9.621,9.5939,9.5872,9.577,9.5736,9.5736,9.4958,9.4673,9.4706,9.3958,9.4112,9.4774,9.5466,9.6191,9.6834,9.6834,9.7292,9.7935,9.7935,9.7969,9.8138,9.8815,9.8984,9.9085,9.978,9.9915,9.9408,9.7341,9.6834,9.7003,9.7698,9.78,9.7751,9.7751,9.7157,9.6462,9.577,9.5093,9.4639,9.4673,9.5263,9.5988,9.6766,9.7461,9.7935,9.7987,9.7987,9.7987,9.7987,9.7987,9.7987,9.7987,9.7987,9.7987,9.7935,9.724,9.6834,9.6834,9.6123,9.5432,9.4774,9.4706,9.4383,9.3755,9.5127,9.5853,9.5905,9.7292,9.7953,6.5944,6.6951,6.8718,7.3917,7.2382,7.1622,7.9474,7.7067,7.5668,8.4263,8.2507,8.0178,8.268,8.4822,8.6636,8.7974,8.9111,9.037,9.1769,9.2083,9.2421,9.3064,9.3417,9.3586,9.3586,9.3586,9.3789,9.4248,9.4537,9.5093,9.6007,9.6597,9.7105,9.7563,9.7867,9.7766,9.7341,9.7308,9.7089,9.6616,9.68,9.6665,9.6225,9.5939,9.5533,9.5127,9.5127,9.5127,9.5078,9.4808,9.4977,9.5398,9.5582,9.6108,9.6837,9.7563,9.8307,9.895,9.895,9.9457,10.01,10.01,10.0405,10.0912,10.1099,10.0878,10.059,10.0894,10.0608,10.0017,9.9171,9.895,9.9002,9.9306,9.9002,9.8679,9.8679,9.7747,9.6834,9.6529,9.5872,9.5533,9.5988,9.592,9.621,9.7394,9.7428,9.7461,9.7935,9.7987,9.7987,9.7987,9.7987,9.7987,9.7987,9.7987,9.7987,9.7987,9.7732,9.7597,9.7597,9.6902,9.636,9.6074,9.5601,9.5263,9.4973,9.5533,9.6056,9.6496,9.7071,9.7563,6.6392,6.7224,6.9059,7.4854,7.3475,7.2763,8.0622,7.9042,7.811,8.5797,8.5108,8.3314,8.386,8.6082,8.8065,8.8774,8.949,9.0514,9.2174,9.2184,9.2334,9.3146,9.3451,9.3586,9.3586,9.3823,9.4146,9.4673,9.5127,9.5838,9.6834,9.7105,9.7461,9.7987,9.7766,9.7409,9.6902,9.6665,9.6293,9.5804,9.6563,9.6496,9.577,9.533,9.4958,9.4706,9.4958,9.506,9.5093,9.5552,9.6041,9.6582,9.7308,9.7901,9.8442,9.9187,9.9931,10.0608,10.0608,10.1115,10.169,10.169,10.2096,10.2486,10.2486,10.2114,10.169,10.169,10.1402,10.088,10.088,10.0811,10.0592,10.0896,10.049,10.01,9.9879,9.883,9.78,9.7341,9.6819,9.665,9.7172,9.7022,9.7191,9.8206,9.7901,9.768,9.7969,9.7987,9.7987,9.7987,9.7987,9.7987,9.7987,9.7987,9.7987,9.7987,9.7987,9.7987,9.7987,9.7529,9.7138,9.6902,9.6394,9.6041,9.5804,9.6041,9.6394,9.6902,9.7138,9.7529,6.6556,6.7004,6.8246,7.2466,7.2476,7.3631,8.1977,8.017,7.8529,8.474,8.8239,8.9786,8.8439,8.7649,8.7864,9.0061,8.9808,9.0046,9.2116,9.3098,9.33,9.2508,9.3098,9.3586,9.362,9.4282,9.4706,9.4706,9.6074,9.6902,9.6902,9.7597,9.7987,9.7987,9.7274,9.6902,9.6868,9.6157,9.5804,9.5804,9.6563,9.6529,9.577,9.4296,9.4045,9.4774,9.5499,9.5853,9.5939,9.7428,9.8021,9.8104,9.8815,9.9119,9.9221,9.9949,10.0693,10.1402,10.1402,10.1909,10.2486,10.2486,10.2486,10.2486,10.2486,10.2486,10.2486,10.2486,10.2486,10.2486,10.2486,10.2011,10.1605,10.2283,10.2486,10.2299,10.1605,10.0811,9.978,9.8292,9.8021,9.8021,9.8021,9.8612,9.9119,9.9119,9.9119,9.8848,9.8104,9.7987,9.7987,9.7987,9.7987,9.7987,9.7987,9.7987,9.7987,9.7987,9.7987,9.7987,9.7987,9.7987,9.7664,9.6935,9.6902,9.6563,9.5804,9.6563,9.6902,9.6935,9.7664,9.7987,6.8457,6.8943,6.9675,7.3927,7.5054,7.6286,8.0771,8.1443,8.2498,8.7319,8.9,8.9177,8.781,8.9799,9.1198,8.9833,9.0682,9.171,9.231,9.2609,9.2895,9.3199,9.3451,9.3789,9.4315,9.4571,9.5127,9.6191,9.6665,9.7138,9.7631,9.7867,9.7987,9.7987,9.7274,9.6631,9.6123,9.5905,9.5804,9.5804,9.6563,9.68,9.6563,9.665,9.6819,9.7006,9.7258,9.7631,9.8206,9.9137,9.9543,9.9611,10.0405,10.0691,10.0793,10.1505,10.1995,10.2198,10.2198,10.2299,10.2486,10.2486,10.2486,10.2486,10.2486,10.2486,10.2486,10.2486,10.2486,10.2486,10.2486,10.2283,10.2181,10.2418,10.2486,10.2384,10.2198,10.1099,10.0204,10.0387,9.9525,9.895,9.9476,9.9712,9.9881,9.9881,9.9881,9.9611,9.8882,9.8341,9.7987,9.7987,9.7987,9.7987,9.7987,9.7987,9.7987,9.7987,9.7987,9.7987,9.7987,9.7987,9.7901,9.7698,9.7664,9.7563,9.736,9.7563,9.7664,9.7698,9.7901,9.7987,7.0104,7.0788,7.2162,7.7219,7.7771,7.7985,8.1383,8.3025,8.4931,8.8842,8.9874,8.9941,8.9408,9.1178,9.2319,9.1192,9.1782,9.2508,9.2812,9.2895,9.3064,9.3552,9.3857,9.4214,9.4639,9.5229,9.5939,9.6834,9.7172,9.7529,9.7969,9.7987,9.7867,9.7563,9.6868,9.6259,9.5804,9.5499,9.5804,9.6683,9.7409,9.8086,9.8661,9.8206,9.8172,9.8442,9.8731,9.9476,10.0506,10.0896,10.1099,10.1216,10.1606,10.1792,10.1909,10.2283,10.2486,10.2486,10.2486,10.2486,10.2486,10.2486,10.2486,10.2486,10.2486,10.2486,10.2486,10.2486,10.2486,10.2486,10.2486,10.2486,10.2486,10.2486,10.2486,10.2384,10.2096,10.1302,10.0693,10.0912,10.0405,10.0184,10.0608,10.0896,10.0998,10.0693,10.0389,10.0001,9.9593,9.8882,9.8442,9.8442,9.8156,9.7987,9.7987,9.7987,9.7987,9.7987,9.7987,9.7987,9.7987,9.7987,9.7987,9.7987,9.7987,9.7987,9.7987,9.7987,9.7987,9.7987,9.7987,9.7987,7.1765,7.2645,7.5003,8.0876,8.0142,7.9166,8.3626,8.5021,8.6325,8.9724,9.0856,9.1484,9.2358,9.1967,9.1962,9.3383,9.2996,9.2745,9.3484,9.3586,9.362,9.3687,9.4282,9.474,9.489,9.6123,9.6935,9.7003,9.7631,9.7987,9.7987,9.7987,9.7664,9.6902,9.6259,9.5872,9.5804,9.5195,9.5973,9.8104,9.8848,9.9999,10.1402,9.9356,9.8781,9.9457,10.0084,10.1201,10.2486,10.2486,10.2486,10.2486,10.2486,10.2486,10.2486,10.2486,10.2486,10.2486,10.2486,10.2486,10.2486,10.2486,10.2486,10.2486,10.2486,10.2486,10.2486,10.2486,10.2486,10.2486,10.2486,10.2486,10.2486,10.2486,10.2486,10.2299,10.1589,10.1386,10.1199,10.0508,10.0896,10.1402,10.1503,10.2112,10.2299,10.1605,10.0795,10.0287,10.0287,9.966,9.9187,9.9187,9.8612,9.8156,9.8104,9.8104,9.8055,9.7987,9.7987,9.7987,9.7987,9.7987,9.7987,9.7987,9.7987,9.7987,9.7987,9.7987,9.7987,9.7987,9.7987,9.7987,7.4421,7.4804,7.5016,7.8033,7.9527,8.1746,8.7538,8.818,8.8353,9.1315,9.1198,9.1172,9.299,9.3214,9.3214,9.3552,9.3451,9.3417,9.3586,9.3586,9.3823,9.4383,9.4605,9.5161,9.6326,9.6699,9.7138,9.7732,9.7901,9.7987,9.7987,9.7987,9.7664,9.6902,9.6732,9.6394,9.5804,9.6225,9.724,9.8882,9.9611,10.0811,10.2215,10.1792,10.1606,10.1792,10.1911,10.2181,10.2486,10.2486,10.2486,10.2486,10.2486,10.2486,10.2486,10.2486,10.2486,10.2486,10.2486,10.2486,10.2486,10.2486,10.2486,10.2486,10.2486,10.2486,10.2486,10.2486,10.2486,10.2486,10.2486,10.2486,10.2486,10.2486,10.2486,10.2502,10.2299,10.1792,10.1503,10.1911,10.1706,10.1605,10.2198,10.2401,10.2418,10.2299,10.1589,10.1115,10.1115,10.0506,9.9949,9.9949,9.9814,9.9476,9.8916,9.8848,9.8612,9.8037,9.7987,9.7987,9.7987,9.7987,9.7987,9.7987,9.7987,9.7987,9.7987,9.7987,9.7987,9.7987,9.7987,9.7987,7.419,7.572,7.7357,8.081,8.3264,8.5529,8.8131,8.9221,9.0187,9.2029,9.1821,9.1819,9.3324,9.3586,9.3586,9.3586,9.3586,9.3586,9.3586,9.389,9.4282,9.4639,9.533,9.6056,9.6834,9.7206,9.7597,9.7969,9.7987,9.7867,9.7495,9.7461,9.6954,9.5872,9.6191,9.636,9.6326,9.7056,9.8356,10.0217,10.0608,10.1386,10.2486,10.2486,10.2486,10.2486,10.2486,10.2486,10.2486,10.2486,10.2486,10.2486,10.2486,10.2486,10.2486,10.2486,10.2486,10.2486,10.2486,10.2486,10.2486,10.2486,10.2486,10.2486,10.2486,10.2486,10.2486,10.2486,10.2486,10.2486,10.2486,10.2486,10.2486,10.2486,10.2486,10.2486,10.2486,10.2198,10.1978,10.2384,10.2198,10.1978,10.2384,10.2486,10.2486,10.2486,10.2198,10.1893,10.1893,10.13,10.0811,10.0811,10.0389,10.0001,9.9645,9.9611,9.9442,9.907,9.9036,9.9036,9.9036,9.8698,9.8375,9.8003,9.7987,9.7987,9.7987,9.7987,9.7987,9.7987,9.7987,9.7987,7.3146,7.6446,8.0493,8.4905,8.7209,8.8349,8.8065,8.9538,9.1257,9.2392,9.2609,9.2812,9.3484,9.3586,9.3586,9.3586,9.3586,9.3654,9.3789,9.4315,9.4774,9.506,9.6157,9.6935,9.7071,9.7631,9.7953,9.7834,9.78,9.7495,9.6732,9.6699,9.6157,9.4924,9.5736,9.6447,9.7071,9.7969,9.939,10.1402,10.1503,10.1893,10.2486,10.2486,10.2486,10.2486,10.2486,10.2486,10.2486,10.2486,10.2486,10.2486,10.2486,10.2486,10.2486,10.2486,10.2486,10.2486,10.2486,10.2486,10.2486,10.2486,10.2486,10.2486,10.2486,10.2486,10.2486,10.2486,10.2486,10.2486,10.2486,10.2486,10.2486,10.2486,10.2486,10.2486,10.2486,10.2486,10.2486,10.2486,10.2486,10.2486,10.2486,10.2486,10.2486,10.2486,10.2486,10.2486,10.2486,10.2011,10.1605,10.1605,10.1014,10.0508,10.0389,10.0389,10.0305,10.022,10.022,10.022,10.022,9.9611,9.9018,9.8393,9.8123,9.7987,9.7987,9.7987,9.7987,9.7987,9.7987,9.7987,7.3599,7.8294,8.3026,8.5474,8.5863,8.6712,9.077,9.0586,9.0306,9.2908,9.3451,9.3484,9.3586,9.3586,9.3586,9.3586,9.3586,9.3823,9.4451,9.4639,9.5161,9.6462,9.6766,9.7138,9.78,9.7935,9.7732,9.7105,9.7037,9.6732,9.5988,9.5939,9.5838,9.5669,9.6988,9.7766,9.7867,9.9205,10.0389,10.1402,10.1978,10.2384,10.2486,10.2486,10.2486,10.2486,10.2486,10.2486,10.2486,10.2486,10.2486,10.2486,10.2486,10.2486,10.2486,10.2486,10.2486,10.2486,10.2486,10.2486,10.2486,10.2486,10.2486,10.2486,10.2486,10.2486,10.2486,10.2486,10.2486,10.2486,10.2486,10.2486,10.2486,10.2486,10.2486,10.2486,10.2486,10.2486,10.2486,10.2486,10.2486,10.2486,10.2486,10.2486,10.2486,10.2486,10.2486,10.2486,10.2486,10.2384,10.2401,10.2401,10.2299,10.1911,10.13,10.1183,10.0912,10.0204,10.022,10.022,10.022,10.0118,10.0017,9.9915,9.863,9.7987,9.7987,9.7987,9.7987,9.7987,9.7987,9.7987,7.5213,7.8123,8.0901,8.6889,8.6426,8.5872,9.1199,9.0788,9.0103,9.2995,9.3586,9.3586,9.3586,9.3586,9.3586,9.3586,9.3958,9.4315,9.4639,9.5398,9.6191,9.6834,9.7274,9.7631,9.7969,9.7987,9.7698,9.6969,9.6902,9.6394,9.5263,9.5195,9.5364,9.577,9.6819,9.7969,9.9205,10.0287,10.13,10.1995,10.2283,10.2486,10.2486,10.2486,10.2486,10.2486,10.2486,10.2486,10.2486,10.2486,10.2486,10.2486,10.2486,10.2486,10.2486,10.2486,10.2486,10.2486,10.2486,10.2486,10.2486,10.2486,10.2486,10.2486,10.2486,10.2486,10.2486,10.2486,10.2486,10.2486,10.2486,10.2486,10.2486,10.2486,10.2486,10.2486,10.2486,10.2486,10.2486,10.2486,10.2486,10.2486,10.2486,10.2486,10.2486,10.2486,10.2486,10.2486,10.2486,10.2486,10.2486,10.2486,10.2486,10.2401,10.1978,10.1995,10.1893,10.1505,10.1505,10.1505,10.1505,10.1115,10.0878,10.0878,9.978,9.9239,9.9239,9.9239,9.9239,9.9239,9.9239,9.9239,7.5674,7.7191,7.8589,8.6421,8.5916,8.4783,8.9696,8.9762,8.9548,9.2234,9.3381,9.3823,9.362,9.3586,9.3654,9.3857,9.4349,9.4808,9.5229,9.6225,9.6969,9.7172,9.7664,9.7987,9.7987,9.7987,9.7631,9.6699,9.6631,9.5988,9.4518,9.4605,9.5127,9.6041,9.6969,9.8442,10.0506,10.1284,10.2011,10.2486,10.2486,10.2486,10.2486,10.2486,10.2486,10.2486,10.2486,10.2486,10.2486,10.2486,10.2486,10.2486,10.2486,10.2486,10.2486,10.2486,10.2486,10.2486,10.2486,10.2486,10.2486,10.2486,10.2486,10.2486,10.2486,10.2486,10.2486,10.2486,10.2486,10.2486,10.2486,10.2486,10.2486,10.2486,10.2486,10.2486,10.2486,10.2486,10.2486,10.2486,10.2486,10.2486,10.2486,10.2486,10.2486,10.2486,10.2486,10.2486,10.2486,10.2486,10.2486,10.2486,10.2486,10.2486,10.2486,10.2486,10.2486,10.2486,10.2486,10.2486,10.2486,10.2011,10.1706,10.1706,10.1115,10.0592,10.022,10.022,10.022,10.022,10.022,10.022,7.3678,7.5673,7.7779,8.2252,8.2746,8.2895,8.5857,8.6969,8.8014,9.0122,9.2748,9.4451,9.3721,9.3586,9.3823,9.4552,9.4673,9.5195,9.6597,9.6834,9.7172,9.7867,9.7987,9.7987,9.7987,9.7987,9.7394,9.5973,9.5838,9.521,9.3721,9.4315,9.5364,9.68,9.8255,9.9744,10.13,10.2096,10.2502,10.2486,10.2486,10.2486,10.2486,10.2486,10.2486,10.2486,10.2486,10.2486,10.2486,10.2486,10.2486,10.2486,10.2486,10.2486,10.2486,10.2486,10.2486,10.2486,10.2486,10.2486,10.2486,10.2486,10.2486,10.2486,10.2486,10.2486,10.2486,10.2486,10.2486,10.2486,10.2486,10.2486,10.2486,10.2486,10.2486,10.2486,10.2486,10.2486,10.2486,10.2486,10.2486,10.2486,10.2486,10.2486,10.2486,10.2486,10.2486,10.2486,10.2486,10.2486,10.2486,10.2486,10.2486,10.2486,10.2486,10.2486,10.2486,10.2486,10.2486,10.2486,10.2486,10.2502,10.2384,10.2384,10.2384,10.169,10.022,10.022,10.022,10.022,10.022,10.022,7.2899,7.3574,7.4762,8.0794,8.0781,8.0514,8.5152,8.6778,8.75,8.8239,9.1759,9.4061,9.1937,9.3455,9.4924,9.4706,9.5499,9.6293,9.6834,9.7308,9.7698,9.7969,9.7987,9.7987,9.7987,9.7987,9.7394,9.5905,9.4545,9.3961,9.4301,9.3249,9.438,9.8206,9.8815,10.0116,10.2096,10.2401,10.2486,10.2486,10.2486,10.2486,10.2486,10.2486,10.2486,10.2486,10.2486,10.2486,10.2486,10.2486,10.2486,10.2486,10.2486,10.2486,10.2486,10.2486,10.2486,10.2486,10.2486,10.2486,10.2486,10.2486,10.2486,10.2486,10.2486,10.2486,10.2486,10.2486,10.2486,10.2486,10.2486,10.2486,10.2486,10.2486,10.2486,10.2486,10.2486,10.2486,10.2486,10.2486,10.2486,10.2486,10.2486,10.2486,10.2486,10.2486,10.2486,10.2486,10.2486,10.2486,10.2486,10.2486,10.2486,10.2486,10.2486,10.2486,10.2486,10.2486,10.2486,10.2486,10.2486,10.2486,10.2486,10.2486,10.2486,10.2215,10.169,10.169,10.169,10.169,10.169,10.169,7.138,7.1584,7.2364,7.7777,7.8094,7.8242,8.2742,8.5409,8.701,8.7242,9.1241,9.4061,9.1874,9.4062,9.5939,9.5195,9.609,9.7003,9.724,9.7698,9.7987,9.7987,9.7987,9.7987,9.7987,9.7766,9.7123,9.5872,9.4511,9.4013,9.4658,9.3822,9.5207,9.934,9.9965,10.098,10.2502,10.2486,10.2486,10.2486,10.2486,10.2486,10.2486,10.2486,10.2486,10.2486,10.2486,10.2486,10.2486,10.2486,10.2486,10.2486,10.2486,10.2486,10.2486,10.2486,10.2486,10.2486,10.2486,10.2486,10.2486,10.2486,10.2486,10.2486,10.2486,10.2486,10.2486,10.2486,10.2705,10.2908,10.2908,10.3093,10.3179,10.2892,10.2908,10.2806,10.2603,10.2486,10.2486,10.2486,10.2486,10.2486,10.2486,10.2486,10.2486,10.2486,10.2486,10.2486,10.2486,10.2486,10.2486,10.2486,10.2486,10.2486,10.2486,10.2486,10.2486,10.2486,10.2486,10.2486,10.2486,10.2486,10.2486,10.2486,10.2486,10.2486,10.2486,10.2486,10.2486,10.2486,10.2486,10.2486,0.0,0.0,0.0,7.3007,7.4646,7.6251,7.8337,8.2608,8.6317,8.7047,9.1145,9.4387,9.3624,9.5345,9.6631,9.5872,9.6428,9.7172,9.7901,9.7987,9.7987,9.7987,9.7987,9.8003,9.7969,9.7341,9.6597,9.5838,9.5721,9.5451,9.4842,9.6225,9.8018,10.0186,10.1708,10.2486,10.2486,10.2486,10.2486,10.2486,10.2486,10.2486,10.2486,10.2486,10.2486,10.2486,10.2486,10.2486,10.2486,10.2486,10.2486,10.2486,10.2486,10.2486,10.2486,10.2486,10.2486,10.2486,10.2486,10.2486,10.2486,10.2486,10.2486,10.2486,10.2486,10.2486,10.2486,10.2486,10.3077,10.3618,10.3618,10.421,10.4514,10.3804,10.3618,10.3415,10.2705,10.2486,10.2486,10.2486,10.2486,10.2486,10.2486,10.2486,10.2486,10.2486,10.2486,10.2486,10.2486,10.2486,10.2486,10.2486,10.2486,10.2486,10.2486,10.2486,10.2486,10.2486,10.2486,10.2486,10.2486,10.2486,10.2486,10.2486,10.2486,10.2486,10.2486,10.2486,10.2486,10.2486,10.2486,10.2486,6.846,0.0,0.0,0.0,0.0,0.0,7.7107,8.0805,8.4024,8.4222,8.8583,9.2173,9.1419,9.3931,9.5838,9.5127,9.6514,9.7766,9.7969,9.7987,9.7987,9.7987,9.7987,9.78,9.7274,9.7037,9.6597,9.5838,9.4399,9.4589,9.6957,9.9033,10.0405,10.1014,10.1995,10.2486,10.2486,10.2486,10.2486,10.2486,10.2486,10.2486,10.2486,10.2486,10.2486,10.2486,10.2486,10.2486,10.2486,10.2486,10.2486,10.2486,10.2486,10.2486,10.2486,10.2486,10.2486,10.2486,10.2486,10.2486,10.2486,10.2486,10.2486,10.2486,10.2486,10.2908,10.328,10.328,10.3787,10.4413,10.4413,10.4498,10.4616,10.4396,10.4413,10.421,10.3499,10.328,10.3095,10.2587,10.2486,10.2486,10.2486,10.2486,10.2486,10.2486,10.2486,10.2486,10.2486,10.2486,10.2486,10.2486,10.2486,10.2486,10.2486,10.2486,10.2486,10.2486,10.2486,10.2486,10.2486,10.2486,10.2486,10.2486,10.2486,10.2486,10.2486,10.2486,10.2486,10.2486,10.2486,10.2486,0.0,0.0,7.0617,7.1621,0.0,0.0,7.6556,8.0532,8.4072,8.4335,8.865,9.1983,9.0642,9.2371,9.3856,9.3437,9.4732,9.6206,9.7363,9.78,9.7987,9.7987,9.7987,9.7834,9.7394,9.7071,9.6834,9.6717,9.5587,9.608,9.8783,10.0506,10.1402,10.1402,10.2096,10.2486,10.2486,10.2486,10.2486,10.2486,10.2486,10.2486,10.2486,10.2486,10.2486,10.2486,10.2486,10.2486,10.2486,10.2486,10.2486,10.2486,10.2486,10.2486,10.2486,10.2486,10.2486,10.2486,10.2486,10.2705,10.2976,10.2976,10.3195,10.3415,10.3415,10.3686,10.4108,10.4108,10.4616,10.5208,10.5479,10.5597,10.5479,10.5208,10.5191,10.4988,10.421,10.3787,10.3382,10.2587,10.2486,10.2486,10.2486,10.2486,10.2486,10.2486,10.2486,10.2486,10.2486,10.2486,10.2486,10.2486,10.2486,10.2486,10.2486,10.2486,10.2486,10.2486,10.2486,10.2486,10.2486,10.2486,10.2486,10.2486,10.2486,10.2486,10.2486,10.2486,10.2486,10.2486,10.2486,10.2486,0.0,0.0,0.0,0.0,7.3512,0.0,7.6265,8.0601,8.4596,8.5449,8.9255,9.191,9.0248,9.0542,9.1025,9.1025,9.1695,9.3229,9.6043,9.7262,9.7803,9.7572,9.7821,9.7969,9.7901,9.7274,9.7172,9.7834,9.8104,9.8867,10.0303,10.1081,10.1503,10.1503,10.2214,10.2486,10.2486,10.2486,10.2486,10.2486,10.2486,10.2486,10.2486,10.2486,10.2486,10.2486,10.2486,10.2486,10.2486,10.2486,10.2486,10.2486,10.2486,10.2486,10.2486,10.2486,10.2486,10.2486,10.2486,10.3009,10.3585,10.3585,10.4108,10.4684,10.4684,10.4802,10.4802,10.4887,10.5377,10.6088,10.6697,10.69,10.6697,10.6088,10.5902,10.5716,10.4988,10.4295,10.3618,10.2908,10.2587,10.2486,10.2486,10.2486,10.2486,10.2486,10.2486,10.2486,10.2486,10.2486,10.2486,10.2486,10.2486,10.2486,10.2486,10.2486,10.2486,10.2486,10.2486,10.2486,10.2486,10.2486,10.2486,10.2486,10.2486,10.2486,10.2486,10.2486,10.2486,10.2486,10.2486,10.2486,0.0,0.0,0.0,0.0,0.0,0.0,7.4969,7.7221,7.9776,8.1611,8.3676,8.5538,8.6781,8.7619,8.8117,8.8117,8.8749,9.0238,9.3131,9.5583,9.6482,9.481,9.6629,9.7766,9.7172,9.6969,9.6969,9.7105,9.8765,10.0202,10.1081,10.1893,10.2299,10.2299,10.2384,10.2486,10.2486,10.2486,10.2486,10.2486,10.2486,10.2486,10.2486,10.2486,10.2486,10.2486,10.2486,10.2486,10.2486,10.2486,10.2486,10.2486,10.2486,10.2486,10.2486,10.2486,10.2486,10.2486,10.2486,10.3009,10.3585,10.3585,10.4108,10.4684,10.4684,10.5123,10.5716,10.6291,10.6612,10.6697,10.6917,10.69,10.6917,10.6697,10.6714,10.6494,10.5699,10.5479,10.5191,10.4413,10.3314,10.2486,10.2486,10.2486,10.2486,10.2486,10.2486,10.2486,10.2486,10.2486,10.2486,10.2486,10.2486,10.2486,10.2486,10.2486,10.2486,10.2486,10.2486,10.2486,10.2486,10.2486,10.2486,10.2486,10.2486,10.2486,10.2486,10.2486,10.2486,10.2486,10.2486,10.2486,0.0,0.0,0.0,7.1847,0.0,0.0,0.0,7.6804,7.926,8.0681,8.2671,8.4258,8.4573,8.4969,8.5332,8.5695,8.6058,8.6804,8.8259,9.2431,9.5495,9.585,9.7142,9.7867,9.7461,9.7428,9.7732,9.8476,9.9931,10.1099,10.1893,10.2299,10.2486,10.2486,10.2486,10.2486,10.2486,10.2486,10.2486,10.2486,10.2486,10.2486,10.2486,10.2486,10.2705,10.2993,10.2993,10.3296,10.3585,10.3585,10.3585,10.3517,10.2806,10.2486,10.2486,10.2892,10.2993,10.3111,10.3499,10.4295,10.5191,10.4802,10.5395,10.6308,10.5902,10.6105,10.6392,10.6815,10.69,10.69,10.69,10.69,10.69,10.69,10.69,10.6815,10.6392,10.6088,10.5716,10.531,10.4413,10.3499,10.3111,10.2689,10.2486,10.2486,10.2486,10.2486,10.2486,10.2486,10.2486,10.2486,10.2486,10.2486,10.2486,10.2486,10.2486,10.2486,10.2486,10.2486,10.2486,10.2486,10.2486,10.2486,10.2486,10.2486,10.2486,10.2486,10.2486,10.2486,10.2486,10.2486,0.0,0.0,0.0,0.0,0.0,7.4141,0.0,0.0,0.0,8.0075,8.2097,8.3437,8.228,8.2192,8.2421,8.2716,8.3108,8.348,8.3744,8.8638,9.2988,9.529,9.6049,9.6414,9.6549,9.708,9.81,9.9866,10.0709,10.1503,10.2215,10.2384,10.2486,10.2486,10.2401,10.2401,10.2486,10.2401,10.2401,10.2486,10.2587,10.2689,10.2689,10.2908,10.3196,10.3787,10.3787,10.4092,10.4684,10.4684,10.4684,10.4582,10.3382,10.2892,10.3009,10.3585,10.3787,10.3905,10.4514,10.5699,10.6798,10.6189,10.6883,10.7915,10.7103,10.69,10.69,10.69,10.69,10.69,10.69,10.69,10.69,10.69,10.69,10.69,10.69,10.6392,10.6004,10.6004,10.5411,10.4599,10.3804,10.3111,10.2705,10.2486,10.2486,10.2486,10.2486,10.2486,10.2486,10.2486,10.2486,10.2486,10.2486,10.2486,10.2486,10.2486,10.2486,10.2486,10.2486,10.2486,10.2486,10.2486,10.2486,10.2486,10.2486,10.2486,10.2486,10.2486,10.2486,10.2486,0.0,0.0,0.0,0.0,7.4937,0.0,0.0,0.0,7.7169,7.7267,0.0,7.8603,7.842,0.0,0.0,7.7851,7.9245,8.0908,8.2141,8.4593,8.639,8.6696,8.8943,9.0738,9.1387,9.3681,9.6302,9.902,9.9915,10.0709,10.1503,10.208,10.2486,10.2486,10.1909,10.1792,10.2486,10.1909,10.1909,10.2486,10.3195,10.3499,10.3483,10.4192,10.4514,10.4598,10.4598,10.4616,10.4684,10.4684,10.4684,10.47,10.4514,10.4497,10.4497,10.4498,10.4598,10.4582,10.47,10.5699,10.6917,10.6798,10.7289,10.7915,10.7103,10.69,10.69,10.69,10.69,10.69,10.69,10.69,10.69,10.69,10.69,10.69,10.69,10.6798,10.6815,10.6815,10.6189,10.5192,10.3821,10.3517,10.3296,10.2603,10.2486,10.2486,10.2486,10.2486,10.2486,10.2486,10.2486,10.2486,10.2486,10.2486,10.2486,10.2486,10.2486,10.2486,10.2486,10.2486,10.2486,10.2486,10.2486,10.2486,10.2486,10.2486,10.2486,10.2486,10.2486,10.2486,0.0,0.0,0.0,0.0,0.0,0.0,7.8038,0.0,7.6283,0.0,0.0,0.0,0.0,0.0,0.0,0.0,7.8773,7.9732,8.0739,8.1677,8.3605,8.7308,8.8449,8.9679,9.1642,9.2132,9.3719,9.699,9.7525,9.8232,9.9475,10.0991,10.2112,10.2502,10.2198,10.2198,10.2486,10.2198,10.2401,10.3095,10.3009,10.3415,10.4193,10.4108,10.4498,10.531,10.531,10.5597,10.6003,10.6003,10.6003,10.6003,10.6003,10.5512,10.4802,10.5191,10.531,10.5377,10.5783,10.6714,10.761,10.8101,10.7813,10.7407,10.7509,10.7187,10.69,10.69,10.69,10.69,10.69,10.69,10.69,10.69,10.69,10.69,10.69,10.69,10.69,10.69,10.6714,10.6088,10.5123,10.4498,10.4007,10.3196,10.3095,10.3009,10.2603,10.2486,10.2486,10.2486,10.2486,10.2486,10.2486,10.2486,10.2486,10.2486,10.2486,10.2486,10.2486,10.2486,10.2486,10.2486,10.2486,10.2486,10.2486,10.2486,10.2486,10.2486,10.2486,10.2486,8.1978,0.0,0.0,0.0,0.0,0.0,0.0,0.0,0.0,0.0,0.0,0.0,0.0,0.0,0.0,0.0,0.0,7.8661,7.8805,7.9338,8.157,8.6582,8.7594,8.8623,9.0487,9.081,9.1889,9.4272,9.5362,9.6461,9.7833,10.0121,10.169,10.2502,10.2299,10.2299,10.2486,10.2486,10.2806,10.328,10.3195,10.3702,10.47,10.4413,10.4904,10.6088,10.6088,10.6392,10.69,10.69,10.69,10.69,10.69,10.6189,10.5394,10.5885,10.6088,10.6189,10.6697,10.7407,10.8101,10.8693,10.8084,10.7323,10.761,10.7289,10.69,10.69,10.69,10.69,10.69,10.69,10.69,10.69,10.69,10.69,10.69,10.69,10.69,10.69,10.69,10.6697,10.6189,10.5496,10.4785,10.399,10.3686,10.3382,10.2908,10.2587,10.2486,10.2486,10.2486,10.2486,10.2486,10.2486,10.2486,10.2486,10.2486,10.2486,10.2486,10.2486,10.2486,10.2486,10.2486,10.2486,10.2486,10.2486,10.2486,10.2486,10.2486,10.2486,0.0,0.0,0.0,8.3538,0.0,0.0,0.0,0.0,7.774,0.0,0.0,0.0,0.0,0.0,0.0,0.0,0.0,0.0,0.0,0.0,7.9518,8.1102,8.4287,8.6151,8.5603,8.9231,9.1406,9.0838,9.3958,9.626,9.7111,9.9851,10.169,10.2502,10.1792,10.1808,10.2486,10.2486,10.2486,10.2603,10.4007,10.47,10.4684,10.5411,10.6105,10.6917,10.6917,10.6917,10.69,10.69,10.69,10.69,10.69,10.6917,10.6798,10.6917,10.6917,10.6917,10.69,10.7407,10.7999,10.7982,10.7999,10.7779,10.7086,10.69,10.69,10.69,10.69,10.69,10.69,10.69,10.69,10.69,10.69,10.69,10.69,10.69,10.69,10.69,10.69,10.69,10.6917,10.6308,10.5513,10.4785,10.4108,10.3585,10.3601,10.2892,10.2486,10.2486,10.2486,10.2486,10.2486,10.2486,10.2486,10.2486,10.2486,10.2486,10.2486,10.2486,10.2486,10.2486,10.2486,10.2486,10.2486,10.2486,10.2486,10.2486,10.2486,10.2486,8.9157,8.9394,8.8968,8.8742,0.0,0.0,0.0,0.0,0.0,0.0,0.0,0.0,0.0,0.0,0.0,0.0,0.0,0.0,0.0,0.0,7.9082,7.9568,0.0,0.0,0.0,0.0,8.623,8.8332,8.96,9.0815,9.2085,9.6222,9.8907,9.963,10.1279,10.2502,10.3212,10.3212,10.3499,10.4007,10.4007,10.421,10.4684,10.5005,10.5191,10.5496,10.6003,10.5885,10.5496,10.6003,10.6189,10.6223,10.6697,10.69,10.69,10.69,10.69,10.69,10.69,10.7086,10.7407,10.7779,10.7712,10.7289,10.761,10.7306,10.69,10.69,10.69,10.69,10.69,10.69,10.69,10.69,10.69,10.69,10.69,10.69,10.69,10.69,10.69,10.69,10.69,10.6697,10.6392,10.6206,10.6409,10.6308,10.5817,10.4701,10.4007,10.4007,10.3111,10.2486,10.2486,10.2486,10.2486,10.2486,10.2486,10.2486,10.2486,10.2486,10.2486,10.2486,10.2486,10.2486,10.2486,10.2486,10.2486,10.2486,10.2486,10.2486,9.2547,9.267,9.2188,9.1644,8.9996,0.0,8.7817,0.0,8.2297,0.0,0.0,0.0,0.0,0.0,0.0,0.0,0.0,0.0,0.0,7.8014,0.0,0.0,0.0,0.0,0.0,0.0,8.3764,8.5038,8.6557,8.7924,8.9136,9.4228,9.7581,9.857,10.1082,10.3009,10.4007,10.4007,10.421,10.4684,10.421,10.4193,10.4684,10.4413,10.4497,10.4717,10.5208,10.5107,10.4802,10.5513,10.5817,10.5885,10.6595,10.69,10.69,10.69,10.69,10.69,10.69,10.6697,10.6578,10.739,10.7086,10.6612,10.7117,10.6915,10.6595,10.678,10.6679,10.6595,10.7221,10.7103,10.69,10.69,10.69,10.69,10.69,10.69,10.69,10.69,10.69,10.69,10.69,10.7103,10.7204,10.69,10.7306,10.739,10.6984,10.6105,10.5496,10.5496,10.4599,10.399,10.372,10.3399,10.328,10.328,10.2993,10.2908,10.2908,10.2587,10.2486,10.2486,10.2486,10.2486,10.2486,10.2486,10.2486,10.2486,10.2486,10.2486]},{"header":{"parameterUnit":"m.s-1","parameterCategory":1,"la1":30.6,"la2":29.2853,"lo1":-89.7004,"lo2":-87.6739,"dx":0.0162,"dy":0.0183,"nx":112,"ny":82,"refTime":"2022-11-16T18:00:00:Z","depth":0,"parameterNumber":3,"parameterNumberName":"V-component_of_WINDS"},"data":[0.0,0.0,0.0,0.0,0.0,0.0,0.0,0.0,0.0,0.0,0.0,0.0,0.0,0.0,0.0,0.0,0.0,0.0,0.0,0.0,0.0,0.0,0.0,0.0,0.0,0.0,0.0,0.0,0.0,0.0,0.0,0.0,0.0,0.0,0.0,0.0,0.0,0.0,0.0,0.0,0.0,0.0,0.0,0.0,0.0,0.0,0.0,0.0,0.0,0.0,0.0,0.0,0.0,0.0,0.0,0.0,0.0,0.0,0.0,0.0,0.0,0.0,0.0,0.0,0.0,0.0,0.0,0.0,0.0,0.0,0.0,0.0,0.0,0.0,0.0,0.0,0.0,0.0,0.0,0.0,0.0,0.0,0.0,0.0,0.0,0.0,0.0,0.0,0.0,0.0,2.4342,2.5152,2.6247,2.6706,2.6118,2.6532,2.6258,2.4973,0.0,0.0,0.0,0.0,0.0,0.0,0.0,0.0,0.0,0.0,0.0,0.0,0.0,0.0,0.0,0.0,0.0,0.0,0.0,0.0,0.0,0.0,0.0,0.0,0.0,0.0,0.0,0.0,0.0,0.0,0.0,0.0,0.0,0.0,0.0,0.0,0.0,0.0,0.0,0.0,0.0,0.0,0.0,0.0,0.0,0.0,0.0,0.0,0.0,0.0,0.0,0.0,0.0,0.0,0.0,0.0,0.0,0.0,0.0,0.0,0.0,0.0,0.0,0.0,0.0,0.0,0.0,0.0,0.0,0.0,0.0,0.0,0.0,0.0,0.0,0.0,0.0,0.0,0.0,0.0,0.0,0.0,0.0,0.0,0.0,0.0,0.0,0.0,0.0,0.0,0.0,0.0,0.0,0.0,0.0,0.0,0.0,0.0,0.0,0.0,0.0,0.0,0.0,0.0,2.4052,2.4796,2.6491,2.712,2.6028,2.5899,2.5601,2.4935,0.0,0.0,0.0,0.0,0.0,0.0,0.0,0.0,0.0,0.0,0.0,0.0,0.0,0.0,0.0,0.0,0.0,0.0,0.0,0.0,0.0,0.0,0.0,0.0,0.0,0.0,0.0,0.0,0.0,0.0,0.0,0.0,0.0,0.0,0.0,0.0,0.0,0.0,0.0,0.0,0.0,0.0,0.0,0.0,0.0,0.0,0.0,0.0,0.0,0.0,0.0,0.0,0.0,0.0,0.0,0.0,0.0,0.0,0.0,0.0,0.0,0.0,0.0,0.0,0.0,0.0,0.0,0.0,0.0,0.0,0.0,0.0,0.0,0.0,0.0,0.0,0.0,0.0,0.0,0.0,0.0,0.0,0.0,0.0,0.0,0.0,0.0,0.0,0.0,0.0,0.0,0.0,0.0,0.0,0.0,0.0,0.0,0.0,0.0,0.0,0.0,0.0,0.0,2.4535,2.5341,2.6672,2.7224,2.7397,2.7026,2.6652,2.5996,2.4904,2.4624,0.0,0.0,0.0,0.0,0.0,0.0,0.0,0.0,0.0,0.0,0.0,0.0,0.0,0.0,0.0,0.0,0.0,0.0,0.0,0.0,0.0,0.0,0.0,0.0,0.0,0.0,0.0,0.0,0.0,0.0,0.0,0.0,0.0,0.0,0.0,0.0,0.0,0.0,0.0,0.0,0.0,0.0,0.0,0.0,0.0,0.0,0.0,0.0,0.0,0.0,0.0,0.0,0.0,0.0,0.0,0.0,0.0,0.0,0.0,0.0,0.0,0.0,0.0,0.0,0.0,0.0,0.0,0.0,0.0,0.0,0.0,0.0,0.0,0.0,0.0,0.0,0.0,0.0,0.0,0.0,0.0,0.0,0.0,0.0,0.0,0.0,0.0,0.0,0.0,0.0,0.0,0.0,0.0,0.0,0.0,0.0,0.0,0.0,0.0,0.0,0.0,0.0,2.5805,2.6787,2.8255,2.8173,2.7982,2.7982,2.7484,2.6534,2.4975,2.4498,0.0,0.0,0.0,0.0,0.0,0.0,0.0,0.0,0.0,0.0,0.0,0.0,0.0,0.0,0.0,0.0,0.0,0.0,0.0,0.0,0.0,0.0,0.0,0.0,0.0,0.0,0.0,0.0,0.0,0.0,0.0,0.0,0.0,0.0,0.0,0.0,0.0,0.0,0.0,0.0,0.0,0.0,0.0,0.0,0.0,0.0,0.0,0.0,0.0,0.0,0.0,0.0,0.0,0.0,0.0,0.0,0.0,0.0,0.0,0.0,0.0,0.0,0.0,0.0,0.0,0.0,0.0,0.0,0.0,0.0,0.0,0.0,0.0,0.0,0.0,0.0,0.0,0.0,0.0,0.0,0.0,0.0,0.0,0.0,0.0,0.0,0.0,0.0,0.0,0.0,0.0,0.0,0.0,0.0,0.0,0.0,0.0,0.0,0.0,0.0,0.0,0.0,2.6335,2.767,2.8172,2.9115,2.9297,2.8265,2.7751,2.6804,2.5273,2.4341,0.0,0.0,0.0,0.0,0.0,0.0,0.0,0.0,0.0,0.0,0.0,0.0,0.0,0.0,0.0,0.0,0.0,0.0,0.0,0.0,0.0,0.0,0.0,0.0,0.0,0.0,0.0,0.0,0.0,0.0,0.0,0.0,0.0,0.0,0.0,0.0,0.0,0.0,0.0,0.0,0.0,0.0,0.0,0.0,0.0,0.0,0.0,0.0,0.0,0.0,0.0,0.0,0.0,0.0,0.0,0.0,0.0,0.0,0.0,0.0,0.0,0.0,0.0,0.0,0.0,0.0,0.0,0.0,0.0,0.0,0.0,0.0,0.0,0.0,0.0,0.0,0.0,0.0,0.0,0.0,0.0,0.0,0.0,0.0,0.0,0.0,0.0,0.0,0.0,0.0,0.0,0.0,0.0,0.0,0.0,0.0,0.0,0.0,0.0,0.0,0.0,0.0,2.603,2.7349,0.0,2.8836,2.8927,2.8486,2.7942,2.6843,2.5002,0.0,0.0,0.0,0.0,0.0,0.0,0.0,0.0,0.0,0.0,0.0,0.0,0.0,0.0,0.0,0.0,0.0,0.0,0.0,0.0,0.0,0.0,0.0,0.0,0.0,0.0,0.0,0.0,0.0,0.0,0.0,0.0,0.0,0.0,0.0,0.0,0.0,0.0,0.0,0.0,0.0,0.0,0.0,0.0,0.0,0.0,0.0,0.0,0.0,0.0,0.0,0.0,0.0,0.0,0.0,0.0,0.0,0.0,0.0,0.0,0.0,0.0,0.0,0.0,0.0,0.0,0.0,0.0,0.0,0.0,0.0,0.0,0.0,0.0,0.0,0.0,0.0,0.0,0.0,0.0,0.0,0.0,0.0,0.0,0.0,0.0,0.0,0.0,0.0,0.0,0.0,0.0,0.0,0.0,0.0,0.0,0.0,0.0,0.0,0.0,0.0,0.0,2.471,2.6321,2.772,0.0,2.889,2.8991,2.8898,2.8337,2.7169,2.5238,0.0,0.0,0.0,0.0,0.0,0.0,0.0,0.0,0.0,0.0,0.0,0.0,0.0,0.0,0.0,0.0,0.0,0.0,0.0,0.0,0.0,0.0,0.0,0.0,0.0,0.0,0.0,0.0,0.0,0.0,0.0,0.0,0.0,0.0,0.0,0.0,0.0,0.0,0.0,0.0,0.0,0.0,0.0,0.0,0.0,0.0,0.0,0.0,0.0,0.0,0.0,0.0,0.0,0.0,0.0,0.0,0.0,0.0,0.0,0.0,0.0,0.0,0.0,0.0,0.0,0.0,0.0,0.0,0.0,0.0,0.0,0.0,0.0,0.0,0.0,0.0,0.0,0.0,0.0,0.0,0.0,0.0,0.0,0.0,0.0,0.0,0.0,0.0,0.0,0.0,0.0,0.0,0.0,0.0,0.0,0.0,0.0,0.0,0.0,0.0,0.0,0.0,2.5069,2.7368,2.8988,2.9001,2.9544,2.9793,2.9535,2.8951,2.7847,0.0,0.0,0.0,0.0,0.0,0.0,0.0,0.0,0.0,0.0,0.0,0.0,0.0,0.0,0.0,0.0,0.0,0.0,0.0,0.0,0.0,0.0,0.0,0.0,0.0,0.0,0.0,0.0,0.0,0.0,0.0,0.0,0.0,0.0,0.0,0.0,0.0,0.0,0.0,0.0,0.0,0.0,0.0,0.0,0.0,0.0,0.0,0.0,0.0,0.0,0.0,0.0,0.0,0.0,0.0,0.0,0.0,0.0,0.0,0.0,0.0,0.0,0.0,0.0,0.0,0.0,0.0,0.0,0.0,0.0,0.0,0.0,0.0,0.0,0.0,0.0,0.0,0.0,0.0,0.0,0.0,0.0,0.0,0.0,0.0,0.0,0.0,0.0,0.0,0.0,0.0,0.0,0.0,0.0,0.0,0.0,0.0,0.0,0.0,0.0,0.0,0.0,0.0,2.5291,2.7168,2.8666,2.9285,2.9664,2.9793,2.9535,2.9347,2.832,2.6147,0.0,0.0,0.0,0.0,0.0,0.0,0.0,0.0,0.0,0.0,0.0,0.0,0.0,0.0,0.0,0.0,0.0,0.0,0.0,0.0,0.0,0.0,0.0,0.0,0.0,0.0,0.0,0.0,0.0,0.0,0.0,0.0,0.0,0.0,0.0,0.0,0.0,0.0,0.0,0.0,0.0,0.0,0.0,0.0,0.0,0.0,0.0,0.0,0.0,0.0,0.0,0.0,0.0,0.0,0.0,0.0,0.0,0.0,0.0,0.0,0.0,0.0,0.0,0.0,0.0,0.0,0.0,0.0,0.0,0.0,0.0,0.0,0.0,0.0,0.0,0.0,0.0,0.0,0.0,0.0,0.0,0.0,0.0,0.0,0.0,0.0,0.0,0.0,0.0,0.0,0.0,0.0,0.0,0.0,0.0,0.0,0.0,0.0,0.0,0.0,0.0,0.0,2.5939,2.7903,2.941,2.9815,3.01,3.0194,3.002,2.9793,2.8866,2.7008,0.0,0.0,0.0,0.0,0.0,0.0,0.0,0.0,0.0,0.0,0.0,0.0,0.0,0.0,0.0,0.0,0.0,0.0,0.0,0.0,0.0,0.0,0.0,0.0,0.0,0.0,0.0,0.0,0.0,0.0,0.0,0.0,0.0,0.0,0.0,0.0,0.0,0.0,0.0,0.0,0.0,0.0,0.0,0.0,0.0,0.0,0.0,0.0,0.0,0.0,0.0,0.0,0.0,0.0,0.0,0.0,0.0,0.0,0.0,0.0,0.0,0.0,0.0,0.0,0.0,0.0,0.0,0.0,0.0,0.0,0.0,0.0,0.0,0.0,0.0,0.0,0.0,0.0,0.0,0.0,0.0,0.0,0.0,0.0,0.0,0.0,0.0,0.0,0.0,0.0,0.0,0.0,0.0,0.0,0.0,0.0,0.0,0.0,0.0,0.0,0.0,0.0,2.6794,2.9112,3.0635,3.0467,3.0684,3.0822,3.0795,3.0301,2.9486,2.8339,0.0,0.0,0.0,0.0,0.0,0.0,0.0,0.0,0.0,0.0,0.0,0.0,0.0,0.0,0.0,0.0,0.0,0.0,0.0,0.0,0.0,0.0,0.0,0.0,0.0,0.0,0.0,0.0,0.0,0.0,0.0,0.0,0.0,0.0,0.0,0.0,0.0,0.0,0.0,0.0,0.0,0.0,0.0,0.0,0.0,0.0,0.0,0.0,0.0,0.0,0.0,0.0,0.0,0.0,0.0,0.0,0.0,0.0,0.0,0.0,2.8489,2.6937,0.0,0.0,0.0,0.0,0.0,0.0,0.0,0.0,0.0,0.0,0.0,0.0,0.0,0.0,0.0,0.0,0.0,0.0,0.0,0.0,0.0,0.0,0.0,0.0,0.0,0.0,0.0,0.0,0.0,0.0,0.0,0.0,0.0,0.0,0.0,0.0,0.0,0.0,0.0,0.0,2.7101,2.8885,3.0261,3.0662,3.0955,3.1036,3.0808,3.0675,3.01,2.8903,2.8077,0.0,0.0,0.0,0.0,0.0,0.0,0.0,0.0,0.0,0.0,0.0,0.0,0.0,0.0,0.0,0.0,0.0,0.0,0.0,0.0,0.0,0.0,0.0,0.0,0.0,0.0,0.0,0.0,0.0,0.0,0.0,0.0,0.0,0.0,0.0,0.0,0.0,0.0,0.0,0.0,0.0,0.0,0.0,0.0,0.0,0.0,0.0,0.0,0.0,0.0,0.0,0.0,0.0,0.0,0.0,0.0,0.0,0.0,0.0,3.0765,2.9379,0.0,0.0,0.0,0.0,0.0,0.0,0.0,0.0,0.0,0.0,0.0,0.0,0.0,0.0,0.0,0.0,0.0,0.0,0.0,0.0,0.0,0.0,0.0,0.0,0.0,0.0,0.0,0.0,0.0,0.0,0.0,0.0,0.0,0.0,0.0,0.0,0.0,0.0,0.0,0.0,2.767,2.9508,3.0875,3.1206,3.1356,3.1436,3.1423,3.1169,3.0675,2.9904,2.8925,0.0,0.0,0.0,0.0,0.0,0.0,0.0,0.0,0.0,0.0,0.0,0.0,0.0,0.0,0.0,0.0,0.0,0.0,0.0,0.0,0.0,0.0,0.0,0.0,0.0,0.0,0.0,0.0,0.0,0.0,0.0,0.0,0.0,0.0,0.0,0.0,0.0,0.0,0.0,0.0,0.0,0.0,0.0,0.0,0.0,0.0,0.0,0.0,0.0,0.0,0.0,0.0,0.0,3.3242,3.3611,3.3715,3.396,3.4765,3.5833,3.3462,3.2447,3.2295,3.0258,0.0,0.0,0.0,0.0,0.0,0.0,0.0,0.0,0.0,0.0,0.0,0.0,0.0,0.0,0.0,0.0,0.0,0.0,0.0,0.0,0.0,0.0,2.6562,2.6029,2.626,2.6285,2.5191,0.0,0.0,0.0,0.0,0.0,0.0,0.0,0.0,0.0,0.0,0.0,2.841,3.0267,3.1634,3.1687,3.1781,3.1928,3.2091,3.1546,3.1106,3.0889,2.9633,2.8732,0.0,0.0,0.0,0.0,0.0,0.0,0.0,0.0,0.0,0.0,0.0,0.0,0.0,0.0,0.0,0.0,0.0,0.0,0.0,0.0,0.0,0.0,0.0,0.0,0.0,0.0,0.0,0.0,0.0,0.0,0.0,0.0,2.7451,2.8538,0.0,0.0,0.0,0.0,0.0,0.0,0.0,0.0,0.0,0.0,0.0,0.0,0.0,3.1878,3.2242,3.3921,3.4941,3.5313,3.6998,3.82,3.8896,3.8546,3.8881,3.9726,3.8905,0.0,3.3463,3.2984,0.0,0.0,0.0,0.0,0.0,0.0,0.0,0.0,0.0,0.0,0.0,0.0,0.0,0.0,0.0,0.0,0.0,0.0,0.0,0.0,0.0,0.0,2.7466,2.7149,2.7618,2.8093,2.8023,2.6817,2.5495,2.4606,2.4793,0.0,0.0,0.0,0.0,0.0,0.0,0.0,2.9209,3.0429,3.1383,3.166,3.2179,3.2393,3.2118,3.1546,3.1186,3.1146,3.0537,2.9668,2.8591,2.9027,0.0,0.0,0.0,0.0,0.0,0.0,0.0,0.0,0.0,0.0,0.0,0.0,0.0,0.0,0.0,0.0,0.0,0.0,0.0,0.0,0.0,0.0,0.0,0.0,0.0,0.0,0.0,0.0,0.0,2.6929,2.8586,2.9866,2.9934,2.9851,0.0,0.0,0.0,0.0,0.0,0.0,0.0,0.0,0.0,3.3786,3.4722,3.5503,3.6103,3.7027,3.7715,3.8114,3.9159,3.9742,3.9911,3.9925,4.0017,4.015,3.9923,3.8666,3.6708,3.5446,3.411,3.2793,0.0,0.0,0.0,0.0,3.1792,3.107,3.107,3.0459,2.9687,2.9807,0.0,0.0,0.0,0.0,0.0,0.0,0.0,2.798,2.7937,2.8263,2.8548,2.8322,2.8489,2.8759,2.8807,2.8276,2.7513,2.653,2.6646,2.6726,2.6157,0.0,0.0,0.0,0.0,2.97,2.9474,3.077,3.177,3.1904,3.234,3.2541,3.2382,3.1957,3.1546,3.1226,3.0835,3.039,2.986,2.9766,2.9005,0.0,0.0,0.0,0.0,0.0,0.0,0.0,0.0,0.0,0.0,0.0,0.0,0.0,0.0,0.0,0.0,0.0,0.0,0.0,0.0,0.0,0.0,0.0,0.0,0.0,0.0,0.0,0.0,2.9356,3.0692,3.192,3.2234,3.231,0.0,0.0,0.0,0.0,0.0,0.0,3.4342,3.6077,3.7035,3.6961,3.8065,3.8971,3.9555,3.966,3.9938,4.0386,4.068,4.0773,4.0701,4.0995,4.0907,4.0497,4.0405,4.0109,3.9532,3.7676,3.6401,3.5541,3.468,3.4349,3.4366,3.4532,3.4219,3.3737,3.3841,3.3481,3.2964,3.3063,3.2672,3.2077,3.165,0.0,0.0,0.0,0.0,2.9529,2.9627,2.9537,2.942,2.9261,2.9357,2.9596,3.0112,2.9981,2.9442,2.8257,2.8297,2.8358,2.7762,0.0,0.0,0.0,0.0,3.042,2.9871,3.1095,3.1957,3.1891,3.2235,3.2474,3.2474,3.2091,3.1693,3.1356,3.0996,3.0795,3.0795,3.0301,2.9686,2.8951,0.0,0.0,0.0,0.0,0.0,0.0,0.0,0.0,0.0,0.0,0.0,0.0,0.0,0.0,0.0,0.0,0.0,0.0,0.0,0.0,0.0,0.0,0.0,0.0,0.0,0.0,0.0,0.0,0.0,3.565,3.6521,0.0,0.0,0.0,0.0,3.8858,3.6897,3.6699,3.9291,3.9071,3.933,4.032,4.0794,4.1041,4.1098,4.1095,4.1302,4.17,4.1718,4.2114,4.2829,4.2888,4.2627,4.2164,4.1779,4.1375,4.0898,3.9587,3.8778,3.8417,3.8695,3.8553,3.8311,3.8992,3.7856,3.5995,3.6387,3.5234,3.3696,3.4029,3.3206,3.1813,3.0216,3.0915,0.0,0.0,3.2053,3.1924,3.1928,3.0923,2.9878,2.986,3.0301,3.1216,3.3046,3.2213,3.0666,2.9216,2.9355,2.9539,2.9004,0.0,3.0475,3.022,3.0733,3.1023,3.0681,3.1275,3.1607,3.1279,3.1784,3.2131,3.2131,3.1573,3.1383,3.166,3.1116,3.0795,3.0795,3.0524,3.0203,2.9838,2.8983,0.0,0.0,0.0,0.0,0.0,0.0,0.0,0.0,0.0,0.0,0.0,0.0,0.0,0.0,0.0,0.0,0.0,0.0,0.0,0.0,0.0,0.0,0.0,0.0,0.0,0.0,0.0,0.0,3.699,3.8411,0.0,3.9243,3.9271,3.9735,4.0833,4.0425,4.0781,4.2285,4.1656,4.167,4.2581,4.2776,4.2853,4.2812,4.3415,4.3628,4.3491,4.3783,4.4073,4.4321,4.3745,4.335,4.316,4.2405,4.1999,4.1834,4.1372,4.0306,3.9006,3.9119,3.909,3.898,3.9256,3.9009,3.8569,3.8715,3.8255,3.7646,3.7825,3.7526,3.6782,3.5015,3.5134,3.5676,3.478,3.4435,3.4158,3.3347,3.3635,3.3844,3.2635,3.3633,3.5,3.5534,3.4135,3.3036,3.3805,3.2199,3.064,3.0442,3.0599,3.0786,3.087,3.1053,3.1152,3.1043,3.1571,3.1904,3.1773,3.2169,3.2262,3.1888,3.1797,3.1597,3.1166,3.1089,3.1076,3.1076,3.0795,3.0675,3.0732,3.0425,2.9697,0.0,0.0,0.0,0.0,0.0,0.0,0.0,0.0,0.0,0.0,0.0,0.0,0.0,0.0,0.0,0.0,0.0,0.0,0.0,0.0,0.0,0.0,0.0,0.0,0.0,3.5187,3.7177,3.8305,4.0102,4.1203,4.112,4.1798,4.2456,4.3017,4.3002,4.3329,4.4167,4.3526,4.3504,4.4362,4.4562,4.472,4.4857,4.5451,4.571,4.5509,4.5827,4.5986,4.5944,4.5188,4.4504,4.3913,4.3598,4.3012,4.2336,4.2806,4.1817,4.0049,4.0196,4.0159,4.0049,4.0217,4.0366,4.0533,4.0662,4.0678,4.0553,3.997,3.9763,3.9428,3.7598,3.7661,3.8173,3.7242,3.6861,3.6562,3.5832,3.6085,3.6229,3.5129,3.6041,3.7312,3.7702,3.6393,3.5694,3.7442,3.4673,3.2153,3.2475,3.2404,3.2213,3.2045,3.2009,3.1987,3.19,3.2118,3.2232,3.2138,3.2132,3.2008,3.1714,3.1972,3.1884,3.1273,3.1432,3.1496,3.137,3.1226,3.1157,3.1206,3.1313,3.0887,2.9915,0.0,0.0,0.0,0.0,0.0,0.0,0.0,0.0,0.0,0.0,0.0,0.0,0.0,0.0,0.0,0.0,0.0,0.0,0.0,0.0,0.0,0.0,0.0,3.6991,3.8841,4.0153,3.9903,4.1804,4.2991,4.2646,4.2982,4.3937,4.5586,4.454,4.4184,4.5046,4.4703,4.4858,4.5691,4.6196,4.666,4.7105,4.7165,4.7386,4.7768,4.7768,4.7768,4.7748,4.7324,4.6172,4.4537,4.5357,4.4473,4.2532,4.383,4.3372,4.1861,4.2167,4.2054,4.176,4.2146,4.2054,4.1779,4.2167,4.2314,4.201,4.0171,3.9583,3.9253,3.742,3.813,3.9583,3.9583,3.9303,3.9075,3.9409,3.8086,3.6763,3.7107,3.7406,3.8046,3.9688,3.9077,3.8565,3.9805,3.6745,3.4237,3.5143,3.5301,3.4955,3.3933,3.3705,0.0,3.3297,3.2856,3.2501,3.2245,3.1643,3.138,3.1687,3.2051,3.2194,3.2086,3.2155,3.2038,3.1708,3.1757,3.164,3.1257,3.1547,3.1698,3.1661,0.0,0.0,0.0,0.0,0.0,0.0,0.0,0.0,0.0,0.0,0.0,0.0,0.0,0.0,0.0,0.0,0.0,0.0,0.0,0.0,0.0,3.885,4.03,3.9844,4.0647,4.1834,4.3355,4.383,4.4258,4.4771,4.5493,4.5984,4.6121,4.6414,4.6699,4.6948,4.6209,4.5902,4.6147,4.6927,4.7236,4.703,4.8674,4.9415,4.9209,4.9209,4.9209,4.9167,4.8047,4.7273,4.6774,4.6323,4.577,4.5241,4.559,4.5479,4.482,4.2703,4.1815,4.1702,4.1812,4.198,4.2195,4.2657,4.2573,4.2206,4.1688,4.1536,4.1394,4.0569,4.0889,4.1536,4.1536,4.1247,4.074,3.9979,4.0248,4.05,3.9757,4.0712,4.2113,4.3166,4.1737,4.0909,4.2979,4.1287,3.9046,3.761,3.7417,3.7419,3.7383,3.5865,3.4815,3.4994,3.3387,3.2367,3.2743,3.2435,3.2257,3.2335,3.2659,3.2553,3.1842,3.2019,3.1884,3.1356,3.1776,3.2175,3.2502,3.2117,3.1626,0.0,0.0,0.0,0.0,0.0,0.0,0.0,0.0,0.0,0.0,0.0,0.0,0.0,0.0,0.0,0.0,0.0,0.0,0.0,0.0,0.0,0.0,4.061,4.2329,4.2847,4.3173,4.3775,4.486,4.5102,4.5329,4.5666,4.6492,4.6968,4.6886,4.7568,4.8086,4.8273,4.7962,4.7486,4.6906,4.8148,4.8438,4.7589,4.9451,5.028,5.0054,5.0054,5.0054,5.0011,4.9036,4.847,4.8285,4.8107,4.7588,4.6941,4.7496,4.7275,4.6338,0.0,0.0,0.0,0.0,4.2109,4.2342,4.2619,4.2521,4.2292,4.2292,4.2531,4.2769,4.2509,4.2863,4.3335,4.3335,4.3076,4.266,4.2098,4.2521,4.2945,4.2396,4.3018,4.3866,4.4347,4.3502,4.3004,4.4206,4.3954,0.0,4.1443,4.0592,4.0031,3.964,3.8392,3.7561,3.7765,3.634,3.5524,3.6049,3.5714,3.5463,3.5459,3.4946,0.0,0.0,0.0,3.3459,3.321,3.2626,0.0,0.0,0.0,3.2333,3.1715,3.1545,0.0,0.0,2.9358,2.8821,0.0,0.0,0.0,0.0,0.0,0.0,0.0,0.0,0.0,0.0,0.0,0.0,0.0,0.0,0.0,0.0,4.2085,4.3865,4.5519,4.587,4.5705,4.5166,4.5851,4.6224,4.5871,4.6596,4.7258,4.7672,4.819,4.8645,4.9081,4.9454,0.0,0.0,0.0,4.968,4.848,4.9866,5.0548,5.0548,5.0506,5.0465,5.0465,5.0054,4.9639,4.9287,5.0073,4.949,4.8098,4.929,4.8735,4.6991,4.5209,4.457,4.4464,4.3329,4.2824,4.2764,4.2796,0.0,0.0,4.2568,4.3063,4.3628,4.3573,4.4093,4.4718,4.4718,4.4475,4.4273,4.4636,4.4454,4.4275,4.4603,4.4421,4.4201,4.4292,4.4588,4.4756,4.4396,4.5202,4.5868,4.5509,4.4116,4.2663,4.1468,4.1097,4.0943,4.0943,4.0218,3.9901,4.0321,3.9799,0.0,3.9532,3.8134,3.7703,3.8727,3.6978,3.6044,3.6358,3.4126,3.3452,3.4609,3.3862,3.3399,3.3355,3.3076,3.2828,3.2541,3.0203,2.9633,0.0,0.0,0.0,0.0,0.0,0.0,0.0,0.0,0.0,0.0,0.0,0.0,0.0,0.0,0.0,4.2766,4.4465,4.5769,4.6121,4.6844,4.6885,4.5705,4.6327,4.6824,4.6761,4.7258,4.7589,4.7693,4.848,4.8997,4.9102,4.8832,4.8542,4.8273,4.8977,4.9225,4.8977,5.0653,5.1522,5.1522,5.115,0.0,5.0963,5.0508,5.0217,5.0177,5.032,5.0212,4.9914,5.0159,4.9427,4.8,4.6501,4.6128,4.6491,4.6607,4.6135,4.549,4.5884,4.5222,4.4237,4.4237,4.4329,4.4402,4.409,4.4093,0.0,4.4228,4.3956,4.3748,4.4125,4.4173,4.422,4.4613,4.4641,4.4769,4.5412,4.5362,4.5266,4.5508,4.5749,4.5985,4.6224,4.5706,4.5189,4.4935,4.3474,4.2395,4.2395,4.0587,3.9532,4.0108,3.991,3.9916,4.04,4.019,4.0027,4.0035,3.8624,3.8015,3.8553,3.6028,3.5866,3.8564,3.4979,3.389,3.5493,3.3595,3.2657,3.2581,3.2289,3.2155,0.0,0.0,0.0,0.0,0.0,0.0,0.0,0.0,0.0,0.0,0.0,4.0199,4.0199,0.0,4.2658,4.378,4.4713,4.5706,4.6844,4.7196,4.7092,4.643,4.6927,4.7341,4.7341,4.7775,4.8148,4.8376,4.9039,4.9536,4.9721,4.9742,4.9453,4.877,4.9867,5.0012,4.9122,5.0653,5.1336,5.1108,5.0858,5.0734,5.0734,5.0506,5.0527,5.0734,5.0734,5.0879,5.1065,5.086,5.0367,4.9658,4.8726,4.768,4.6716,4.6959,4.6738,4.6317,4.6569,4.6163,4.5466,4.5014,4.5114,4.5322,4.4617,4.4698,4.5061,4.5061,4.4928,4.4949,4.5618,4.5985,4.6193,4.6308,4.6532,4.6653,4.6534,4.6342,4.6324,4.6709,4.68,4.6929,4.7338,4.7222,4.6947,4.6562,4.561,4.4944,4.4944,4.3711,4.3053,4.3563,4.3515,4.3566,4.3893,4.3554,4.2674,4.114,4.0389,4.0193,4.0684,3.841,3.7525,3.8331,3.6146,3.5067,3.521,3.402,3.3452,3.3465,3.3587,3.3278,0.0,0.0,0.0,0.0,0.0,0.0,0.0,3.8982,3.9937,4.0123,4.1358,4.2288,4.1998,4.2578,4.3489,4.4753,4.496,4.5582,4.732,4.7403,4.7237,4.7155,4.7547,4.7838,4.7838,4.8252,4.8687,4.906,4.9537,4.9971,5.0382,5.0755,5.0508,4.9515,5.0901,5.0963,4.9494,5.0653,5.1067,5.0672,5.0672,5.0672,5.0672,5.0672,5.0879,5.1253,5.1253,5.146,5.1791,5.1501,5.1377,5.1357,5.1067,4.9623,4.7698,4.7419,4.7269,4.7152,4.7152,4.702,4.6733,4.598,4.6228,4.6698,4.5874,4.6182,4.6766,4.6579,4.6624,4.6882,4.7648,4.8014,4.8308,4.8623,4.8824,4.871,4.7841,4.7647,4.7667,4.7803,4.7809,4.7937,4.8366,4.8439,4.8157,4.7442,4.7332,4.7332,4.7332,4.7039,4.6965,4.7295,4.7332,4.7332,4.7332,4.68,4.544,4.3022,4.2806,4.2864,4.3147,4.1066,3.9602,3.898,3.8089,3.6946,3.5538,3.5142,3.472,3.4296,3.4296,3.3774,3.4558,3.4102,3.4661,3.637,3.7442,3.8357,0.0,4.1858,4.3451,4.2685,4.3967,4.5333,4.5624,4.5769,4.6182,4.7154,4.732,4.7258,4.7088,4.7751,4.8083,4.7682,4.804,4.8314,4.8314,4.8749,4.9039,4.9102,4.9537,4.9971,5.0382,5.0444,5.0589,5.088,5.1087,5.1087,5.088,5.1439,5.1708,5.1646,5.1646,5.1646,5.1646,5.1646,5.1667,5.1729,5.1729,5.175,5.1833,5.2185,5.2329,5.2371,5.2723,5.269,5.2302,5.1044,5.0258,4.9859,4.9859,4.9267,4.8509,4.8417,4.8725,4.9114,4.8998,4.932,4.9537,4.8657,4.8657,4.8957,4.9076,4.8691,4.8765,5.0731,5.0473,4.9736,4.9614,4.9589,4.9314,4.841,4.8212,4.8359,4.8763,4.8811,4.8689,4.8231,4.8182,4.8182,4.8182,4.8145,4.8127,4.8164,4.8182,4.8182,4.8182,4.8414,4.8132,4.7071,4.6707,4.65,4.6555,4.3877,4.3517,4.592,4.2005,3.996,3.9981,3.8136,3.6213,3.4296,3.4296,3.4108,3.6261,3.6453,3.7202,3.8792,4.0054,4.1234,4.2334,4.3467,4.44,4.4799,4.5527,4.6228,4.6638,4.6493,4.6513,4.7175,4.7051,4.7093,4.7731,4.8146,4.8437,4.8493,4.8223,4.8101,4.8376,4.8811,4.8998,4.8707,4.9392,4.9868,5.0054,5.0529,5.0901,5.1086,5.1355,5.1522,5.1522,5.1708,5.1791,5.1791,5.1791,5.1791,5.1791,5.1791,5.1957,5.2226,5.2518,5.2743,5.2989,5.3176,5.3424,5.3672,5.3879,5.3965,5.3817,5.2723,5.2181,5.198,5.198,5.1703,5.1304,5.0986,5.1041,5.1146,5.0833,5.0862,5.0946,5.0513,5.0528,5.0741,5.1302,5.1465,5.1679,5.2558,5.2609,5.2296,5.1704,5.1061,5.0534,5.0309,4.9779,4.9496,4.9874,4.9947,4.99,4.9735,4.9294,4.9001,4.9001,4.8781,4.8653,4.8653,4.8653,4.8653,4.8653,4.8793,4.8671,4.8109,4.7662,4.7442,4.7442,4.6054,4.5372,4.553,4.364,4.2226,4.1284,4.0396,3.952,3.8589,3.7343,3.6679,3.7504,3.8237,3.9171,4.0714,4.1936,4.3035,4.4215,4.4581,4.4998,4.6081,4.6434,4.6681,4.7113,4.6927,4.6845,4.732,4.7196,4.7318,4.8072,4.8279,4.8447,4.8652,4.8092,4.7787,4.7982,4.8309,4.8532,4.8577,4.9197,4.9714,4.9961,5.069,5.117,5.1294,5.1626,5.1915,5.2185,5.2185,5.2309,5.2534,5.2534,5.2495,5.2348,5.2348,5.2619,5.3075,5.3406,5.3714,5.4,5.4148,5.4396,5.4707,5.4831,5.4893,5.481,5.4172,5.3778,5.3551,5.3551,5.3551,5.3496,5.3121,5.307,5.311,5.2855,5.2876,5.2927,5.2634,5.2615,5.2821,5.339,5.3666,5.3913,5.4454,5.4623,5.4369,5.3347,5.2469,5.1808,5.1475,5.0781,5.0351,5.0644,5.0699,5.0699,5.0699,5.0186,4.9845,4.9845,4.9588,4.9379,4.9379,4.9379,4.9342,4.9232,4.9214,4.9074,4.8653,4.8359,4.8194,4.8194,4.7809,4.7036,4.5835,4.5698,4.4749,4.2939,4.2939,4.2583,4.1871,4.0418,3.9691,3.7798,3.8485,3.9254,4.1107,4.1954,4.2783,4.4586,4.5333,4.5768,4.6224,4.6659,4.7134,4.7589,4.7672,4.7815,4.8276,4.8678,4.8615,4.7756,4.802,4.8122,4.7698,4.7685,4.754,4.7093,4.7062,4.7594,4.8898,4.9089,4.9479,5.0335,5.0842,5.1315,5.1771,5.1791,5.2226,5.316,5.316,5.3571,5.4414,5.4414,5.4166,5.3731,5.3731,5.398,5.4458,5.4435,5.4455,5.4497,5.4979,5.5169,5.5231,5.5686,5.5852,5.5852,5.5831,5.5248,5.4479,5.4479,5.4479,5.4455,5.4432,5.4745,5.5203,5.5634,5.6089,5.6219,5.5182,5.518,5.5397,5.5029,5.4452,5.451,5.6603,5.6297,5.5259,5.42,5.3945,5.3281,5.113,5.0706,5.068,5.0699,5.0699,5.0699,5.0699,5.068,5.0662,5.0662,5.0644,5.0644,5.0644,5.0644,5.0479,5.0094,5.0076,4.9892,4.9496,4.9459,4.9441,4.9441,4.9074,4.8987,4.934,4.8974,4.7877,4.6063,4.6063,4.4776,4.2392,4.27,4.2658,3.798,3.9409,4.0944,4.2166,4.3284,4.4401,4.5603,4.5775,4.59,4.6638,4.5963,4.5576,4.6597,4.6086,4.5841,4.684,4.7168,4.7364,4.7628,4.7808,4.7947,4.8117,4.7634,4.7705,4.8768,4.8575,4.8447,4.8575,4.9751,5.0555,5.0842,5.1308,5.1915,5.2702,5.2071,5.248,5.4045,5.3429,5.3593,5.4497,5.4497,5.4414,5.4293,5.4583,5.4813,5.4979,5.5289,5.56,5.5914,5.6059,5.6308,5.6552,5.6718,5.678,5.678,5.678,5.6548,5.6217,5.5641,5.5414,5.5476,5.5786,5.5997,5.6204,5.6635,5.6883,5.6933,5.6563,5.6562,5.6644,5.648,5.6291,5.6313,5.7015,5.6935,5.6539,5.6187,5.5557,5.462,5.3166,5.2318,5.1589,5.081,5.0699,5.0699,5.0699,5.0699,5.0699,5.0699,5.0699,5.0699,5.0699,5.0699,5.0644,5.0516,5.0497,5.0442,5.0296,5.0039,4.9892,4.9892,4.9507,4.9368,4.9496,4.9368,4.8995,4.8383,4.8652,4.8346,4.7483,4.6145,4.5425,3.9161,4.0838,4.2495,4.3221,4.4339,4.5395,4.5954,4.59,4.5963,4.6824,4.5984,4.5373,4.6393,4.5637,4.5291,4.6589,4.6835,4.7177,4.8025,4.8158,4.8214,4.8331,4.7883,4.8014,4.9204,4.9445,4.9275,4.8657,4.9709,5.0424,5.0551,5.1196,5.1963,5.2851,5.2605,5.3168,5.4687,5.4303,5.4564,5.5472,5.5113,5.5134,5.5472,5.5621,5.5604,5.5479,5.6121,5.637,5.637,5.6701,5.6966,5.721,5.721,5.721,5.721,5.721,5.721,5.7107,5.6552,5.6366,5.6407,5.6722,5.6801,5.6883,5.7314,5.7438,5.7438,5.7438,5.7438,5.7417,5.7252,5.721,5.721,5.721,5.721,5.7085,5.671,5.6229,5.5479,5.4253,5.3583,5.2927,5.2021,5.1873,5.1744,5.1381,5.1304,5.1148,5.0751,5.0809,5.0845,5.0717,5.0699,5.0699,5.0699,5.0699,5.0699,5.0699,5.0461,5.0314,5.0314,5.0468,5.0606,5.0754,5.0606,5.081,5.1368,5.1064,5.1045,5.1247,4.9961,4.9182,4.1128,4.26,4.3721,4.4256,4.5023,4.5685,4.5747,4.5756,4.6004,4.6762,4.6578,4.6392,4.6884,4.6188,4.5983,4.7407,4.7605,4.7906,4.8743,4.8949,4.8823,4.8323,4.8391,4.8483,4.8498,4.9609,4.9973,4.9119,4.9166,4.9376,4.9688,5.065,5.156,5.2376,5.3313,5.4279,5.5197,5.5732,5.6387,5.719,5.6304,5.6349,5.719,5.6801,5.639,5.6018,5.6842,5.6738,5.6038,5.6863,5.721,5.721,5.721,5.721,5.721,5.721,5.721,5.721,5.721,5.721,5.721,5.721,5.721,5.7293,5.7728,5.7852,5.7852,5.7852,5.7852,5.7748,5.7314,5.721,5.721,5.721,5.721,5.6935,5.5905,5.6046,5.5902,5.4369,5.4393,5.4524,5.4088,5.401,5.3652,5.2691,5.2556,5.2117,5.0855,5.101,5.1102,5.0735,5.0699,5.0699,5.0699,5.0699,5.0699,5.0699,5.0699,5.0699,5.0699,5.1744,5.2508,5.286,5.2527,5.305,5.4583,5.312,5.2789,5.3463,5.3853,5.3574,4.1809,4.2851,4.3892,4.5047,4.526,4.5449,4.6432,4.6659,4.6536,4.612,4.5653,4.5348,4.5448,4.4241,4.3996,4.6266,4.641,4.6384,4.6907,4.819,4.8745,4.7874,4.8722,4.9486,4.979,5.0378,5.0532,5.001,5.0575,5.0993,5.1095,5.2046,5.2973,5.3853,5.409,5.5036,5.6639,5.6809,5.6983,5.721,5.6961,5.6961,5.719,5.7086,5.6962,5.6879,5.7107,5.7065,5.6904,5.7107,5.721,5.721,5.721,5.721,5.721,5.721,5.721,5.721,5.721,5.721,5.721,5.721,5.721,5.7231,5.7334,5.7376,5.7376,5.7376,5.7376,5.7355,5.7231,5.721,5.721,5.721,5.721,5.7135,5.686,5.6892,5.6607,5.5421,5.4643,5.4147,5.4029,5.401,5.4025,5.4105,5.4384,5.3618,5.1033,5.0772,5.0809,5.0699,5.0699,5.0699,5.0699,5.0699,5.0699,5.0699,5.0699,5.0699,5.0699,5.0966,5.1178,5.127,5.1178,5.1748,5.2986,5.2878,5.3357,5.4297,5.4394,5.416,4.2461,4.3546,4.4609,4.5042,4.5512,4.592,4.606,4.6268,4.6227,4.551,4.513,4.5013,4.5175,4.4262,4.4304,4.6779,4.6844,4.6801,4.7398,4.8601,4.9111,4.8309,4.9091,4.9922,5.0518,5.1155,5.1417,5.1176,5.1281,5.1405,5.1578,5.2588,5.3617,5.4621,5.5127,5.5967,5.719,5.6985,5.6985,5.721,5.696,5.6985,5.721,5.721,5.6983,5.6656,5.7024,5.6983,5.6656,5.7045,5.721,5.721,5.721,5.721,5.721,5.721,5.721,5.721,5.721,5.721,5.721,5.721,5.721,5.721,5.721,5.721,5.721,5.721,5.721,5.721,5.721,5.721,5.7252,5.7459,5.7355,5.7252,5.7459,5.75,5.7324,5.672,5.5951,5.5406,5.5406,5.5406,5.5414,5.5393,5.5593,5.4954,5.2737,5.2174,5.1824,5.1496,5.0992,5.0888,5.1407,5.1459,5.164,5.2131,5.1718,5.1459,5.1459,5.1899,5.2232,5.2447,5.2741,5.3493,5.4821,5.4361,5.4689,5.5741,5.5741,5.5526,4.3127,4.4352,4.5446,4.4765,4.5759,4.6618,4.5442,4.551,4.5653,4.5181,4.4983,4.5082,4.566,4.5335,4.5734,4.8035,4.7998,4.7959,4.8728,4.9483,4.9734,4.9066,4.9573,5.0245,5.0925,5.1664,5.219,5.237,5.1677,5.1446,5.1862,5.2942,5.4088,5.5254,5.6185,5.6867,5.719,5.6735,5.6735,5.719,5.6735,5.676,5.721,5.721,5.6801,5.6121,5.6859,5.678,5.6142,5.6904,5.721,5.721,5.721,5.721,5.721,5.721,5.721,5.721,5.721,5.721,5.721,5.721,5.721,5.721,5.721,5.721,5.721,5.721,5.721,5.721,5.721,5.721,5.7293,5.7707,5.75,5.7314,5.7707,5.7698,5.7652,5.779,5.7388,5.7053,5.719,5.721,5.705,5.6669,5.6623,5.627,5.5346,5.4375,5.3451,5.2678,5.1744,5.1537,5.2524,5.2473,5.2858,5.3933,5.2987,5.2473,5.2601,5.3499,5.4186,5.4602,5.5124,5.6113,5.7608,5.6239,5.6157,5.721,5.721,5.7028,4.3968,4.4577,4.5187,4.5413,4.6004,4.6536,4.668,4.6434,4.6182,4.6076,4.5445,4.5273,4.6469,4.5975,4.6158,4.8505,4.8207,4.7729,4.7838,4.9582,5.0392,4.9061,5.0346,5.1391,5.1467,5.1269,5.1583,5.2699,5.2653,5.2791,5.3314,5.463,5.5807,5.6791,5.6986,5.7128,5.721,5.711,5.711,5.721,5.711,5.711,5.721,5.721,5.7107,5.6983,5.7128,5.7107,5.6983,5.7128,5.721,5.721,5.721,5.721,5.721,5.721,5.721,5.721,5.721,5.721,5.721,5.721,5.721,5.721,5.721,5.721,5.721,5.721,5.721,5.721,5.721,5.721,5.7231,5.7293,5.7252,5.7231,5.7293,5.67,5.6382,5.7177,5.6638,5.6304,5.7073,5.721,5.745,5.8098,5.8217,5.812,5.794,5.593,5.4319,5.3787,5.355,5.3499,5.3704,5.291,5.2858,5.3933,5.2987,5.2807,5.3678,5.3908,5.4049,5.4127,5.4227,5.4838,5.6002,5.5719,5.6157,5.721,5.721,5.7169,4.3476,4.416,4.5068,4.5287,4.6061,4.6618,4.6024,4.6099,4.6079,4.5288,4.4933,4.5091,4.6007,4.596,4.6499,4.8609,4.8418,4.8244,4.8973,4.9776,5.0213,4.9984,5.0702,5.1209,5.1197,5.1419,5.1844,5.2479,5.3025,5.3633,5.432,5.5735,5.6609,5.6764,5.706,5.7085,5.6785,5.706,5.721,5.721,5.721,5.721,5.721,5.721,5.721,5.721,5.721,5.6941,5.6552,5.7003,5.6921,5.6573,5.7024,5.721,5.721,5.721,5.721,5.721,5.721,5.721,5.721,5.721,5.721,5.721,5.721,5.721,5.721,5.721,5.721,5.721,5.721,5.701,5.6847,5.7098,5.7159,5.7173,5.7177,5.687,5.6606,5.6834,5.6705,5.6606,5.6859,5.7045,5.7438,5.8121,5.8457,5.8601,5.8601,5.75,5.6244,5.4979,5.4315,5.4214,5.4793,5.4366,5.4519,5.5608,5.4671,5.429,5.4798,5.4824,5.4824,5.4824,5.5381,5.591,5.6434,5.6157,5.6283,5.6785,5.6785,5.6785,4.328,4.42,4.5346,4.5068,4.6049,4.6739,4.5427,4.5659,4.5793,4.459,4.4522,4.4894,4.554,4.6077,4.698,4.8776,4.8629,4.8788,5.0194,5.0032,5.003,5.0791,5.1019,5.1174,5.1252,5.1821,5.2296,5.2598,5.3426,5.4277,5.5085,5.6225,5.666,5.6233,5.676,5.6835,5.6409,5.6935,5.721,5.721,5.721,5.721,5.721,5.721,5.721,5.721,5.721,5.6718,5.5976,5.6842,5.6697,5.5997,5.6863,5.721,5.721,5.721,5.721,5.721,5.721,5.7272,5.733,5.723,5.7193,5.721,5.721,5.721,5.721,5.721,5.7135,5.7035,5.7035,5.6635,5.6314,5.6706,5.6787,5.6786,5.6867,5.6703,5.6509,5.6412,5.6481,5.6534,5.6412,5.6638,5.7045,5.7626,5.8017,5.8284,5.8387,5.8305,5.7603,5.5925,5.5111,5.5026,5.588,5.5729,5.6057,5.7135,5.6182,5.5704,5.5931,5.5931,5.5931,5.5931,5.6785,5.721,5.721,5.6785,5.6584,5.6584,5.6584,5.6584,4.4711,4.5767,4.6508,4.529,4.6016,4.6864,4.6289,4.59,4.5617,4.5481,4.5051,4.5009,4.6031,4.6847,4.7852,4.9298,4.8838,4.8777,5.0113,5.0261,5.0382,5.0747,5.1604,5.2323,5.2672,5.2342,5.2599,5.3831,5.4402,5.4932,5.5517,5.5684,5.5729,5.5678,5.6182,5.6459,5.6409,5.6935,5.721,5.721,5.721,5.721,5.721,5.721,5.721,5.721,5.721,5.6718,5.5976,5.6842,5.6697,5.5997,5.6863,5.721,5.721,5.721,5.721,5.721,5.721,5.7479,5.7755,5.7274,5.7139,5.721,5.721,5.721,5.721,5.721,5.686,5.6484,5.6484,5.6082,5.5678,5.5739,5.5739,5.5739,5.5729,5.5075,5.4719,5.5532,5.5035,5.4739,5.5558,5.5734,5.6057,5.6955,5.7117,5.7272,5.7629,5.7373,5.6904,5.6292,5.6653,5.694,5.7035,5.6157,5.6057,5.7135,5.6182,5.6031,5.701,5.706,5.706,5.706,5.716,5.721,5.721,5.716,5.7135,5.7135,5.7135,5.7135,4.3578,4.463,4.5781,4.5776,4.618,4.6503,4.6291,4.6306,4.6282,4.5922,4.5644,4.5624,4.6041,4.6661,4.7442,4.8556,4.8496,4.8965,5.0872,5.0838,5.0961,5.1952,5.2598,5.2808,5.2453,5.2439,5.2694,5.3229,5.4001,5.4489,5.462,5.5249,5.5451,5.5122,5.5628,5.5754,5.5426,5.5981,5.6233,5.6233,5.6233,5.6409,5.6735,5.6735,5.691,5.721,5.721,5.6383,5.5162,5.661,5.6341,5.5248,5.6941,5.7624,5.7645,5.7934,5.7835,5.7556,5.7556,5.7429,5.7239,5.7054,5.6989,5.7026,5.7026,5.7026,5.7026,5.7026,5.6873,5.6694,5.6694,5.6285,5.5894,5.5894,5.5894,5.5997,5.631,5.6087,5.585,5.5929,5.5686,5.5495,5.5572,5.5603,5.5824,5.6473,5.6821,5.7163,5.7533,5.7459,5.7197,5.678,5.6711,5.6735,5.6735,5.6635,5.676,5.7185,5.681,5.676,5.7185,5.721,5.721,5.721,5.721,5.7035,5.6735,5.6735,5.6559,5.6233,5.6584,5.6735,4.3121,4.4282,4.5685,4.6034,4.621,4.6241,4.6209,4.6441,4.6466,4.5785,4.5835,4.5965,4.5853,4.6469,4.7329,4.8221,4.8549,4.9322,5.1224,5.1114,5.1286,5.2546,5.2911,5.2906,5.251,5.2851,5.308,5.308,5.3756,5.4088,5.4004,5.4736,5.4945,5.4584,5.5072,5.5173,5.4812,5.5325,5.5603,5.5603,5.5603,5.5663,5.5796,5.6061,5.6241,5.637,5.6612,5.591,5.4741,5.6304,5.6119,5.5007,5.6878,5.7597,5.7638,5.7966,5.7858,5.7524,5.7524,5.7347,5.7085,5.6903,5.6951,5.7026,5.6869,5.6845,5.6884,5.6884,5.6801,5.6645,5.6464,5.6152,5.5866,5.5866,5.5866,5.597,5.636,5.6338,5.6159,5.5814,5.568,5.5501,5.5182,5.5242,5.5521,5.6105,5.6464,5.6863,5.7395,5.7255,5.6976,5.6703,5.6447,5.6325,5.636,5.6988,5.7336,5.7191,5.7321,5.7355,5.721,5.721,5.721,5.721,5.721,5.701,5.6635,5.6516,5.6255,5.5904,5.628,5.6361,4.4054,4.5616,4.6779,4.5932,4.5951,4.6196,4.6208,4.6159,4.5855,4.4978,4.5443,4.5891,4.548,4.6545,4.7796,4.8656,4.9193,4.985,5.0852,5.0929,5.1225,5.2107,5.221,5.2506,5.3309,5.375,5.3998,5.3998,5.3998,5.3998,5.3998,5.3998,5.3998,5.3998,5.4533,5.4812,5.4812,5.5325,5.5603,5.5603,5.5603,5.514,5.4361,5.5201,5.512,5.4381,5.5246,5.5341,5.4979,5.591,5.601,5.5688,5.6568,5.691,5.691,5.693,5.691,5.691,5.691,5.7212,5.7515,5.6965,5.7058,5.7309,5.6749,5.6722,5.6884,5.6884,5.6516,5.5997,5.5449,5.5312,5.5312,5.5312,5.5312,5.5312,5.5312,5.5006,5.4713,5.4713,5.4336,5.4017,5.4023,5.442,5.4987,5.5774,5.5891,5.6204,5.709,5.6465,5.5911,5.5911,5.6045,5.6155,5.6281,5.7208,5.7602,5.7128,5.7615,5.7686,5.7231,5.721,5.721,5.721,5.721,5.721,5.719,5.678,5.6598,5.6598,5.6598,5.6229,4.2073,4.3656,4.5078,4.4794,4.5471,4.6188,4.6137,4.5698,4.5333,4.5581,4.5387,4.5312,4.5723,4.6735,4.7581,4.7884,4.8805,4.9721,5.0354,5.1168,5.1932,5.2497,5.3083,5.3529,5.3795,5.4028,5.4108,5.401,5.4087,5.4083,5.4004,5.3998,5.3998,5.3998,5.4151,5.4253,5.4253,5.4431,5.4507,5.4507,5.4507,5.4236,5.3777,5.4992,5.5254,5.4843,5.5985,5.6085,5.5437,5.6347,5.6266,5.5723,5.691,5.7372,5.7413,5.7761,5.7598,5.7256,5.7256,5.7098,5.6892,5.6732,5.6535,5.6345,5.6159,5.6391,5.6702,5.6702,5.6569,5.6384,5.6225,5.6172,5.6113,5.5774,5.5716,5.5618,5.5371,5.5195,5.5117,5.5117,5.4765,5.4473,5.4473,5.4336,5.4603,5.5735,5.5657,5.5891,5.7043,5.6719,5.6269,5.593,5.6206,5.6353,5.6195,5.6798,5.7308,5.7551,5.773,5.7925,5.8141,5.8167,5.8167,5.8167,5.8167,5.7964,5.7607,5.7845,5.7794,5.7484,5.7173,5.6856,4.1393,4.2901,4.4382,4.4643,4.5426,4.6061,4.5732,4.5469,4.5354,4.5535,4.5513,4.5651,4.6127,4.7056,4.7748,4.7734,4.8873,4.9881,5.0193,5.1194,5.2068,5.2503,5.3465,5.3998,5.3795,5.3972,5.4092,5.401,5.4071,5.4092,5.4004,5.3998,5.3998,5.3998,5.3998,5.3998,5.3998,5.3998,5.3998,5.3998,5.4173,5.3986,5.3513,5.4809,5.5126,5.4702,5.5811,5.6064,0.0,5.6302,5.6302,5.607,5.6885,5.7203,5.7269,5.7548,5.7435,5.7116,5.7116,5.6758,5.6348,5.6348,5.6055,5.5677,5.5677,5.5898,5.6094,5.6094,5.6094,5.6094,5.6094,5.6094,5.6035,5.5735,5.5677,5.5599,5.5345,5.5176,5.5058,5.5058,5.4726,5.4492,5.4674,5.4726,5.5052,5.6009,5.6094,5.6308,5.7109,5.6855,5.6484,5.6211,5.6426,5.6422,5.6058,5.668,5.717,5.7399,5.7606,5.7887,5.8289,5.8294,5.8371,5.8601,5.8601,5.8422,5.8089,5.8257,5.8208,5.7872,5.7417,5.7265,0.0,4.3201,4.438,4.5017,4.5596,4.5831,4.513,4.5422,0.0,4.5065,4.5821,4.6622,4.6664,4.7497,4.8176,4.811,4.9297,5.0224,5.0294,5.111,5.1874,5.2376,5.3465,5.3976,5.3507,5.3801,5.3998,5.3998,5.3998,5.3998,5.3998,5.3998,5.3998,5.3998,5.3998,5.3998,5.3998,5.3998,5.3998,5.3959,5.4453,5.4225,5.341,5.4726,5.4857,5.4095,5.5019,5.5599,5.595,5.595,5.6211,5.6609,5.6609,5.6609,5.6609,5.6543,5.6543,5.657,5.653,5.623,5.5852,5.5833,5.556,5.5254,5.5234,5.5254,5.5312,5.5312,5.5312,5.5312,5.5312,5.5312,5.5293,5.5273,5.5254,5.5254,5.5215,5.4902,5.4674,5.4694,5.4355,5.4193,5.4648,5.5371,5.6028,5.655,5.6894,5.7148,5.718,5.6855,5.6609,5.6609,5.6609,5.6426,5.5989,5.6826,5.7184,5.682,5.7273,5.7661,5.7826,5.7831,5.8063,5.8577,5.8628,5.8628,5.8628,5.8224,5.7997,5.7976,5.7496,5.7441,4.1804,0.0,4.352,4.3127,4.4094,4.5219,0.0,4.4916,4.4552,4.5953,4.6007,4.608,4.7111,4.7806,4.8191,4.8177,4.9364,5.0297,5.0288,5.1584,5.2843,5.3726,5.3963,5.4051,5.4006,5.4004,5.3998,5.3998,5.3998,5.3998,5.3998,5.3998,5.3998,5.3998,5.3998,5.3998,5.3998,5.3998,5.3867,5.356,5.4342,5.4068,5.293,5.4876,5.5306,5.459,5.5781,5.6348,5.6426,5.6426,5.6484,5.6609,5.6609,5.6609,5.657,5.6211,5.6067,5.6009,5.5723,5.5547,5.5384,5.5078,5.4902,5.4765,5.4408,5.4759,5.5312,5.5312,5.5312,5.5312,5.5312,5.5312,5.5234,5.4902,5.4824,5.4726,5.4369,5.4232,5.4252,5.4635,5.459,5.4668,5.5078,5.5332,5.5703,5.6465,5.636,5.6438,5.7102,5.6855,5.6609,5.6609,5.6609,5.657,5.6445,5.6657,5.6805,5.6794,5.7204,5.7687,5.8166,5.8192,5.8245,5.8376,5.8769,5.8979,5.8984,5.8969,5.8974,5.8928,5.8063,5.7863,4.0887,4.2092,4.3078,4.3809,4.4685,4.5427,4.5709,4.5235,4.4981,4.5945,4.6287,4.6637,4.7371,4.806,4.8504,4.8474,4.9491,5.0527,5.1143,5.2205,5.3212,5.3894,5.4066,5.4158,5.4202,5.4076,5.3998,5.3998,5.3998,5.3998,5.3998,5.3998,5.3998,5.3998,5.4193,5.4336,5.4336,5.4336,5.4101,5.3672,5.4746,5.4687,5.3672,5.543,5.5976,5.5593,5.5859,5.6211,5.6589,5.6152,5.623,5.6562,5.6367,5.6289,5.623,5.5774,5.5618,5.5579,5.539,5.5176,5.4941,5.4531,5.4394,5.4336,5.4076,5.433,5.4701,5.4701,5.4701,5.4701,5.4701,5.4701,5.4642,5.4433,5.4394,5.4316,5.4056,5.3998,5.4076,5.4336,5.4394,5.4512,5.4941,5.5332,5.5735,5.6211,5.6399,5.6594,5.6894,5.6719,5.6609,5.6609,5.6609,5.6504,5.6308,5.6465,5.6539,5.6399,5.6603,5.688,5.7261,5.7287,5.7518,5.7982,5.8271,5.853,5.8733,5.8804,5.8839,5.8813,5.8078,5.7942,4.0264,4.1293,4.2846,4.5156,4.5767,4.5791,4.5707,4.5747,4.5823,4.5885,4.6749,4.7568,4.7759,4.846,4.8986,4.8919,4.9786,5.094,5.2242,5.284,5.3291,5.3649,5.403,5.4227,5.4195,5.4076,5.3998,5.3998,5.3998,5.3998,5.3998,5.4076,5.4115,5.4115,5.4551,5.483,5.4863,5.483,5.4551,5.4115,5.5325,5.5501,5.4824,5.6061,5.6609,5.657,5.582,5.5918,5.655,5.5723,5.582,5.6445,5.5989,5.5813,5.5755,5.5371,5.5215,5.5195,5.5137,5.4883,5.4531,5.4115,5.3998,5.4017,5.4076,5.4115,5.4115,5.4173,5.4095,5.3998,5.3998,5.3998,5.3998,5.3998,5.3998,5.3998,5.3998,5.3998,5.4017,5.4095,5.4115,5.4232,5.4707,5.543,5.5911,5.5911,5.6575,5.6992,5.6621,5.6609,5.6609,5.6609,5.6609,5.6445,5.6028,5.6367,5.6406,5.593,5.597,5.6024,5.6063,5.601,5.6383,5.7232,5.7336,5.7569,5.7951,5.8116,5.8183,5.8183,5.7756,5.779,4.2429,4.2777,4.2652,4.4104,4.4734,4.5242,4.6297,4.5728,4.5502,4.7341,4.7589,4.7838,4.8976,4.9304,4.9397,4.9386,5.0469,5.1684,5.2729,5.3209,5.3644,5.4135,5.4112,5.4083,5.4192,5.4076,5.3998,5.3998,5.3998,5.3998,5.3998,5.4375,5.459,5.459,5.5,5.539,5.5716,5.539,5.5,5.459,5.5481,5.5657,5.5254,5.6172,5.6609,5.6582,5.6472,5.6491,5.657,5.6009,5.5891,5.597,5.554,5.5384,5.5351,5.4941,5.4785,5.4752,5.433,5.4154,5.4095,5.4017,5.3998,5.4076,5.4473,5.459,5.4648,5.5019,5.4564,5.3998,5.3998,5.3998,5.3998,5.3998,5.3998,5.3998,5.3998,5.3998,5.4115,5.4512,5.459,5.4707,5.5137,5.5579,5.5911,5.5911,5.6367,5.666,5.6628,5.6609,5.6609,5.6609,5.6609,5.6589,5.6484,5.657,5.6406,5.593,5.6289,5.6316,5.5965,5.5593,5.5489,5.5652,5.6095,5.6369,5.6429,5.7304,5.772,5.7694,5.7521,5.7462,4.1871,4.2768,4.3327,4.5107,4.5485,4.5819,4.7196,4.6647,4.6329,4.811,4.8358,4.8603,4.9743,4.9921,5.0087,5.0502,5.1074,5.1872,5.3083,5.3221,5.3423,5.4147,5.4154,5.412,5.4172,5.4076,5.3998,5.3998,5.3998,5.4115,5.4375,5.457,5.4811,5.5019,5.5403,5.5716,5.5911,5.5976,5.5664,5.5019,5.5879,5.5937,5.5332,5.6191,5.6445,5.6211,5.5742,5.571,5.584,5.515,5.515,5.5521,5.5137,5.498,5.4941,5.4772,5.485,5.5,5.4785,5.4837,5.5032,5.5032,5.5189,5.5449,5.5644,5.5547,5.539,5.556,5.5169,5.4701,5.4701,5.4701,5.4701,5.4701,5.4551,5.4375,5.4375,5.4173,5.4056,5.4297,5.4336,5.4473,5.4902,5.5137,5.541,5.5833,5.6087,5.6308,5.6589,5.6609,5.6609,5.6609,5.6609,5.6609,5.6609,5.6609,5.6406,5.593,5.5898,5.5801,5.5579,5.5195,5.5078,5.5312,5.5338,5.5468,5.5658,5.6136,5.6464,5.6676,5.6609,5.672,4.1283,4.2604,4.3899,4.6008,4.6275,4.6371,4.785,4.7416,4.7133,4.8633,4.8921,4.9206,5.0227,5.0523,5.0871,5.1692,5.1859,5.2206,5.3175,5.3233,5.3357,5.3936,5.4095,5.4155,5.4155,5.4063,5.3998,5.3998,5.4095,5.4336,5.4694,5.4863,5.5117,5.5423,5.5833,5.6067,5.6067,5.6426,5.625,5.5605,5.6172,5.6094,5.5442,5.6035,5.6113,5.5735,5.5117,5.5019,5.5254,5.4492,5.457,5.5117,5.4687,5.459,5.4713,5.4811,5.5098,5.5423,5.5423,5.5696,5.6067,5.6067,5.6308,5.6628,5.6699,5.6504,5.6223,5.6321,5.6152,5.584,5.5527,5.5423,5.5488,5.5586,5.5351,5.5143,5.5143,5.4785,5.4427,5.433,5.4232,5.4297,5.4655,5.4791,5.5078,5.5794,5.5989,5.6184,5.6543,5.6609,5.6609,5.6609,5.6609,5.6609,5.6609,5.6609,5.6445,5.6087,5.5657,5.5423,5.5423,5.5058,5.4941,5.5156,5.487,5.4785,5.5019,5.5215,5.5442,5.5755,5.597,5.6269,4.2034,4.2985,4.3832,4.5618,4.6029,4.6371,4.785,4.7416,4.7219,4.8994,4.9058,4.9209,5.0529,5.1168,5.1799,5.2656,5.3113,5.3224,5.2796,5.3415,5.3812,5.3485,5.3793,5.4002,5.4002,5.401,5.3998,5.3998,5.4394,5.4674,5.4713,5.543,5.5833,5.5872,5.6308,5.6543,5.6543,5.6562,5.6589,5.6511,5.6126,5.593,5.5852,5.5547,5.539,5.5351,5.5293,5.5273,5.5273,5.4824,5.4694,5.4713,5.4213,5.4336,5.4752,5.5117,5.5501,5.5872,5.5872,5.6172,5.6543,5.6543,5.6562,5.666,5.7051,5.7148,5.7207,5.7644,5.7722,5.7429,5.6165,5.5872,5.597,5.6406,5.6465,5.6472,5.6472,5.6094,5.5657,5.5293,5.4902,5.4674,5.4694,5.5,5.5384,5.5833,5.6269,5.6543,5.6609,5.6609,5.6609,5.6609,5.6609,5.6609,5.6609,5.6609,5.6609,5.6543,5.6106,5.5872,5.5872,5.5462,5.5098,5.4752,5.4713,5.4492,5.4095,5.4922,5.5306,5.5371,5.6172,5.6589,4.2544,4.3504,4.444,4.6751,4.7118,4.7209,4.8315,4.8274,4.8438,4.9976,5.0468,5.0956,5.2041,5.2298,5.2475,5.2828,5.2752,5.2768,5.3083,5.3164,5.3359,5.373,5.39,5.3998,5.3998,5.3998,5.4115,5.4414,5.4615,5.4902,5.543,5.5735,5.6028,5.6328,5.6504,5.6445,5.6165,5.6145,5.6055,5.5781,5.5852,5.5774,5.5521,5.539,5.5156,5.4922,5.4922,5.4922,5.4928,5.4772,5.487,5.5078,5.515,5.5488,5.5944,5.6328,5.6758,5.7129,5.7129,5.7422,5.7793,5.7793,5.7969,5.8262,5.8406,5.8242,5.8039,5.8215,5.8086,5.7781,5.7293,5.7129,5.7195,5.7371,5.7195,5.6973,5.6973,5.6399,5.5872,5.5696,5.5351,5.5156,5.5384,5.5345,5.5547,5.623,5.625,5.6269,5.6543,5.6609,5.6609,5.6609,5.6609,5.6609,5.6609,5.6609,5.6609,5.6609,5.6426,5.6348,5.6348,5.5911,5.5599,5.5469,5.5195,5.5,5.4798,5.5156,5.5423,5.5677,5.6009,5.6328,4.2858,4.3943,4.5062,4.7315,4.7801,4.7962,4.8983,4.9092,4.9403,5.0759,5.1454,5.206,5.288,5.2783,5.2752,5.3242,5.2878,5.2753,5.3317,5.3223,5.3275,5.3744,5.392,5.3998,5.3998,5.4134,5.4355,5.4694,5.4922,5.5332,5.5872,5.6028,5.6269,5.6609,5.6445,5.6204,5.5911,5.5774,5.556,5.5312,5.5716,5.5677,5.5293,5.5039,5.4824,5.4713,5.4824,5.4883,5.4902,5.5202,5.5449,5.5762,5.6145,5.6523,5.6836,5.7265,5.7695,5.8086,5.8086,5.8379,5.8711,5.8711,5.8945,5.9207,5.9207,5.8993,5.8711,5.8711,5.8507,5.8317,5.8317,5.8203,5.8113,5.8289,5.8055,5.7793,5.7629,5.7024,5.6465,5.6165,5.5898,5.5801,5.6067,5.6015,5.6113,5.6699,5.6523,5.636,5.6562,5.6609,5.6609,5.6609,5.6609,5.6609,5.6609,5.6609,5.6609,5.6609,5.6609,5.6609,5.6609,5.6308,5.6048,5.5911,5.5618,5.5449,5.5312,5.5449,5.5618,5.5911,5.6048,5.6308,4.2964,4.4349,4.5655,4.706,4.7829,4.8562,4.9837,4.9793,4.9908,5.1232,5.1847,5.2296,5.2812,5.2535,5.2631,5.3981,5.3796,5.3472,5.3418,5.375,5.3867,5.3443,5.375,5.3998,5.4017,5.4433,5.4713,5.4713,5.5469,5.5911,5.5911,5.6348,5.6609,5.6609,5.6126,5.5911,5.5891,5.5481,5.5312,5.5312,5.5716,5.5696,5.5293,5.4408,5.4297,5.4752,5.5137,5.5306,5.539,5.625,5.6628,5.664,5.7051,5.7226,5.7285,5.7742,5.8172,5.8507,5.8507,5.88,5.9207,5.9207,5.9207,5.9207,5.9207,5.9207,5.9207,5.9207,5.9207,5.9207,5.9207,5.8859,5.8625,5.909,5.9207,5.9062,5.8625,5.8203,5.7644,5.6784,5.6628,5.6628,5.6628,5.6933,5.7226,5.7226,5.7226,5.707,5.664,5.6609,5.6609,5.6609,5.6609,5.6609,5.6609,5.6609,5.6609,5.6609,5.6609,5.6609,5.6609,5.6609,5.6387,5.593,5.5911,5.5716,5.5312,5.5716,5.5911,5.593,5.6387,5.6609,4.4483,4.5524,4.661,4.8038,4.8741,4.957,5.1333,5.1294,5.1301,5.2629,5.3015,5.3252,5.3777,5.3657,5.3519,5.3677,5.3549,5.3417,5.3396,5.3502,5.3633,5.3808,5.392,5.4115,5.4453,5.4635,5.4922,5.5501,5.5774,5.6048,5.6367,5.6504,5.6609,5.6609,5.6126,5.5755,5.5462,5.5371,5.5312,5.5312,5.5716,5.5852,5.5716,5.5801,5.5898,5.6042,5.6152,5.6367,5.6699,5.7273,5.7507,5.7547,5.7969,5.8097,5.8156,5.8641,5.8887,5.9004,5.9004,5.9062,5.9207,5.9207,5.9207,5.9207,5.9207,5.9207,5.9207,5.9207,5.9207,5.9207,5.9207,5.909,5.9032,5.9168,5.9207,5.9149,5.9004,5.8406,5.7926,5.7922,5.7461,5.7129,5.7468,5.7605,5.7703,5.7703,5.7703,5.7547,5.709,5.6777,5.6609,5.6609,5.6609,5.6609,5.6609,5.6609,5.6609,5.6609,5.6609,5.6609,5.6609,5.6609,5.6523,5.6406,5.6387,5.6328,5.6211,5.6328,5.6387,5.6406,5.6523,5.6609,4.539,4.6273,4.7312,4.8692,4.9426,5.0252,5.1972,5.2227,5.2269,5.2823,5.3072,5.3343,5.3855,5.3708,5.3536,5.3683,5.3526,5.3443,5.3619,5.3633,5.373,5.3978,5.4154,5.4394,5.4674,5.498,5.539,5.5872,5.6067,5.6308,5.6562,5.6609,5.6504,5.6328,5.5891,5.554,5.5312,5.5137,5.5312,5.582,5.6204,5.6594,5.6926,5.6699,5.668,5.6836,5.7039,5.7468,5.8027,5.8289,5.8406,5.8437,5.8699,5.8769,5.88,5.909,5.9207,5.9207,5.9207,5.9207,5.9207,5.9207,5.9207,5.9207,5.9207,5.9207,5.9207,5.9207,5.9207,5.9207,5.9207,5.9207,5.9207,5.9207,5.9207,5.9149,5.8945,5.8524,5.8172,5.8262,5.7969,5.7805,5.8086,5.8289,5.8348,5.8172,5.7996,5.7808,5.75,5.709,5.6836,5.6836,5.6706,5.6609,5.6609,5.6609,5.6609,5.6609,5.6609,5.6609,5.6609,5.6609,5.6609,5.6609,5.6609,5.6609,5.6609,5.6609,5.6609,5.6609,5.6609,5.6609,4.5912,4.6783,4.7811,4.9167,4.9987,5.0799,5.2002,5.2644,5.2835,5.2325,5.2555,5.2951,5.339,5.313,5.3061,5.3881,5.3691,5.358,5.3939,5.3998,5.4017,5.4056,5.4433,5.4733,5.4785,5.5462,5.593,5.597,5.6367,5.6609,5.6609,5.6609,5.6387,5.5911,5.554,5.5351,5.5312,5.4961,5.541,5.664,5.707,5.7734,5.8507,5.7363,5.7031,5.7422,5.782,5.8465,5.9207,5.9207,5.9207,5.9207,5.9207,5.9207,5.9207,5.9207,5.9207,5.9207,5.9207,5.9207,5.9207,5.9207,5.9207,5.9207,5.9207,5.9207,5.9207,5.9207,5.9207,5.9207,5.9207,5.9207,5.9207,5.9207,5.9207,5.9062,5.8652,5.8535,5.839,5.8102,5.8289,5.8507,5.8566,5.8917,5.9062,5.8625,5.823,5.7937,5.7937,5.7539,5.7265,5.7265,5.6933,5.6706,5.664,5.664,5.6648,5.6609,5.6609,5.6609,5.6609,5.6609,5.6609,5.6609,5.6609,5.6609,5.6609,5.6609,5.6609,5.6609,5.6609,5.6609,4.6758,4.7541,4.8368,4.9742,5.1031,5.1984,5.2112,5.2559,5.2956,5.3087,5.3519,5.3872,5.3857,5.3783,5.3783,5.3978,5.392,5.39,5.3998,5.3998,5.4134,5.4492,5.4655,5.4941,5.5579,5.5794,5.6048,5.6426,5.6523,5.6609,5.6609,5.6609,5.6387,5.5911,5.5813,5.5618,5.5312,5.5521,5.6106,5.709,5.7547,5.8203,5.9051,5.8769,5.8699,5.8769,5.8875,5.9032,5.9207,5.9207,5.9207,5.9207,5.9207,5.9207,5.9207,5.9207,5.9207,5.9207,5.9207,5.9207,5.9207,5.9207,5.9207,5.9207,5.9207,5.9207,5.9207,5.9207,5.9207,5.9207,5.9207,5.9207,5.9207,5.9207,5.9207,5.918,5.9062,5.8769,5.8566,5.8875,5.8683,5.8625,5.9004,5.9121,5.9168,5.9062,5.8652,5.8379,5.8379,5.8027,5.7742,5.7742,5.7664,5.7468,5.7109,5.707,5.6933,5.6601,5.6609,5.6609,5.6609,5.6609,5.6609,5.6609,5.6609,5.6609,5.6609,5.6609,5.6609,5.6609,5.6609,5.6609,4.7122,4.792,4.8838,5.0465,5.14,5.1964,5.2107,5.2489,5.2926,5.3334,5.3615,5.385,5.3982,5.3998,5.3998,5.3998,5.3998,5.3998,5.3998,5.4173,5.4433,5.4674,5.5039,5.5423,5.5872,5.6087,5.6348,5.6562,5.6609,5.6504,5.6289,5.6269,5.5976,5.5351,5.5501,5.5599,5.5579,5.6035,5.675,5.7824,5.8086,5.8535,5.9207,5.9207,5.9207,5.9207,5.9207,5.9207,5.9207,5.9207,5.9207,5.9207,5.9207,5.9207,5.9207,5.9207,5.9207,5.9207,5.9207,5.9207,5.9207,5.9207,5.9207,5.9207,5.9207,5.9207,5.9207,5.9207,5.9207,5.9207,5.9207,5.9207,5.9207,5.9207,5.9207,5.9207,5.9207,5.9004,5.8914,5.9149,5.9004,5.8914,5.9149,5.9207,5.9207,5.9207,5.9004,5.8828,5.8828,5.8449,5.8203,5.8203,5.7996,5.7808,5.7566,5.7547,5.7449,5.7234,5.7214,5.7214,5.7214,5.7019,5.6797,5.6582,5.6609,5.6609,5.6609,5.6609,5.6609,5.6609,5.6609,5.6609,4.7304,4.838,4.9568,5.111,5.1594,5.1814,5.2295,5.2643,5.2953,5.341,5.3502,5.3619,5.3939,5.3998,5.3998,5.3998,5.3998,5.4037,5.4115,5.4453,5.4752,5.4883,5.5481,5.593,5.6009,5.6367,5.6589,5.6484,5.6465,5.6289,5.5813,5.5794,5.5481,5.4805,5.5273,5.5683,5.6009,5.6562,5.7383,5.8507,5.8566,5.8828,5.9207,5.9207,5.9207,5.9207,5.9207,5.9207,5.9207,5.9207,5.9207,5.9207,5.9207,5.9207,5.9207,5.9207,5.9207,5.9207,5.9207,5.9207,5.9207,5.9207,5.9207,5.9207,5.9207,5.9207,5.9207,5.9207,5.9207,5.9207,5.9207,5.9207,5.9207,5.9207,5.9207,5.9207,5.9207,5.9207,5.9207,5.9207,5.9207,5.9207,5.9207,5.9207,5.9207,5.9207,5.9207,5.9207,5.9207,5.8859,5.8625,5.8625,5.832,5.8102,5.7996,5.7996,5.7984,5.7898,5.7898,5.7898,5.7898,5.7547,5.7168,5.6843,5.6687,5.6609,5.6609,5.6609,5.6609,5.6609,5.6609,5.6609,4.7539,4.9549,5.1191,5.1453,5.2167,5.2877,5.3168,5.3326,5.3493,5.3843,5.392,5.3939,5.3998,5.3998,5.3998,5.3998,5.3998,5.4134,5.4531,5.4674,5.4941,5.5657,5.5833,5.6048,5.6465,5.6543,5.6426,5.6028,5.5989,5.5813,5.5384,5.539,5.5332,5.5234,5.5996,5.6445,5.6504,5.7312,5.7996,5.8507,5.8914,5.9149,5.9207,5.9207,5.9207,5.9207,5.9207,5.9207,5.9207,5.9207,5.9207,5.9207,5.9207,5.9207,5.9207,5.9207,5.9207,5.9207,5.9207,5.9207,5.9207,5.9207,5.9207,5.9207,5.9207,5.9207,5.9207,5.9207,5.9207,5.9207,5.9207,5.9207,5.9207,5.9207,5.9207,5.9207,5.9207,5.9207,5.9207,5.9207,5.9207,5.9207,5.9207,5.9207,5.9207,5.9207,5.9207,5.9207,5.9207,5.9149,5.9121,5.9121,5.9062,5.8875,5.8449,5.8418,5.8262,5.7926,5.7898,5.7898,5.7898,5.784,5.7781,5.7722,5.698,5.6609,5.6609,5.6609,5.6609,5.6609,5.6609,5.6609,4.7772,4.9381,5.0614,5.1597,5.2219,5.2752,5.3286,5.3445,5.3606,5.3927,5.3998,5.3998,5.3998,5.3998,5.3998,5.3998,5.4213,5.4453,5.4674,5.5078,5.5501,5.5872,5.6126,5.6367,5.6562,5.6609,5.6406,5.595,5.5911,5.5618,5.5,5.4961,5.5058,5.5293,5.5898,5.6562,5.7312,5.7937,5.8449,5.8887,5.909,5.9207,5.9207,5.9207,5.9207,5.9207,5.9207,5.9207,5.9207,5.9207,5.9207,5.9207,5.9207,5.9207,5.9207,5.9207,5.9207,5.9207,5.9207,5.9207,5.9207,5.9207,5.9207,5.9207,5.9207,5.9207,5.9207,5.9207,5.9207,5.9207,5.9207,5.9207,5.9207,5.9207,5.9207,5.9207,5.9207,5.9207,5.9207,5.9207,5.9207,5.9207,5.9207,5.9207,5.9207,5.9207,5.9207,5.9207,5.9207,5.9207,5.9207,5.9207,5.9207,5.9121,5.8914,5.8887,5.8828,5.8641,5.8641,5.8641,5.8641,5.8379,5.8242,5.8242,5.7644,5.7332,5.7332,5.7332,5.7332,5.7332,5.7332,5.7332,4.792,4.9028,4.9886,5.1543,5.2231,5.2657,5.3297,5.3568,5.3773,5.3992,5.4118,5.4134,5.4017,5.3998,5.4037,5.4154,5.4473,5.4772,5.498,5.5521,5.595,5.6067,5.6387,5.6609,5.6609,5.6609,5.6367,5.5794,5.5755,5.5384,5.457,5.4655,5.4922,5.5449,5.595,5.6836,5.8027,5.8476,5.8859,5.9207,5.9207,5.9207,5.9207,5.9207,5.9207,5.9207,5.9207,5.9207,5.9207,5.9207,5.9207,5.9207,5.9207,5.9207,5.9207,5.9207,5.9207,5.9207,5.9207,5.9207,5.9207,5.9207,5.9207,5.9207,5.9207,5.9207,5.9207,5.9207,5.9207,5.9207,5.9207,5.9207,5.9207,5.9207,5.9207,5.9207,5.9207,5.9207,5.9207,5.9207,5.9207,5.9207,5.9207,5.9207,5.9207,5.9207,5.9207,5.9207,5.9207,5.9207,5.9207,5.9207,5.9207,5.9207,5.9207,5.9207,5.9207,5.9207,5.9207,5.9207,5.9207,5.8859,5.8683,5.8683,5.8379,5.8113,5.7898,5.7898,5.7898,5.7898,5.7898,5.7898,4.7847,4.8791,4.9849,5.1179,5.2303,5.316,5.3519,5.3949,5.4266,5.4184,5.4428,5.4531,5.4076,5.3998,5.4134,5.459,5.4694,5.4961,5.5735,5.5872,5.6067,5.6504,5.6609,5.6609,5.6609,5.6609,5.623,5.541,5.5332,5.4935,5.4076,5.4453,5.5058,5.5852,5.6692,5.7551,5.8449,5.8945,5.918,5.9207,5.9207,5.9207,5.9207,5.9207,5.9207,5.9207,5.9207,5.9207,5.9207,5.9207,5.9207,5.9207,5.9207,5.9207,5.9207,5.9207,5.9207,5.9207,5.9207,5.9207,5.9207,5.9207,5.9207,5.9207,5.9207,5.9207,5.9207,5.9207,5.9207,5.9207,5.9207,5.9207,5.9207,5.9207,5.9207,5.9207,5.9207,5.9207,5.9207,5.9207,5.9207,5.9207,5.9207,5.9207,5.9207,5.9207,5.9207,5.9207,5.9207,5.9207,5.9207,5.9207,5.9207,5.9207,5.9207,5.9207,5.9207,5.9207,5.9207,5.9207,5.9207,5.918,5.9149,5.9149,5.9149,5.8711,5.7898,5.7898,5.7898,5.7898,5.7898,5.7898,4.7398,4.8151,4.9045,5.0639,5.1898,5.2882,5.3468,5.3962,5.4279,5.4272,5.4489,5.458,5.4189,5.4535,5.4805,5.4713,5.5137,5.556,5.5872,5.6145,5.6406,5.6562,5.6609,5.6609,5.6609,5.6609,5.623,5.5371,5.5379,5.514,5.4479,5.4654,5.5352,5.6699,5.7051,5.7766,5.8945,5.9121,5.9207,5.9207,5.9207,5.9207,5.9207,5.9207,5.9207,5.9207,5.9207,5.9207,5.9207,5.9207,5.9207,5.9207,5.9207,5.9207,5.9207,5.9207,5.9207,5.9207,5.9207,5.9207,5.9207,5.9207,5.9207,5.9207,5.9207,5.9207,5.9207,5.9207,5.9207,5.9207,5.9207,5.9207,5.9207,5.9207,5.9207,5.9207,5.9207,5.9207,5.9207,5.9207,5.9207,5.9207,5.9207,5.9207,5.9207,5.9207,5.9207,5.9207,5.9207,5.9207,5.9207,5.9207,5.9207,5.9207,5.9207,5.9207,5.9207,5.9207,5.9207,5.9207,5.9207,5.9207,5.9207,5.9207,5.9207,5.9051,5.8711,5.8711,5.8711,5.8711,5.8711,5.8711,4.6938,4.7549,4.8352,4.9998,5.1231,5.228,5.3253,5.3792,5.4106,5.4251,5.4519,5.458,5.4219,5.489,5.539,5.4961,5.5442,5.597,5.6106,5.6406,5.6609,5.6609,5.6609,5.6609,5.6609,5.6445,5.6074,5.5351,5.5359,5.5205,5.4719,5.499,5.5872,5.739,5.7715,5.8301,5.918,5.9207,5.9207,5.9207,5.9207,5.9207,5.9207,5.9207,5.9207,5.9207,5.9207,5.9207,5.9207,5.9207,5.9207,5.9207,5.9207,5.9207,5.9207,5.9207,5.9207,5.9207,5.9207,5.9207,5.9207,5.9207,5.9207,5.9207,5.9207,5.9207,5.9207,5.9207,5.9297,5.9414,5.9414,5.9483,5.957,5.9442,5.9414,5.9355,5.9238,5.9207,5.9207,5.9207,5.9207,5.9207,5.9207,5.9207,5.9207,5.9207,5.9207,5.9207,5.9207,5.9207,5.9207,5.9207,5.9207,5.9207,5.9207,5.9207,5.9207,5.9207,5.9207,5.9207,5.9207,5.9207,5.9207,5.9207,5.9207,5.9207,5.9207,5.9207,5.9207,5.9207,5.9207,5.9207,0.0,0.0,0.0,4.9215,5.0349,5.1462,5.2839,5.339,5.3741,5.4195,5.4529,5.4563,5.4088,5.5013,5.5755,5.5351,5.5638,5.6067,5.6523,5.6609,5.6609,5.6609,5.6609,5.6582,5.6562,5.6165,5.5735,5.5332,5.5299,5.5143,5.4791,5.5521,5.6555,5.7879,5.8758,5.9207,5.9207,5.9207,5.9207,5.9207,5.9207,5.9207,5.9207,5.9207,5.9207,5.9207,5.9207,5.9207,5.9207,5.9207,5.9207,5.9207,5.9207,5.9207,5.9207,5.9207,5.9207,5.9207,5.9207,5.9207,5.9207,5.9207,5.9207,5.9207,5.9207,5.9207,5.9207,5.9207,5.9512,5.9824,5.9824,6.0128,6.0303,5.9893,5.9824,5.9707,5.9297,5.9207,5.9207,5.9207,5.9207,5.9207,5.9207,5.9207,5.9207,5.9207,5.9207,5.9207,5.9207,5.9207,5.9207,5.9207,5.9207,5.9207,5.9207,5.9207,5.9207,5.9207,5.9207,5.9207,5.9207,5.9207,5.9207,5.9207,5.9207,5.9207,5.9207,5.9207,5.9207,5.9207,5.9207,5.9207,4.6177,0.0,0.0,0.0,0.0,0.0,5.2009,5.3009,5.3787,5.3914,5.4384,5.4633,5.422,5.4882,5.5332,5.4922,5.5723,5.6445,5.6562,5.6609,5.6609,5.6609,5.6609,5.6465,5.6126,5.5989,5.5735,5.5332,5.5397,5.5613,5.6049,5.7141,5.7969,5.832,5.8887,5.9207,5.9207,5.9207,5.9207,5.9207,5.9207,5.9207,5.9207,5.9207,5.9207,5.9207,5.9207,5.9207,5.9207,5.9207,5.9207,5.9207,5.9207,5.9207,5.9207,5.9207,5.9207,5.9207,5.9207,5.9207,5.9207,5.9207,5.9207,5.9207,5.9207,5.9414,5.9629,5.9629,5.9922,6.0245,6.0245,6.0332,6.0362,6.0273,6.0245,6.0128,5.9718,5.9629,5.9559,5.9266,5.9207,5.9207,5.9207,5.9207,5.9207,5.9207,5.9207,5.9207,5.9207,5.9207,5.9207,5.9207,5.9207,5.9207,5.9207,5.9207,5.9207,5.9207,5.9207,5.9207,5.9207,5.9207,5.9207,5.9207,5.9207,5.9207,5.9207,5.9207,5.9207,5.9207,5.9207,5.9207,0.0,0.0,4.766,4.8337,0.0,0.0,5.1638,5.2642,5.3495,5.3663,5.4125,5.4419,5.4228,5.4683,5.501,5.4798,5.5523,5.6176,5.6283,5.6465,5.6609,5.6609,5.6609,5.6484,5.623,5.6009,5.5872,5.584,5.5919,5.6314,5.7105,5.8027,5.8507,5.8507,5.8945,5.9207,5.9207,5.9207,5.9207,5.9207,5.9207,5.9207,5.9207,5.9207,5.9207,5.9207,5.9207,5.9207,5.9207,5.9207,5.9207,5.9207,5.9207,5.9207,5.9207,5.9207,5.9207,5.9207,5.9207,5.9297,5.9453,5.9453,5.9542,5.9707,5.9707,5.9863,6.0069,6.0069,6.0362,6.0742,6.0898,6.0928,6.0898,6.0742,6.0694,6.0577,6.0128,5.9922,5.9687,5.9266,5.9207,5.9207,5.9207,5.9207,5.9207,5.9207,5.9207,5.9207,5.9207,5.9207,5.9207,5.9207,5.9207,5.9207,5.9207,5.9207,5.9207,5.9207,5.9207,5.9207,5.9207,5.9207,5.9207,5.9207,5.9207,5.9207,5.9207,5.9207,5.9207,5.9207,5.9207,5.9207,0.0,0.0,0.0,0.0,4.9585,0.0,5.1441,5.2249,5.2958,5.3362,5.3729,5.4004,5.4126,5.447,5.4727,5.4727,5.513,5.5534,5.5835,5.6225,5.6538,5.6546,5.6584,5.6562,5.6523,5.6126,5.6067,5.6484,5.664,5.7117,5.791,5.8359,5.8566,5.8566,5.8976,5.9207,5.9207,5.9207,5.9207,5.9207,5.9207,5.9207,5.9207,5.9207,5.9207,5.9207,5.9207,5.9207,5.9207,5.9207,5.9207,5.9207,5.9207,5.9207,5.9207,5.9207,5.9207,5.9207,5.9207,5.9473,5.9805,5.9805,6.0069,6.0401,6.0401,6.0431,6.0508,6.0518,6.084,6.125,6.1601,6.1719,6.1601,6.125,6.1181,6.1035,6.0577,6.0215,5.9824,5.9414,5.9266,5.9207,5.9207,5.9207,5.9207,5.9207,5.9207,5.9207,5.9207,5.9207,5.9207,5.9207,5.9207,5.9207,5.9207,5.9207,5.9207,5.9207,5.9207,5.9207,5.9207,5.9207,5.9207,5.9207,5.9207,5.9207,5.9207,5.9207,5.9207,5.9207,5.9207,5.9207,0.0,0.0,0.0,0.0,0.0,0.0,5.0568,5.1628,5.2584,5.2557,5.3243,5.3808,5.3734,5.4088,5.4396,5.4396,5.4786,5.5197,5.5545,5.5847,5.609,5.6161,5.6458,5.6445,5.6067,5.595,5.595,5.6028,5.7058,5.7851,5.8359,5.8828,5.9062,5.9062,5.9149,5.9207,5.9207,5.9207,5.9207,5.9207,5.9207,5.9207,5.9207,5.9207,5.9207,5.9207,5.9207,5.9207,5.9207,5.9207,5.9207,5.9207,5.9207,5.9207,5.9207,5.9207,5.9207,5.9207,5.9207,5.9473,5.9805,5.9805,6.0069,6.0401,6.0401,6.0655,6.1035,6.1367,6.1514,6.1601,6.1689,6.1719,6.1689,6.1601,6.1572,6.1484,6.1064,6.0898,6.0694,6.0245,5.9648,5.9207,5.9207,5.9207,5.9207,5.9207,5.9207,5.9207,5.9207,5.9207,5.9207,5.9207,5.9207,5.9207,5.9207,5.9207,5.9207,5.9207,5.9207,5.9207,5.9207,5.9207,5.9207,5.9207,5.9207,5.9207,5.9207,5.9207,5.9207,5.9207,5.9207,5.9207,0.0,0.0,0.0,4.849,0.0,0.0,0.0,5.1198,5.2089,5.227,5.2858,5.342,5.3652,5.3904,5.4134,5.4364,5.4594,5.4802,5.4983,5.5573,5.6076,5.6319,5.6509,5.6504,5.6269,5.625,5.6426,5.6855,5.7695,5.8406,5.8828,5.9062,5.9207,5.9207,5.9207,5.9207,5.9207,5.9207,5.9207,5.9207,5.9207,5.9207,5.9207,5.9207,5.9297,5.9501,5.9501,5.9601,5.9805,5.9805,5.9805,5.9765,5.9355,5.9207,5.9207,5.9442,5.9501,5.9531,5.9718,6.0215,6.0694,6.0508,6.0888,6.1338,6.1104,6.1221,6.1426,6.1631,6.1719,6.1719,6.1719,6.1719,6.1719,6.1719,6.1719,6.1631,6.1426,6.125,6.1035,6.0801,6.0245,5.9718,5.9531,5.9325,5.9207,5.9207,5.9207,5.9207,5.9207,5.9207,5.9207,5.9207,5.9207,5.9207,5.9207,5.9207,5.9207,5.9207,5.9207,5.9207,5.9207,5.9207,5.9207,5.9207,5.9207,5.9207,5.9207,5.9207,5.9207,5.9207,5.9207,5.9207,0.0,0.0,0.0,0.0,0.0,4.9979,0.0,0.0,0.0,5.2126,5.2522,5.2964,5.3465,5.36,5.3749,5.3941,5.4197,5.4342,5.4222,5.5186,5.6011,5.627,5.6366,5.6439,5.6518,5.6615,5.696,5.773,5.8144,5.8566,5.9051,5.9149,5.9207,5.9207,5.9121,5.9121,5.9207,5.9121,5.9121,5.9207,5.9266,5.9325,5.9325,5.9414,5.9618,5.9922,5.9922,6.0098,6.0401,6.0401,6.0401,6.0342,5.9687,5.9442,5.9473,5.9805,5.9922,5.9952,6.0303,6.0987,6.166,6.1308,6.1748,6.2305,6.1836,6.1719,6.1719,6.1719,6.1719,6.1719,6.1719,6.1719,6.1719,6.1719,6.1719,6.1719,6.1719,6.1426,6.124,6.124,6.0859,6.039,5.9893,5.9531,5.9297,5.9207,5.9207,5.9207,5.9207,5.9207,5.9207,5.9207,5.9207,5.9207,5.9207,5.9207,5.9207,5.9207,5.9207,5.9207,5.9207,5.9207,5.9207,5.9207,5.9207,5.9207,5.9207,5.9207,5.9207,5.9207,5.9207,5.9207,0.0,0.0,0.0,0.0,5.0546,0.0,0.0,0.0,5.1776,5.1842,0.0,5.2583,5.2646,0.0,0.0,5.2233,5.3169,5.3774,5.3248,5.4347,5.5235,5.5265,5.551,5.5877,5.6311,5.6602,5.6938,5.7241,5.7722,5.8144,5.8566,5.8973,5.9207,5.9207,5.88,5.8769,5.9207,5.88,5.88,5.9207,5.9542,5.9718,5.9746,6.008,6.0303,6.0314,6.0314,6.0362,6.0401,6.0401,6.0401,6.0372,6.0303,6.0255,6.0255,6.0332,6.0314,6.0342,6.0372,6.0987,6.1689,6.166,6.1982,6.2305,6.1836,6.1719,6.1719,6.1719,6.1719,6.1719,6.1719,6.1719,6.1719,6.1719,6.1719,6.1719,6.1719,6.166,6.1631,6.1631,6.1308,6.0771,5.9941,5.9765,5.9601,5.9238,5.9207,5.9207,5.9207,5.9207,5.9207,5.9207,5.9207,5.9207,5.9207,5.9207,5.9207,5.9207,5.9207,5.9207,5.9207,5.9207,5.9207,5.9207,5.9207,5.9207,5.9207,5.9207,5.9207,5.9207,5.9207,5.9207,0.0,0.0,0.0,0.0,0.0,0.0,5.1316,0.0,5.1484,0.0,0.0,0.0,0.0,0.0,0.0,0.0,5.3102,5.3496,5.3535,5.4029,5.4651,5.5321,5.5269,5.536,5.5746,5.6217,5.6765,5.731,5.7554,5.7971,5.8632,5.8749,5.8917,5.918,5.9004,5.9004,5.9207,5.9004,5.9121,5.9559,5.9473,5.9707,6.0156,6.0069,6.0332,6.0801,6.0801,6.0928,6.1162,6.1162,6.1162,6.1162,6.1162,6.0841,6.0431,6.0694,6.0801,6.084,6.1074,6.1572,6.2129,6.2373,6.2246,6.2012,6.207,6.1924,6.1719,6.1719,6.1719,6.1719,6.1719,6.1719,6.1719,6.1719,6.1719,6.1719,6.1719,6.1719,6.1719,6.1719,6.1572,6.125,6.0655,6.0332,6.0011,5.9618,5.9559,5.9473,5.9238,5.9207,5.9207,5.9207,5.9207,5.9207,5.9207,5.9207,5.9207,5.9207,5.9207,5.9207,5.9207,5.9207,5.9207,5.9207,5.9207,5.9207,5.9207,5.9207,5.9207,5.9207,5.9207,5.9207,5.2636,0.0,0.0,0.0,0.0,0.0,0.0,0.0,0.0,0.0,0.0,0.0,0.0,0.0,0.0,0.0,0.0,5.3058,5.3124,5.3451,5.4118,5.5225,5.5234,5.521,5.5315,5.6058,5.6689,5.7135,5.737,5.7816,5.8566,5.8535,5.8711,5.918,5.9062,5.9062,5.9207,5.9207,5.9355,5.9629,5.9542,5.9835,6.0372,6.0245,6.0566,6.125,6.125,6.1426,6.1719,6.1719,6.1719,6.1719,6.1719,6.1308,6.0811,6.1133,6.125,6.1308,6.1601,6.2012,6.2451,6.2754,6.2402,6.1924,6.2129,6.1982,6.1719,6.1719,6.1719,6.1719,6.1719,6.1719,6.1719,6.1719,6.1719,6.1719,6.1719,6.1719,6.1719,6.1719,6.1719,6.1601,6.1308,6.087,6.046,6.0039,5.9863,5.9687,5.9414,5.9266,5.9207,5.9207,5.9207,5.9207,5.9207,5.9207,5.9207,5.9207,5.9207,5.9207,5.9207,5.9207,5.9207,5.9207,5.9207,5.9207,5.9207,5.9207,5.9207,5.9207,5.9207,5.9207,0.0,0.0,0.0,5.3605,0.0,0.0,0.0,0.0,5.2467,0.0,0.0,0.0,0.0,0.0,0.0,0.0,0.0,0.0,0.0,0.0,5.3604,5.4608,5.5392,5.568,5.5161,5.63,5.6875,5.6383,5.705,5.7696,5.8098,5.8377,5.8711,5.918,5.8769,5.8742,5.9207,5.9207,5.9207,5.9238,6.0011,6.0372,6.0401,6.0859,6.1298,6.1689,6.1689,6.1689,6.1719,6.1719,6.1719,6.1719,6.1719,6.1689,6.166,6.1689,6.1689,6.1689,6.1719,6.2012,6.2393,6.2422,6.2393,6.2305,6.1865,6.1719,6.1719,6.1719,6.1719,6.1719,6.1719,6.1719,6.1719,6.1719,6.1719,6.1719,6.1719,6.1719,6.1719,6.1719,6.1719,6.1719,6.1689,6.1338,6.0918,6.046,6.0069,5.9805,5.9776,5.9442,5.9207,5.9207,5.9207,5.9207,5.9207,5.9207,5.9207,5.9207,5.9207,5.9207,5.9207,5.9207,5.9207,5.9207,5.9207,5.9207,5.9207,5.9207,5.9207,5.9207,5.9207,5.9207,5.4268,5.4179,5.4054,5.4348,0.0,0.0,0.0,0.0,0.0,0.0,0.0,0.0,0.0,0.0,0.0,0.0,0.0,0.0,0.0,0.0,5.3342,5.3669,0.0,0.0,0.0,0.0,5.6132,5.6477,5.6739,5.7231,5.7926,5.8138,5.8442,5.8907,5.8953,5.918,5.959,5.959,5.9718,6.0011,6.0011,6.0128,6.0401,6.0548,6.0694,6.087,6.1162,6.1133,6.087,6.1162,6.1308,6.1328,6.1601,6.1719,6.1719,6.1719,6.1719,6.1719,6.1719,6.1787,6.2012,6.2305,6.2187,6.1982,6.2129,6.1953,6.1719,6.1719,6.1719,6.1719,6.1719,6.1719,6.1719,6.1719,6.1719,6.1719,6.1719,6.1719,6.1719,6.1719,6.1719,6.1719,6.1719,6.1601,6.1426,6.1279,6.1397,6.1416,6.1094,6.0449,6.0011,6.0011,5.9531,5.9207,5.9207,5.9207,5.9207,5.9207,5.9207,5.9207,5.9207,5.9207,5.9207,5.9207,5.9207,5.9207,5.9207,5.9207,5.9207,5.9207,5.9207,5.9207,5.4923,5.4791,5.4608,5.4759,5.4544,0.0,5.4509,0.0,5.3796,0.0,0.0,0.0,0.0,0.0,0.0,0.0,0.0,0.0,0.0,5.2621,0.0,0.0,0.0,0.0,0.0,0.0,5.5475,5.5886,5.6345,5.6894,5.761,5.7956,5.8379,5.9008,5.9134,5.9473,6.0011,6.0011,6.0128,6.0401,6.0128,6.0156,6.0401,6.0245,6.0255,6.0421,6.0742,6.0683,6.0431,6.0918,6.1094,6.1133,6.1543,6.1719,6.1719,6.1719,6.1719,6.1719,6.1719,6.199,6.235,6.2197,6.2255,6.2447,6.2743,6.2625,6.2398,6.2546,6.2487,6.232,6.2021,6.1836,6.1719,6.1719,6.1719,6.1719,6.1719,6.1719,6.1719,6.1719,6.1719,6.1719,6.1719,6.1836,6.1894,6.1719,6.1953,6.2041,6.1728,6.1221,6.087,6.087,6.039,6.0039,5.9883,5.9735,5.9629,5.9629,5.9501,5.9414,5.9414,5.9266,5.9207,5.9207,5.9207,5.9207,5.9207,5.9207,5.9207,5.9207,5.9207,5.9207]}]]